<?xml version="1.0" encoding="UTF-8" standalone="no" ?>
<gpx xmlns="http://www.topografix.com/GPX/1/1" xmlns:xsi="http://www.w3.org/2001/XMLSchema-instance" xsi:schemaLocation="http://www.topografix.com/GPX/1/1 http://www.topografix.com/GPX/1/1/gpx.xsd" version="1.1" creator="VisuGPX - https://www.visugpx.com">
  <metadata>
    <name>Lyon free vtt 2012</name>
    <desc><![CDATA[Lyon free vtt 2012]]></desc>
  </metadata>
  <trk>
    <name><![CDATA[2012-09-16 07:45]]></name>
    <desc><![CDATA[<h1>OruxMaps</h1><br /><hr align="center" width="480" style="height: 2px; width: 517px"/><h2>Nom: 2012-09-16 07:45</h2><br /><p>Temps de départ: 09/16/2012 07:45</p><p>Temps d'arrivée: 09/16/2012 10:29</p><p>Distance: 49,9 km (02:42)</p><p>Temps déplacement: 02:33</p><p>Vitesse moyenne: 18,5 km/h</p><p>Vitesse moyenne: 19,6 km/h</p><p>Vitess Max.: 61,5 km/h</p><p>Altitude minimale: 204 m</p><p>Altitude maximale: 342 m</p><p>Vitesse d'élévation: 651,1 m/h</p><p>Vitesse de descente: -846,2 m/h</p><p>Gain Altitude: 725 m</p><p>Perte Altitude: -711 m</p><p>Temps d'élévation: 01:06</p><p>Temps de descente: 00:50</p><hr align="center" width="480" style="height: 2px; width: 517px"/>]]></desc>
    <trkseg>
      <trkpt lat="45.72429" lon="4.82627">
        <ele>207.5</ele>
        <time>2012-09-16T05:47:24Z</time>
      </trkpt>
      <trkpt lat="45.72415" lon="4.82646">
        <ele>210.15356</ele>
        <time>2012-09-16T05:48:17Z</time>
      </trkpt>
      <trkpt lat="45.7241" lon="4.82671">
        <ele>213.97499</ele>
        <time>2012-09-16T05:50:37Z</time>
      </trkpt>
      <trkpt lat="45.72417" lon="4.82699">
        <ele>216.5867</ele>
        <time>2012-09-16T05:51:12Z</time>
      </trkpt>
      <trkpt lat="45.72423" lon="4.82726">
        <ele>217.43707</ele>
        <time>2012-09-16T05:51:18Z</time>
      </trkpt>
      <trkpt lat="45.72429" lon="4.82751">
        <ele>217.26456</ele>
        <time>2012-09-16T05:51:23Z</time>
      </trkpt>
      <trkpt lat="45.72435" lon="4.82779">
        <ele>218.22855</ele>
        <time>2012-09-16T05:51:30Z</time>
      </trkpt>
      <trkpt lat="45.72419" lon="4.82796">
        <ele>217.60478</ele>
        <time>2012-09-16T05:51:40Z</time>
      </trkpt>
      <trkpt lat="45.72416" lon="4.82828">
        <ele>216.52974</ele>
        <time>2012-09-16T05:51:46Z</time>
      </trkpt>
      <trkpt lat="45.72422" lon="4.82853">
        <ele>215.29706</ele>
        <time>2012-09-16T05:51:53Z</time>
      </trkpt>
      <trkpt lat="45.72445" lon="4.82843">
        <ele>214.33495</ele>
        <time>2012-09-16T05:51:58Z</time>
      </trkpt>
      <trkpt lat="45.72462" lon="4.82852">
        <ele>215.64583</ele>
        <time>2012-09-16T05:52:02Z</time>
      </trkpt>
      <trkpt lat="45.72468" lon="4.82884">
        <ele>216.17584</ele>
        <time>2012-09-16T05:52:06Z</time>
      </trkpt>
      <trkpt lat="45.72476" lon="4.82916">
        <ele>216.52948</ele>
        <time>2012-09-16T05:52:10Z</time>
      </trkpt>
      <trkpt lat="45.72484" lon="4.82946">
        <ele>216.42651</ele>
        <time>2012-09-16T05:52:14Z</time>
      </trkpt>
      <trkpt lat="45.72475" lon="4.82974">
        <ele>216.90332</ele>
        <time>2012-09-16T05:52:18Z</time>
      </trkpt>
      <trkpt lat="45.72462" lon="4.82995">
        <ele>217.6967</ele>
        <time>2012-09-16T05:52:21Z</time>
      </trkpt>
      <trkpt lat="45.72452" lon="4.83018">
        <ele>218.39705</ele>
        <time>2012-09-16T05:52:24Z</time>
      </trkpt>
      <trkpt lat="45.72443" lon="4.83043">
        <ele>218.88</ele>
        <time>2012-09-16T05:52:27Z</time>
      </trkpt>
      <trkpt lat="45.72433" lon="4.83068">
        <ele>219.04625</ele>
        <time>2012-09-16T05:52:30Z</time>
      </trkpt>
      <trkpt lat="45.72417" lon="4.83083">
        <ele>218.93356</ele>
        <time>2012-09-16T05:52:33Z</time>
      </trkpt>
      <trkpt lat="45.72396" lon="4.83074">
        <ele>218.76105</ele>
        <time>2012-09-16T05:52:36Z</time>
      </trkpt>
      <trkpt lat="45.72376" lon="4.83068">
        <ele>218.52733</ele>
        <time>2012-09-16T05:52:39Z</time>
      </trkpt>
      <trkpt lat="45.72356" lon="4.83077">
        <ele>218.62114</ele>
        <time>2012-09-16T05:52:43Z</time>
      </trkpt>
      <trkpt lat="45.72341" lon="4.83104">
        <ele>218.22115</ele>
        <time>2012-09-16T05:52:47Z</time>
      </trkpt>
      <trkpt lat="45.72337" lon="4.83131">
        <ele>217.15565</ele>
        <time>2012-09-16T05:52:49Z</time>
      </trkpt>
      <trkpt lat="45.72327" lon="4.83162">
        <ele>216.23128</ele>
        <time>2012-09-16T05:52:52Z</time>
      </trkpt>
      <trkpt lat="45.72318" lon="4.83187">
        <ele>215.73665</ele>
        <time>2012-09-16T05:52:55Z</time>
      </trkpt>
      <trkpt lat="45.72309" lon="4.83212">
        <ele>216.02327</ele>
        <time>2012-09-16T05:52:58Z</time>
      </trkpt>
      <trkpt lat="45.72301" lon="4.83234">
        <ele>216.86139</ele>
        <time>2012-09-16T05:53:01Z</time>
      </trkpt>
      <trkpt lat="45.72293" lon="4.8326">
        <ele>218.04832</ele>
        <time>2012-09-16T05:53:05Z</time>
      </trkpt>
      <trkpt lat="45.72284" lon="4.83285">
        <ele>218.10669</ele>
        <time>2012-09-16T05:53:09Z</time>
      </trkpt>
      <trkpt lat="45.72265" lon="4.8329">
        <ele>217.76808</ele>
        <time>2012-09-16T05:53:14Z</time>
      </trkpt>
      <trkpt lat="45.72253" lon="4.83268">
        <ele>215.88873</ele>
        <time>2012-09-16T05:53:18Z</time>
      </trkpt>
      <trkpt lat="45.72237" lon="4.83245">
        <ele>214.57065</ele>
        <time>2012-09-16T05:53:22Z</time>
      </trkpt>
      <trkpt lat="45.72222" lon="4.83226">
        <ele>215.43797</ele>
        <time>2012-09-16T05:53:26Z</time>
      </trkpt>
      <trkpt lat="45.72203" lon="4.83218">
        <ele>216.19366</ele>
        <time>2012-09-16T05:53:30Z</time>
      </trkpt>
      <trkpt lat="45.72184" lon="4.83218">
        <ele>217.03003</ele>
        <time>2012-09-16T05:53:34Z</time>
      </trkpt>
      <trkpt lat="45.72165" lon="4.83208">
        <ele>218.8681</ele>
        <time>2012-09-16T05:53:38Z</time>
      </trkpt>
      <trkpt lat="45.72149" lon="4.83188">
        <ele>219.74733</ele>
        <time>2012-09-16T05:53:42Z</time>
      </trkpt>
      <trkpt lat="45.72133" lon="4.83169">
        <ele>220.30795</ele>
        <time>2012-09-16T05:53:46Z</time>
      </trkpt>
      <trkpt lat="45.72117" lon="4.83149">
        <ele>221.27243</ele>
        <time>2012-09-16T05:53:50Z</time>
      </trkpt>
      <trkpt lat="45.721" lon="4.83128">
        <ele>221.5272</ele>
        <time>2012-09-16T05:53:54Z</time>
      </trkpt>
      <trkpt lat="45.72084" lon="4.83108">
        <ele>220.7801</ele>
        <time>2012-09-16T05:53:58Z</time>
      </trkpt>
      <trkpt lat="45.72081" lon="4.8308">
        <ele>220.72365</ele>
        <time>2012-09-16T05:54:04Z</time>
      </trkpt>
      <trkpt lat="45.72098" lon="4.83063">
        <ele>220.4235</ele>
        <time>2012-09-16T05:54:08Z</time>
      </trkpt>
      <trkpt lat="45.72116" lon="4.83042">
        <ele>219.84415</ele>
        <time>2012-09-16T05:54:12Z</time>
      </trkpt>
      <trkpt lat="45.72129" lon="4.83021">
        <ele>219.19054</ele>
        <time>2012-09-16T05:54:16Z</time>
      </trkpt>
      <trkpt lat="45.72116" lon="4.82997">
        <ele>218.82944</ele>
        <time>2012-09-16T05:54:20Z</time>
      </trkpt>
      <trkpt lat="45.72101" lon="4.82976">
        <ele>218.27805</ele>
        <time>2012-09-16T05:54:23Z</time>
      </trkpt>
      <trkpt lat="45.72088" lon="4.82956">
        <ele>217.48135</ele>
        <time>2012-09-16T05:54:26Z</time>
      </trkpt>
      <trkpt lat="45.72076" lon="4.82936">
        <ele>216.7687</ele>
        <time>2012-09-16T05:54:29Z</time>
      </trkpt>
      <trkpt lat="45.72063" lon="4.82914">
        <ele>216.50868</ele>
        <time>2012-09-16T05:54:32Z</time>
      </trkpt>
      <trkpt lat="45.72049" lon="4.82894">
        <ele>216.4396</ele>
        <time>2012-09-16T05:54:35Z</time>
      </trkpt>
      <trkpt lat="45.72035" lon="4.82874">
        <ele>215.81982</ele>
        <time>2012-09-16T05:54:38Z</time>
      </trkpt>
      <trkpt lat="45.72023" lon="4.82854">
        <ele>215.0818</ele>
        <time>2012-09-16T05:54:41Z</time>
      </trkpt>
      <trkpt lat="45.72011" lon="4.82832">
        <ele>214.47826</ele>
        <time>2012-09-16T05:54:44Z</time>
      </trkpt>
      <trkpt lat="45.71998" lon="4.8281">
        <ele>214.23772</ele>
        <time>2012-09-16T05:54:47Z</time>
      </trkpt>
      <trkpt lat="45.71984" lon="4.82789">
        <ele>214.43935</ele>
        <time>2012-09-16T05:54:50Z</time>
      </trkpt>
      <trkpt lat="45.7197" lon="4.82768">
        <ele>214.77441</ele>
        <time>2012-09-16T05:54:53Z</time>
      </trkpt>
      <trkpt lat="45.71957" lon="4.82746">
        <ele>215.03139</ele>
        <time>2012-09-16T05:54:56Z</time>
      </trkpt>
      <trkpt lat="45.71944" lon="4.82725">
        <ele>215.18668</ele>
        <time>2012-09-16T05:54:59Z</time>
      </trkpt>
      <trkpt lat="45.71931" lon="4.82704">
        <ele>215.22719</ele>
        <time>2012-09-16T05:55:02Z</time>
      </trkpt>
      <trkpt lat="45.71919" lon="4.82676">
        <ele>215.28557</ele>
        <time>2012-09-16T05:55:06Z</time>
      </trkpt>
      <trkpt lat="45.7193" lon="4.82654">
        <ele>216.55482</ele>
        <time>2012-09-16T05:55:10Z</time>
      </trkpt>
      <trkpt lat="45.71948" lon="4.82638">
        <ele>217.31377</ele>
        <time>2012-09-16T05:55:13Z</time>
      </trkpt>
      <trkpt lat="45.71964" lon="4.82622">
        <ele>217.58394</ele>
        <time>2012-09-16T05:55:16Z</time>
      </trkpt>
      <trkpt lat="45.71977" lon="4.82604">
        <ele>217.37604</ele>
        <time>2012-09-16T05:55:19Z</time>
      </trkpt>
      <trkpt lat="45.71968" lon="4.82577">
        <ele>216.51266</ele>
        <time>2012-09-16T05:55:24Z</time>
      </trkpt>
      <trkpt lat="45.71951" lon="4.82555">
        <ele>216.19754</ele>
        <time>2012-09-16T05:55:27Z</time>
      </trkpt>
      <trkpt lat="45.71937" lon="4.82534">
        <ele>215.9677</ele>
        <time>2012-09-16T05:55:30Z</time>
      </trkpt>
      <trkpt lat="45.71924" lon="4.82513">
        <ele>215.9645</ele>
        <time>2012-09-16T05:55:33Z</time>
      </trkpt>
      <trkpt lat="45.71911" lon="4.82493">
        <ele>216.45378</ele>
        <time>2012-09-16T05:55:36Z</time>
      </trkpt>
      <trkpt lat="45.71896" lon="4.8247">
        <ele>216.87051</ele>
        <time>2012-09-16T05:55:40Z</time>
      </trkpt>
      <trkpt lat="45.71893" lon="4.82441">
        <ele>217.78577</ele>
        <time>2012-09-16T05:55:46Z</time>
      </trkpt>
      <trkpt lat="45.71911" lon="4.8243">
        <ele>217.96588</ele>
        <time>2012-09-16T05:55:49Z</time>
      </trkpt>
      <trkpt lat="45.71928" lon="4.82417">
        <ele>218.51372</ele>
        <time>2012-09-16T05:55:52Z</time>
      </trkpt>
      <trkpt lat="45.71945" lon="4.82402">
        <ele>218.55891</ele>
        <time>2012-09-16T05:55:55Z</time>
      </trkpt>
      <trkpt lat="45.71962" lon="4.82387">
        <ele>219.3108</ele>
        <time>2012-09-16T05:55:58Z</time>
      </trkpt>
      <trkpt lat="45.71982" lon="4.82372">
        <ele>219.70299</ele>
        <time>2012-09-16T05:56:01Z</time>
      </trkpt>
      <trkpt lat="45.71999" lon="4.82358">
        <ele>219.90128</ele>
        <time>2012-09-16T05:56:04Z</time>
      </trkpt>
      <trkpt lat="45.72015" lon="4.82344">
        <ele>219.65836</ele>
        <time>2012-09-16T05:56:07Z</time>
      </trkpt>
      <trkpt lat="45.72029" lon="4.82328">
        <ele>218.31416</ele>
        <time>2012-09-16T05:56:11Z</time>
      </trkpt>
      <trkpt lat="45.72042" lon="4.82299">
        <ele>216.90932</ele>
        <time>2012-09-16T05:56:16Z</time>
      </trkpt>
      <trkpt lat="45.72049" lon="4.82276">
        <ele>216.31487</ele>
        <time>2012-09-16T05:56:19Z</time>
      </trkpt>
      <trkpt lat="45.72053" lon="4.82249">
        <ele>215.9844</ele>
        <time>2012-09-16T05:56:22Z</time>
      </trkpt>
      <trkpt lat="45.72054" lon="4.82221">
        <ele>215.79498</ele>
        <time>2012-09-16T05:56:25Z</time>
      </trkpt>
      <trkpt lat="45.72061" lon="4.82197">
        <ele>215.62758</ele>
        <time>2012-09-16T05:56:28Z</time>
      </trkpt>
      <trkpt lat="45.72081" lon="4.82196">
        <ele>215.1085</ele>
        <time>2012-09-16T05:56:31Z</time>
      </trkpt>
      <trkpt lat="45.721" lon="4.82193">
        <ele>214.81451</ele>
        <time>2012-09-16T05:56:34Z</time>
      </trkpt>
      <trkpt lat="45.72118" lon="4.82189">
        <ele>214.69048</ele>
        <time>2012-09-16T05:56:37Z</time>
      </trkpt>
      <trkpt lat="45.72136" lon="4.82185">
        <ele>214.76474</ele>
        <time>2012-09-16T05:56:40Z</time>
      </trkpt>
      <trkpt lat="45.72154" lon="4.82181">
        <ele>214.8617</ele>
        <time>2012-09-16T05:56:43Z</time>
      </trkpt>
      <trkpt lat="45.72177" lon="4.82175">
        <ele>215.09686</ele>
        <time>2012-09-16T05:56:47Z</time>
      </trkpt>
      <trkpt lat="45.72197" lon="4.8217">
        <ele>215.18149</ele>
        <time>2012-09-16T05:56:50Z</time>
      </trkpt>
      <trkpt lat="45.72215" lon="4.82166">
        <ele>215.26094</ele>
        <time>2012-09-16T05:56:53Z</time>
      </trkpt>
      <trkpt lat="45.72234" lon="4.82162">
        <ele>215.48665</ele>
        <time>2012-09-16T05:56:56Z</time>
      </trkpt>
      <trkpt lat="45.72254" lon="4.82157">
        <ele>215.71156</ele>
        <time>2012-09-16T05:56:59Z</time>
      </trkpt>
      <trkpt lat="45.72274" lon="4.82153">
        <ele>215.68613</ele>
        <time>2012-09-16T05:57:02Z</time>
      </trkpt>
      <trkpt lat="45.72293" lon="4.82149">
        <ele>215.7379</ele>
        <time>2012-09-16T05:57:05Z</time>
      </trkpt>
      <trkpt lat="45.72312" lon="4.82144">
        <ele>215.81757</ele>
        <time>2012-09-16T05:57:08Z</time>
      </trkpt>
      <trkpt lat="45.72331" lon="4.82139">
        <ele>215.97772</ele>
        <time>2012-09-16T05:57:11Z</time>
      </trkpt>
      <trkpt lat="45.7235" lon="4.82135">
        <ele>216.18904</ele>
        <time>2012-09-16T05:57:14Z</time>
      </trkpt>
      <trkpt lat="45.72369" lon="4.8213">
        <ele>216.30319</ele>
        <time>2012-09-16T05:57:17Z</time>
      </trkpt>
      <trkpt lat="45.72388" lon="4.82126">
        <ele>216.3154</ele>
        <time>2012-09-16T05:57:20Z</time>
      </trkpt>
      <trkpt lat="45.72409" lon="4.82124">
        <ele>216.18619</ele>
        <time>2012-09-16T05:57:23Z</time>
      </trkpt>
      <trkpt lat="45.7243" lon="4.82119">
        <ele>216.03635</ele>
        <time>2012-09-16T05:57:26Z</time>
      </trkpt>
      <trkpt lat="45.7245" lon="4.82114">
        <ele>215.69032</ele>
        <time>2012-09-16T05:57:29Z</time>
      </trkpt>
      <trkpt lat="45.72469" lon="4.8211">
        <ele>215.53342</ele>
        <time>2012-09-16T05:57:32Z</time>
      </trkpt>
      <trkpt lat="45.72489" lon="4.82107">
        <ele>215.52815</ele>
        <time>2012-09-16T05:57:35Z</time>
      </trkpt>
      <trkpt lat="45.72508" lon="4.82101">
        <ele>215.74625</ele>
        <time>2012-09-16T05:57:38Z</time>
      </trkpt>
      <trkpt lat="45.72527" lon="4.82098">
        <ele>216.28046</ele>
        <time>2012-09-16T05:57:41Z</time>
      </trkpt>
      <trkpt lat="45.72546" lon="4.82094">
        <ele>216.44331</ele>
        <time>2012-09-16T05:57:44Z</time>
      </trkpt>
      <trkpt lat="45.72564" lon="4.82087">
        <ele>216.28078</ele>
        <time>2012-09-16T05:57:47Z</time>
      </trkpt>
      <trkpt lat="45.72583" lon="4.82081">
        <ele>215.9919</ele>
        <time>2012-09-16T05:57:50Z</time>
      </trkpt>
      <trkpt lat="45.72602" lon="4.82078">
        <ele>216.10127</ele>
        <time>2012-09-16T05:57:53Z</time>
      </trkpt>
      <trkpt lat="45.7262" lon="4.82076">
        <ele>216.57085</ele>
        <time>2012-09-16T05:57:56Z</time>
      </trkpt>
      <trkpt lat="45.72641" lon="4.82075">
        <ele>216.85405</ele>
        <time>2012-09-16T05:58:00Z</time>
      </trkpt>
      <trkpt lat="45.72663" lon="4.82072">
        <ele>217.24443</ele>
        <time>2012-09-16T05:58:04Z</time>
      </trkpt>
      <trkpt lat="45.72685" lon="4.82079">
        <ele>217.43007</ele>
        <time>2012-09-16T05:58:08Z</time>
      </trkpt>
      <trkpt lat="45.72706" lon="4.82081">
        <ele>217.99976</ele>
        <time>2012-09-16T05:58:12Z</time>
      </trkpt>
      <trkpt lat="45.72729" lon="4.82082">
        <ele>219.05226</ele>
        <time>2012-09-16T05:58:16Z</time>
      </trkpt>
      <trkpt lat="45.72747" lon="4.82088">
        <ele>219.88612</ele>
        <time>2012-09-16T05:58:19Z</time>
      </trkpt>
      <trkpt lat="45.72766" lon="4.82089">
        <ele>221.0504</ele>
        <time>2012-09-16T05:58:22Z</time>
      </trkpt>
      <trkpt lat="45.72789" lon="4.82083">
        <ele>222.41087</ele>
        <time>2012-09-16T05:58:26Z</time>
      </trkpt>
      <trkpt lat="45.7281" lon="4.82094">
        <ele>223.16945</ele>
        <time>2012-09-16T05:58:30Z</time>
      </trkpt>
      <trkpt lat="45.72833" lon="4.82102">
        <ele>222.6325</ele>
        <time>2012-09-16T05:58:34Z</time>
      </trkpt>
      <trkpt lat="45.72856" lon="4.82103">
        <ele>222.28725</ele>
        <time>2012-09-16T05:58:38Z</time>
      </trkpt>
      <trkpt lat="45.72874" lon="4.82096">
        <ele>221.5368</ele>
        <time>2012-09-16T05:58:41Z</time>
      </trkpt>
      <trkpt lat="45.72893" lon="4.82096">
        <ele>221.07178</ele>
        <time>2012-09-16T05:58:44Z</time>
      </trkpt>
      <trkpt lat="45.72914" lon="4.82097">
        <ele>220.8756</ele>
        <time>2012-09-16T05:58:47Z</time>
      </trkpt>
      <trkpt lat="45.72934" lon="4.82114">
        <ele>220.03915</ele>
        <time>2012-09-16T05:58:51Z</time>
      </trkpt>
      <trkpt lat="45.72934" lon="4.82146">
        <ele>218.48195</ele>
        <time>2012-09-16T05:58:56Z</time>
      </trkpt>
      <trkpt lat="45.72942" lon="4.82169">
        <ele>217.30092</ele>
        <time>2012-09-16T05:59:00Z</time>
      </trkpt>
      <trkpt lat="45.7296" lon="4.82189">
        <ele>217.08467</ele>
        <time>2012-09-16T05:59:04Z</time>
      </trkpt>
      <trkpt lat="45.72977" lon="4.82208">
        <ele>216.969</ele>
        <time>2012-09-16T05:59:08Z</time>
      </trkpt>
      <trkpt lat="45.72994" lon="4.82227">
        <ele>217.14215</ele>
        <time>2012-09-16T05:59:12Z</time>
      </trkpt>
      <trkpt lat="45.73015" lon="4.82236">
        <ele>218.03716</ele>
        <time>2012-09-16T05:59:16Z</time>
      </trkpt>
      <trkpt lat="45.73033" lon="4.8224">
        <ele>218.44536</ele>
        <time>2012-09-16T05:59:19Z</time>
      </trkpt>
      <trkpt lat="45.73051" lon="4.82244">
        <ele>218.83476</ele>
        <time>2012-09-16T05:59:22Z</time>
      </trkpt>
      <trkpt lat="45.7307" lon="4.82249">
        <ele>219.14749</ele>
        <time>2012-09-16T05:59:25Z</time>
      </trkpt>
      <trkpt lat="45.7309" lon="4.82253">
        <ele>219.22473</ele>
        <time>2012-09-16T05:59:28Z</time>
      </trkpt>
      <trkpt lat="45.7311" lon="4.82257">
        <ele>219.28699</ele>
        <time>2012-09-16T05:59:31Z</time>
      </trkpt>
      <trkpt lat="45.73128" lon="4.8226">
        <ele>219.47107</ele>
        <time>2012-09-16T05:59:34Z</time>
      </trkpt>
      <trkpt lat="45.73146" lon="4.82264">
        <ele>219.96593</ele>
        <time>2012-09-16T05:59:37Z</time>
      </trkpt>
      <trkpt lat="45.73169" lon="4.82267">
        <ele>220.37827</ele>
        <time>2012-09-16T05:59:41Z</time>
      </trkpt>
      <trkpt lat="45.73186" lon="4.82249">
        <ele>219.96384</ele>
        <time>2012-09-16T05:59:45Z</time>
      </trkpt>
      <trkpt lat="45.7319" lon="4.82217">
        <ele>219.44481</ele>
        <time>2012-09-16T05:59:49Z</time>
      </trkpt>
      <trkpt lat="45.73194" lon="4.82189">
        <ele>219.36028</ele>
        <time>2012-09-16T05:59:53Z</time>
      </trkpt>
      <trkpt lat="45.732" lon="4.82164">
        <ele>219.85384</ele>
        <time>2012-09-16T05:59:57Z</time>
      </trkpt>
      <trkpt lat="45.73208" lon="4.82141">
        <ele>219.94594</ele>
        <time>2012-09-16T06:00:01Z</time>
      </trkpt>
      <trkpt lat="45.73231" lon="4.8215">
        <ele>220.51804</ele>
        <time>2012-09-16T06:00:06Z</time>
      </trkpt>
      <trkpt lat="45.73251" lon="4.8216">
        <ele>221.07793</ele>
        <time>2012-09-16T06:00:09Z</time>
      </trkpt>
      <trkpt lat="45.73271" lon="4.82172">
        <ele>221.7485</ele>
        <time>2012-09-16T06:00:12Z</time>
      </trkpt>
      <trkpt lat="45.73292" lon="4.82184">
        <ele>221.90952</ele>
        <time>2012-09-16T06:00:15Z</time>
      </trkpt>
      <trkpt lat="45.73312" lon="4.82195">
        <ele>222.08838</ele>
        <time>2012-09-16T06:00:18Z</time>
      </trkpt>
      <trkpt lat="45.73334" lon="4.82201">
        <ele>222.0701</ele>
        <time>2012-09-16T06:00:21Z</time>
      </trkpt>
      <trkpt lat="45.73352" lon="4.82195">
        <ele>221.57646</ele>
        <time>2012-09-16T06:00:24Z</time>
      </trkpt>
      <trkpt lat="45.7337" lon="4.82193">
        <ele>221.36664</ele>
        <time>2012-09-16T06:00:27Z</time>
      </trkpt>
      <trkpt lat="45.73388" lon="4.82196">
        <ele>221.76875</ele>
        <time>2012-09-16T06:00:30Z</time>
      </trkpt>
      <trkpt lat="45.73408" lon="4.82202">
        <ele>221.36494</ele>
        <time>2012-09-16T06:00:33Z</time>
      </trkpt>
      <trkpt lat="45.73429" lon="4.82206">
        <ele>221.01334</ele>
        <time>2012-09-16T06:00:36Z</time>
      </trkpt>
      <trkpt lat="45.7345" lon="4.82207">
        <ele>220.56189</ele>
        <time>2012-09-16T06:00:39Z</time>
      </trkpt>
      <trkpt lat="45.73473" lon="4.82214">
        <ele>219.90424</ele>
        <time>2012-09-16T06:00:42Z</time>
      </trkpt>
      <trkpt lat="45.73491" lon="4.82226">
        <ele>219.56897</ele>
        <time>2012-09-16T06:00:45Z</time>
      </trkpt>
      <trkpt lat="45.73508" lon="4.82239">
        <ele>219.41347</ele>
        <time>2012-09-16T06:00:48Z</time>
      </trkpt>
      <trkpt lat="45.73526" lon="4.82252">
        <ele>219.41193</ele>
        <time>2012-09-16T06:00:51Z</time>
      </trkpt>
      <trkpt lat="45.73544" lon="4.82263">
        <ele>219.21129</ele>
        <time>2012-09-16T06:00:54Z</time>
      </trkpt>
      <trkpt lat="45.73561" lon="4.82276">
        <ele>219.05634</ele>
        <time>2012-09-16T06:00:57Z</time>
      </trkpt>
      <trkpt lat="45.73577" lon="4.82291">
        <ele>218.85345</ele>
        <time>2012-09-16T06:01:00Z</time>
      </trkpt>
      <trkpt lat="45.73594" lon="4.82304">
        <ele>218.37097</ele>
        <time>2012-09-16T06:01:03Z</time>
      </trkpt>
      <trkpt lat="45.73611" lon="4.82317">
        <ele>217.98775</ele>
        <time>2012-09-16T06:01:06Z</time>
      </trkpt>
      <trkpt lat="45.73629" lon="4.8233">
        <ele>217.92297</ele>
        <time>2012-09-16T06:01:09Z</time>
      </trkpt>
      <trkpt lat="45.73646" lon="4.82344">
        <ele>217.9925</ele>
        <time>2012-09-16T06:01:12Z</time>
      </trkpt>
      <trkpt lat="45.73664" lon="4.82355">
        <ele>218.0734</ele>
        <time>2012-09-16T06:01:15Z</time>
      </trkpt>
      <trkpt lat="45.73682" lon="4.82365">
        <ele>218.04501</ele>
        <time>2012-09-16T06:01:18Z</time>
      </trkpt>
      <trkpt lat="45.737" lon="4.82376">
        <ele>217.81586</ele>
        <time>2012-09-16T06:01:21Z</time>
      </trkpt>
      <trkpt lat="45.73719" lon="4.82388">
        <ele>217.73482</ele>
        <time>2012-09-16T06:01:24Z</time>
      </trkpt>
      <trkpt lat="45.73739" lon="4.82402">
        <ele>217.88812</ele>
        <time>2012-09-16T06:01:27Z</time>
      </trkpt>
      <trkpt lat="45.73756" lon="4.82417">
        <ele>217.96062</ele>
        <time>2012-09-16T06:01:30Z</time>
      </trkpt>
      <trkpt lat="45.73776" lon="4.82432">
        <ele>217.78027</ele>
        <time>2012-09-16T06:01:33Z</time>
      </trkpt>
      <trkpt lat="45.73795" lon="4.82448">
        <ele>218.1245</ele>
        <time>2012-09-16T06:01:36Z</time>
      </trkpt>
      <trkpt lat="45.73814" lon="4.82465">
        <ele>218.55096</ele>
        <time>2012-09-16T06:01:39Z</time>
      </trkpt>
      <trkpt lat="45.73833" lon="4.82481">
        <ele>218.76682</ele>
        <time>2012-09-16T06:01:42Z</time>
      </trkpt>
      <trkpt lat="45.73852" lon="4.82498">
        <ele>218.88757</ele>
        <time>2012-09-16T06:01:45Z</time>
      </trkpt>
      <trkpt lat="45.7387" lon="4.82517">
        <ele>218.78226</ele>
        <time>2012-09-16T06:01:48Z</time>
      </trkpt>
      <trkpt lat="45.73888" lon="4.82535">
        <ele>218.65189</ele>
        <time>2012-09-16T06:01:51Z</time>
      </trkpt>
      <trkpt lat="45.73907" lon="4.82551">
        <ele>218.45157</ele>
        <time>2012-09-16T06:01:54Z</time>
      </trkpt>
      <trkpt lat="45.73926" lon="4.82567">
        <ele>218.14677</ele>
        <time>2012-09-16T06:01:57Z</time>
      </trkpt>
      <trkpt lat="45.73946" lon="4.82583">
        <ele>218.15565</ele>
        <time>2012-09-16T06:02:00Z</time>
      </trkpt>
      <trkpt lat="45.73967" lon="4.82599">
        <ele>218.41566</ele>
        <time>2012-09-16T06:02:03Z</time>
      </trkpt>
      <trkpt lat="45.73988" lon="4.82616">
        <ele>218.98006</ele>
        <time>2012-09-16T06:02:06Z</time>
      </trkpt>
      <trkpt lat="45.74009" lon="4.82632">
        <ele>219.83377</ele>
        <time>2012-09-16T06:02:09Z</time>
      </trkpt>
      <trkpt lat="45.74029" lon="4.82649">
        <ele>220.56268</ele>
        <time>2012-09-16T06:02:12Z</time>
      </trkpt>
      <trkpt lat="45.74048" lon="4.82665">
        <ele>220.80458</ele>
        <time>2012-09-16T06:02:15Z</time>
      </trkpt>
      <trkpt lat="45.74068" lon="4.8268">
        <ele>220.75192</ele>
        <time>2012-09-16T06:02:18Z</time>
      </trkpt>
      <trkpt lat="45.74088" lon="4.82695">
        <ele>220.47972</ele>
        <time>2012-09-16T06:02:21Z</time>
      </trkpt>
      <trkpt lat="45.74108" lon="4.8271">
        <ele>220.13364</ele>
        <time>2012-09-16T06:02:24Z</time>
      </trkpt>
      <trkpt lat="45.74127" lon="4.82726">
        <ele>219.78137</ele>
        <time>2012-09-16T06:02:27Z</time>
      </trkpt>
      <trkpt lat="45.74147" lon="4.82742">
        <ele>219.36559</ele>
        <time>2012-09-16T06:02:30Z</time>
      </trkpt>
      <trkpt lat="45.74166" lon="4.82759">
        <ele>218.8683</ele>
        <time>2012-09-16T06:02:33Z</time>
      </trkpt>
      <trkpt lat="45.74185" lon="4.82775">
        <ele>218.496</ele>
        <time>2012-09-16T06:02:36Z</time>
      </trkpt>
      <trkpt lat="45.74203" lon="4.8279">
        <ele>218.30612</ele>
        <time>2012-09-16T06:02:39Z</time>
      </trkpt>
      <trkpt lat="45.74222" lon="4.82805">
        <ele>218.21352</ele>
        <time>2012-09-16T06:02:42Z</time>
      </trkpt>
      <trkpt lat="45.74242" lon="4.82821">
        <ele>217.99321</ele>
        <time>2012-09-16T06:02:45Z</time>
      </trkpt>
      <trkpt lat="45.74261" lon="4.82838">
        <ele>217.92526</ele>
        <time>2012-09-16T06:02:48Z</time>
      </trkpt>
      <trkpt lat="45.74282" lon="4.82855">
        <ele>217.99815</ele>
        <time>2012-09-16T06:02:51Z</time>
      </trkpt>
      <trkpt lat="45.74301" lon="4.82872">
        <ele>218.41173</ele>
        <time>2012-09-16T06:02:54Z</time>
      </trkpt>
      <trkpt lat="45.74319" lon="4.82892">
        <ele>218.76276</ele>
        <time>2012-09-16T06:02:57Z</time>
      </trkpt>
      <trkpt lat="45.74337" lon="4.82911">
        <ele>219.02647</ele>
        <time>2012-09-16T06:03:00Z</time>
      </trkpt>
      <trkpt lat="45.74356" lon="4.82928">
        <ele>219.05804</ele>
        <time>2012-09-16T06:03:03Z</time>
      </trkpt>
      <trkpt lat="45.74374" lon="4.82943">
        <ele>218.87292</ele>
        <time>2012-09-16T06:03:06Z</time>
      </trkpt>
      <trkpt lat="45.74394" lon="4.82957">
        <ele>218.48701</ele>
        <time>2012-09-16T06:03:09Z</time>
      </trkpt>
      <trkpt lat="45.74414" lon="4.82972">
        <ele>218.35077</ele>
        <time>2012-09-16T06:03:12Z</time>
      </trkpt>
      <trkpt lat="45.74433" lon="4.82989">
        <ele>218.48077</ele>
        <time>2012-09-16T06:03:15Z</time>
      </trkpt>
      <trkpt lat="45.74452" lon="4.83007">
        <ele>218.64346</ele>
        <time>2012-09-16T06:03:18Z</time>
      </trkpt>
      <trkpt lat="45.7447" lon="4.83025">
        <ele>219.04489</ele>
        <time>2012-09-16T06:03:21Z</time>
      </trkpt>
      <trkpt lat="45.74487" lon="4.83045">
        <ele>219.37675</ele>
        <time>2012-09-16T06:03:24Z</time>
      </trkpt>
      <trkpt lat="45.74504" lon="4.83064">
        <ele>219.70425</ele>
        <time>2012-09-16T06:03:27Z</time>
      </trkpt>
      <trkpt lat="45.74521" lon="4.83083">
        <ele>219.86118</ele>
        <time>2012-09-16T06:03:30Z</time>
      </trkpt>
      <trkpt lat="45.74539" lon="4.83102">
        <ele>220.23363</ele>
        <time>2012-09-16T06:03:33Z</time>
      </trkpt>
      <trkpt lat="45.74556" lon="4.83122">
        <ele>220.56105</ele>
        <time>2012-09-16T06:03:36Z</time>
      </trkpt>
      <trkpt lat="45.74573" lon="4.83141">
        <ele>220.95233</ele>
        <time>2012-09-16T06:03:39Z</time>
      </trkpt>
      <trkpt lat="45.74591" lon="4.83158">
        <ele>221.31268</ele>
        <time>2012-09-16T06:03:42Z</time>
      </trkpt>
      <trkpt lat="45.7461" lon="4.83171">
        <ele>221.39598</ele>
        <time>2012-09-16T06:03:45Z</time>
      </trkpt>
      <trkpt lat="45.7463" lon="4.83184">
        <ele>221.49207</ele>
        <time>2012-09-16T06:03:48Z</time>
      </trkpt>
      <trkpt lat="45.74647" lon="4.83201">
        <ele>221.3701</ele>
        <time>2012-09-16T06:03:51Z</time>
      </trkpt>
      <trkpt lat="45.74666" lon="4.83216">
        <ele>220.97176</ele>
        <time>2012-09-16T06:03:54Z</time>
      </trkpt>
      <trkpt lat="45.74684" lon="4.83234">
        <ele>220.64122</ele>
        <time>2012-09-16T06:03:57Z</time>
      </trkpt>
      <trkpt lat="45.74702" lon="4.83252">
        <ele>220.28145</ele>
        <time>2012-09-16T06:04:00Z</time>
      </trkpt>
      <trkpt lat="45.7472" lon="4.83268">
        <ele>220.07187</ele>
        <time>2012-09-16T06:04:03Z</time>
      </trkpt>
      <trkpt lat="45.7474" lon="4.83283">
        <ele>220.14595</ele>
        <time>2012-09-16T06:04:06Z</time>
      </trkpt>
      <trkpt lat="45.74759" lon="4.83297">
        <ele>220.235</ele>
        <time>2012-09-16T06:04:09Z</time>
      </trkpt>
      <trkpt lat="45.74778" lon="4.8331">
        <ele>220.17883</ele>
        <time>2012-09-16T06:04:12Z</time>
      </trkpt>
      <trkpt lat="45.74797" lon="4.83324">
        <ele>220.07544</ele>
        <time>2012-09-16T06:04:15Z</time>
      </trkpt>
      <trkpt lat="45.74816" lon="4.83338">
        <ele>220.22713</ele>
        <time>2012-09-16T06:04:18Z</time>
      </trkpt>
      <trkpt lat="45.74835" lon="4.83353">
        <ele>220.57707</ele>
        <time>2012-09-16T06:04:21Z</time>
      </trkpt>
      <trkpt lat="45.74853" lon="4.83368">
        <ele>220.87627</ele>
        <time>2012-09-16T06:04:24Z</time>
      </trkpt>
      <trkpt lat="45.74872" lon="4.83384">
        <ele>220.91185</ele>
        <time>2012-09-16T06:04:27Z</time>
      </trkpt>
      <trkpt lat="45.7489" lon="4.83399">
        <ele>221.21281</ele>
        <time>2012-09-16T06:04:30Z</time>
      </trkpt>
      <trkpt lat="45.74908" lon="4.83414">
        <ele>221.81635</ele>
        <time>2012-09-16T06:04:33Z</time>
      </trkpt>
      <trkpt lat="45.74927" lon="4.83427">
        <ele>222.0288</ele>
        <time>2012-09-16T06:04:36Z</time>
      </trkpt>
      <trkpt lat="45.74947" lon="4.83441">
        <ele>221.84027</ele>
        <time>2012-09-16T06:04:39Z</time>
      </trkpt>
      <trkpt lat="45.74965" lon="4.83456">
        <ele>221.87482</ele>
        <time>2012-09-16T06:04:42Z</time>
      </trkpt>
      <trkpt lat="45.74983" lon="4.83471">
        <ele>221.96907</ele>
        <time>2012-09-16T06:04:45Z</time>
      </trkpt>
      <trkpt lat="45.75001" lon="4.83486">
        <ele>222.45726</ele>
        <time>2012-09-16T06:04:48Z</time>
      </trkpt>
      <trkpt lat="45.75017" lon="4.83501">
        <ele>222.75383</ele>
        <time>2012-09-16T06:04:51Z</time>
      </trkpt>
      <trkpt lat="45.75034" lon="4.83516">
        <ele>222.72272</ele>
        <time>2012-09-16T06:04:54Z</time>
      </trkpt>
      <trkpt lat="45.75048" lon="4.83533">
        <ele>222.66583</ele>
        <time>2012-09-16T06:04:57Z</time>
      </trkpt>
      <trkpt lat="45.75063" lon="4.83547">
        <ele>222.5559</ele>
        <time>2012-09-16T06:05:00Z</time>
      </trkpt>
      <trkpt lat="45.7508" lon="4.83561">
        <ele>222.43295</ele>
        <time>2012-09-16T06:05:03Z</time>
      </trkpt>
      <trkpt lat="45.75097" lon="4.83575">
        <ele>222.34515</ele>
        <time>2012-09-16T06:05:06Z</time>
      </trkpt>
      <trkpt lat="45.75115" lon="4.83588">
        <ele>222.0081</ele>
        <time>2012-09-16T06:05:09Z</time>
      </trkpt>
      <trkpt lat="45.75133" lon="4.83601">
        <ele>221.60185</ele>
        <time>2012-09-16T06:05:12Z</time>
      </trkpt>
      <trkpt lat="45.75151" lon="4.83615">
        <ele>221.1164</ele>
        <time>2012-09-16T06:05:15Z</time>
      </trkpt>
      <trkpt lat="45.75169" lon="4.83631">
        <ele>220.5569</ele>
        <time>2012-09-16T06:05:18Z</time>
      </trkpt>
      <trkpt lat="45.75183" lon="4.83652">
        <ele>220.2162</ele>
        <time>2012-09-16T06:05:21Z</time>
      </trkpt>
      <trkpt lat="45.75198" lon="4.83669">
        <ele>220.17871</ele>
        <time>2012-09-16T06:05:24Z</time>
      </trkpt>
      <trkpt lat="45.75214" lon="4.83681">
        <ele>220.27383</ele>
        <time>2012-09-16T06:05:27Z</time>
      </trkpt>
      <trkpt lat="45.75237" lon="4.83673">
        <ele>219.97688</ele>
        <time>2012-09-16T06:05:31Z</time>
      </trkpt>
      <trkpt lat="45.75256" lon="4.83671">
        <ele>219.51993</ele>
        <time>2012-09-16T06:05:34Z</time>
      </trkpt>
      <trkpt lat="45.75273" lon="4.83681">
        <ele>218.84592</ele>
        <time>2012-09-16T06:05:37Z</time>
      </trkpt>
      <trkpt lat="45.75289" lon="4.83694">
        <ele>218.4475</ele>
        <time>2012-09-16T06:05:40Z</time>
      </trkpt>
      <trkpt lat="45.75305" lon="4.83707">
        <ele>218.17786</ele>
        <time>2012-09-16T06:05:43Z</time>
      </trkpt>
      <trkpt lat="45.75322" lon="4.8372">
        <ele>217.89066</ele>
        <time>2012-09-16T06:05:46Z</time>
      </trkpt>
      <trkpt lat="45.75339" lon="4.83733">
        <ele>217.66481</ele>
        <time>2012-09-16T06:05:49Z</time>
      </trkpt>
      <trkpt lat="45.75356" lon="4.83746">
        <ele>217.54454</ele>
        <time>2012-09-16T06:05:52Z</time>
      </trkpt>
      <trkpt lat="45.75373" lon="4.83759">
        <ele>217.48598</ele>
        <time>2012-09-16T06:05:55Z</time>
      </trkpt>
      <trkpt lat="45.7539" lon="4.83772">
        <ele>217.57533</ele>
        <time>2012-09-16T06:05:58Z</time>
      </trkpt>
      <trkpt lat="45.75407" lon="4.83785">
        <ele>217.46303</ele>
        <time>2012-09-16T06:06:01Z</time>
      </trkpt>
      <trkpt lat="45.75426" lon="4.83798">
        <ele>217.39378</ele>
        <time>2012-09-16T06:06:04Z</time>
      </trkpt>
      <trkpt lat="45.75444" lon="4.83811">
        <ele>217.39738</ele>
        <time>2012-09-16T06:06:07Z</time>
      </trkpt>
      <trkpt lat="45.75463" lon="4.83823">
        <ele>217.4239</ele>
        <time>2012-09-16T06:06:10Z</time>
      </trkpt>
      <trkpt lat="45.75483" lon="4.83836">
        <ele>217.43509</ele>
        <time>2012-09-16T06:06:13Z</time>
      </trkpt>
      <trkpt lat="45.75503" lon="4.83849">
        <ele>217.56636</ele>
        <time>2012-09-16T06:06:16Z</time>
      </trkpt>
      <trkpt lat="45.75523" lon="4.83861">
        <ele>217.82799</ele>
        <time>2012-09-16T06:06:19Z</time>
      </trkpt>
      <trkpt lat="45.75542" lon="4.83874">
        <ele>218.11182</ele>
        <time>2012-09-16T06:06:22Z</time>
      </trkpt>
      <trkpt lat="45.75558" lon="4.83893">
        <ele>218.37997</ele>
        <time>2012-09-16T06:06:25Z</time>
      </trkpt>
      <trkpt lat="45.75578" lon="4.83906">
        <ele>218.60873</ele>
        <time>2012-09-16T06:06:28Z</time>
      </trkpt>
      <trkpt lat="45.75598" lon="4.83917">
        <ele>218.87088</ele>
        <time>2012-09-16T06:06:31Z</time>
      </trkpt>
      <trkpt lat="45.75618" lon="4.83928">
        <ele>219.26427</ele>
        <time>2012-09-16T06:06:34Z</time>
      </trkpt>
      <trkpt lat="45.75638" lon="4.83939">
        <ele>219.53493</ele>
        <time>2012-09-16T06:06:37Z</time>
      </trkpt>
      <trkpt lat="45.75657" lon="4.8395">
        <ele>219.64911</ele>
        <time>2012-09-16T06:06:40Z</time>
      </trkpt>
      <trkpt lat="45.75676" lon="4.8396">
        <ele>219.57072</ele>
        <time>2012-09-16T06:06:43Z</time>
      </trkpt>
      <trkpt lat="45.75696" lon="4.83971">
        <ele>219.37827</ele>
        <time>2012-09-16T06:06:46Z</time>
      </trkpt>
      <trkpt lat="45.75715" lon="4.83981">
        <ele>219.06584</ele>
        <time>2012-09-16T06:06:49Z</time>
      </trkpt>
      <trkpt lat="45.75735" lon="4.83991">
        <ele>218.75278</ele>
        <time>2012-09-16T06:06:52Z</time>
      </trkpt>
      <trkpt lat="45.75755" lon="4.84">
        <ele>218.54884</ele>
        <time>2012-09-16T06:06:55Z</time>
      </trkpt>
      <trkpt lat="45.75776" lon="4.84009">
        <ele>218.41904</ele>
        <time>2012-09-16T06:06:58Z</time>
      </trkpt>
      <trkpt lat="45.75796" lon="4.84017">
        <ele>218.5424</ele>
        <time>2012-09-16T06:07:01Z</time>
      </trkpt>
      <trkpt lat="45.75815" lon="4.84025">
        <ele>219.03508</ele>
        <time>2012-09-16T06:07:04Z</time>
      </trkpt>
      <trkpt lat="45.75835" lon="4.84032">
        <ele>219.532</ele>
        <time>2012-09-16T06:07:07Z</time>
      </trkpt>
      <trkpt lat="45.75855" lon="4.84039">
        <ele>219.87912</ele>
        <time>2012-09-16T06:07:10Z</time>
      </trkpt>
      <trkpt lat="45.75875" lon="4.84045">
        <ele>219.92401</ele>
        <time>2012-09-16T06:07:13Z</time>
      </trkpt>
      <trkpt lat="45.75895" lon="4.84051">
        <ele>219.88513</ele>
        <time>2012-09-16T06:07:16Z</time>
      </trkpt>
      <trkpt lat="45.75915" lon="4.84056">
        <ele>219.84373</ele>
        <time>2012-09-16T06:07:19Z</time>
      </trkpt>
      <trkpt lat="45.75935" lon="4.8406">
        <ele>219.67783</ele>
        <time>2012-09-16T06:07:22Z</time>
      </trkpt>
      <trkpt lat="45.75955" lon="4.84064">
        <ele>219.43752</ele>
        <time>2012-09-16T06:07:25Z</time>
      </trkpt>
      <trkpt lat="45.75976" lon="4.84066">
        <ele>219.34395</ele>
        <time>2012-09-16T06:07:28Z</time>
      </trkpt>
      <trkpt lat="45.75996" lon="4.84068">
        <ele>219.26073</ele>
        <time>2012-09-16T06:07:31Z</time>
      </trkpt>
      <trkpt lat="45.76018" lon="4.84071">
        <ele>219.25063</ele>
        <time>2012-09-16T06:07:34Z</time>
      </trkpt>
      <trkpt lat="45.76039" lon="4.84071">
        <ele>219.27136</ele>
        <time>2012-09-16T06:07:37Z</time>
      </trkpt>
      <trkpt lat="45.7606" lon="4.84072">
        <ele>219.50198</ele>
        <time>2012-09-16T06:07:40Z</time>
      </trkpt>
      <trkpt lat="45.76082" lon="4.84074">
        <ele>219.97897</ele>
        <time>2012-09-16T06:07:43Z</time>
      </trkpt>
      <trkpt lat="45.76104" lon="4.84074">
        <ele>220.30988</ele>
        <time>2012-09-16T06:07:46Z</time>
      </trkpt>
      <trkpt lat="45.76125" lon="4.84076">
        <ele>220.3651</ele>
        <time>2012-09-16T06:07:49Z</time>
      </trkpt>
      <trkpt lat="45.76147" lon="4.84079">
        <ele>220.30872</ele>
        <time>2012-09-16T06:07:52Z</time>
      </trkpt>
      <trkpt lat="45.76169" lon="4.8408">
        <ele>220.27711</ele>
        <time>2012-09-16T06:07:55Z</time>
      </trkpt>
      <trkpt lat="45.76191" lon="4.84082">
        <ele>220.46378</ele>
        <time>2012-09-16T06:07:58Z</time>
      </trkpt>
      <trkpt lat="45.76212" lon="4.84085">
        <ele>220.53471</ele>
        <time>2012-09-16T06:08:01Z</time>
      </trkpt>
      <trkpt lat="45.76234" lon="4.84087">
        <ele>220.45996</ele>
        <time>2012-09-16T06:08:04Z</time>
      </trkpt>
      <trkpt lat="45.76256" lon="4.84089">
        <ele>220.17844</ele>
        <time>2012-09-16T06:08:07Z</time>
      </trkpt>
      <trkpt lat="45.76277" lon="4.84092">
        <ele>219.87213</ele>
        <time>2012-09-16T06:08:10Z</time>
      </trkpt>
      <trkpt lat="45.76298" lon="4.84094">
        <ele>219.67574</ele>
        <time>2012-09-16T06:08:13Z</time>
      </trkpt>
      <trkpt lat="45.7632" lon="4.84097">
        <ele>219.21634</ele>
        <time>2012-09-16T06:08:16Z</time>
      </trkpt>
      <trkpt lat="45.76343" lon="4.84097">
        <ele>218.39752</ele>
        <time>2012-09-16T06:08:19Z</time>
      </trkpt>
      <trkpt lat="45.76367" lon="4.84098">
        <ele>217.71301</ele>
        <time>2012-09-16T06:08:22Z</time>
      </trkpt>
      <trkpt lat="45.76388" lon="4.84101">
        <ele>217.27893</ele>
        <time>2012-09-16T06:08:25Z</time>
      </trkpt>
      <trkpt lat="45.76407" lon="4.84106">
        <ele>216.85048</ele>
        <time>2012-09-16T06:08:28Z</time>
      </trkpt>
      <trkpt lat="45.76427" lon="4.8411">
        <ele>216.31194</ele>
        <time>2012-09-16T06:08:31Z</time>
      </trkpt>
      <trkpt lat="45.76446" lon="4.8411">
        <ele>216.01285</ele>
        <time>2012-09-16T06:08:34Z</time>
      </trkpt>
      <trkpt lat="45.76465" lon="4.8411">
        <ele>216.11322</ele>
        <time>2012-09-16T06:08:37Z</time>
      </trkpt>
      <trkpt lat="45.76484" lon="4.8411">
        <ele>216.27902</ele>
        <time>2012-09-16T06:08:40Z</time>
      </trkpt>
      <trkpt lat="45.76504" lon="4.84109">
        <ele>216.42084</ele>
        <time>2012-09-16T06:08:43Z</time>
      </trkpt>
      <trkpt lat="45.76524" lon="4.84108">
        <ele>216.13379</ele>
        <time>2012-09-16T06:08:46Z</time>
      </trkpt>
      <trkpt lat="45.76544" lon="4.84106">
        <ele>215.608</ele>
        <time>2012-09-16T06:08:49Z</time>
      </trkpt>
      <trkpt lat="45.76564" lon="4.84104">
        <ele>215.3862</ele>
        <time>2012-09-16T06:08:52Z</time>
      </trkpt>
      <trkpt lat="45.76585" lon="4.84102">
        <ele>215.27856</ele>
        <time>2012-09-16T06:08:55Z</time>
      </trkpt>
      <trkpt lat="45.76606" lon="4.84102">
        <ele>215.06908</ele>
        <time>2012-09-16T06:08:58Z</time>
      </trkpt>
      <trkpt lat="45.76627" lon="4.84101">
        <ele>214.90259</ele>
        <time>2012-09-16T06:09:01Z</time>
      </trkpt>
      <trkpt lat="45.76648" lon="4.841">
        <ele>214.74016</ele>
        <time>2012-09-16T06:09:04Z</time>
      </trkpt>
      <trkpt lat="45.76668" lon="4.84097">
        <ele>215.12318</ele>
        <time>2012-09-16T06:09:07Z</time>
      </trkpt>
      <trkpt lat="45.76688" lon="4.84094">
        <ele>215.29729</ele>
        <time>2012-09-16T06:09:10Z</time>
      </trkpt>
      <trkpt lat="45.76709" lon="4.84092">
        <ele>214.97697</ele>
        <time>2012-09-16T06:09:13Z</time>
      </trkpt>
      <trkpt lat="45.76729" lon="4.84088">
        <ele>214.67935</ele>
        <time>2012-09-16T06:09:16Z</time>
      </trkpt>
      <trkpt lat="45.7675" lon="4.84086">
        <ele>214.98659</ele>
        <time>2012-09-16T06:09:19Z</time>
      </trkpt>
      <trkpt lat="45.76771" lon="4.84082">
        <ele>215.88654</ele>
        <time>2012-09-16T06:09:22Z</time>
      </trkpt>
      <trkpt lat="45.76792" lon="4.84078">
        <ele>216.299</ele>
        <time>2012-09-16T06:09:25Z</time>
      </trkpt>
      <trkpt lat="45.76814" lon="4.84075">
        <ele>216.45425</ele>
        <time>2012-09-16T06:09:28Z</time>
      </trkpt>
      <trkpt lat="45.76837" lon="4.84074">
        <ele>216.49477</ele>
        <time>2012-09-16T06:09:31Z</time>
      </trkpt>
      <trkpt lat="45.7686" lon="4.84072">
        <ele>216.6681</ele>
        <time>2012-09-16T06:09:34Z</time>
      </trkpt>
      <trkpt lat="45.76883" lon="4.8407">
        <ele>216.59904</ele>
        <time>2012-09-16T06:09:37Z</time>
      </trkpt>
      <trkpt lat="45.76906" lon="4.84069">
        <ele>216.44492</ele>
        <time>2012-09-16T06:09:40Z</time>
      </trkpt>
      <trkpt lat="45.76927" lon="4.84067">
        <ele>216.72208</ele>
        <time>2012-09-16T06:09:43Z</time>
      </trkpt>
      <trkpt lat="45.76948" lon="4.84067">
        <ele>216.89995</ele>
        <time>2012-09-16T06:09:46Z</time>
      </trkpt>
      <trkpt lat="45.76968" lon="4.84068">
        <ele>217.36716</ele>
        <time>2012-09-16T06:09:49Z</time>
      </trkpt>
      <trkpt lat="45.76989" lon="4.84069">
        <ele>217.77365</ele>
        <time>2012-09-16T06:09:52Z</time>
      </trkpt>
      <trkpt lat="45.77012" lon="4.84069">
        <ele>218.1467</ele>
        <time>2012-09-16T06:09:55Z</time>
      </trkpt>
      <trkpt lat="45.77033" lon="4.84068">
        <ele>218.69002</ele>
        <time>2012-09-16T06:09:58Z</time>
      </trkpt>
      <trkpt lat="45.77054" lon="4.84068">
        <ele>219.4536</ele>
        <time>2012-09-16T06:10:01Z</time>
      </trkpt>
      <trkpt lat="45.77075" lon="4.84067">
        <ele>220.04762</ele>
        <time>2012-09-16T06:10:04Z</time>
      </trkpt>
      <trkpt lat="45.77098" lon="4.84067">
        <ele>220.43259</ele>
        <time>2012-09-16T06:10:07Z</time>
      </trkpt>
      <trkpt lat="45.77121" lon="4.84068">
        <ele>220.25125</ele>
        <time>2012-09-16T06:10:10Z</time>
      </trkpt>
      <trkpt lat="45.77144" lon="4.8407">
        <ele>219.69348</ele>
        <time>2012-09-16T06:10:13Z</time>
      </trkpt>
      <trkpt lat="45.77166" lon="4.84071">
        <ele>219.27382</ele>
        <time>2012-09-16T06:10:16Z</time>
      </trkpt>
      <trkpt lat="45.77189" lon="4.84071">
        <ele>219.13426</ele>
        <time>2012-09-16T06:10:19Z</time>
      </trkpt>
      <trkpt lat="45.77211" lon="4.84071">
        <ele>219.04883</ele>
        <time>2012-09-16T06:10:22Z</time>
      </trkpt>
      <trkpt lat="45.77233" lon="4.84074">
        <ele>219.17998</ele>
        <time>2012-09-16T06:10:25Z</time>
      </trkpt>
      <trkpt lat="45.77254" lon="4.84078">
        <ele>219.29312</ele>
        <time>2012-09-16T06:10:28Z</time>
      </trkpt>
      <trkpt lat="45.77275" lon="4.8408">
        <ele>220.30179</ele>
        <time>2012-09-16T06:10:31Z</time>
      </trkpt>
      <trkpt lat="45.77297" lon="4.8409">
        <ele>221.14294</ele>
        <time>2012-09-16T06:10:34Z</time>
      </trkpt>
      <trkpt lat="45.77317" lon="4.84104">
        <ele>221.96811</ele>
        <time>2012-09-16T06:10:37Z</time>
      </trkpt>
      <trkpt lat="45.77337" lon="4.84118">
        <ele>222.4178</ele>
        <time>2012-09-16T06:10:40Z</time>
      </trkpt>
      <trkpt lat="45.77358" lon="4.84132">
        <ele>222.24812</ele>
        <time>2012-09-16T06:10:43Z</time>
      </trkpt>
      <trkpt lat="45.77378" lon="4.84145">
        <ele>222.06873</ele>
        <time>2012-09-16T06:10:46Z</time>
      </trkpt>
      <trkpt lat="45.77397" lon="4.8416">
        <ele>221.65244</ele>
        <time>2012-09-16T06:10:49Z</time>
      </trkpt>
      <trkpt lat="45.77416" lon="4.84174">
        <ele>221.34868</ele>
        <time>2012-09-16T06:10:52Z</time>
      </trkpt>
      <trkpt lat="45.77437" lon="4.84188">
        <ele>221.0643</ele>
        <time>2012-09-16T06:10:55Z</time>
      </trkpt>
      <trkpt lat="45.77457" lon="4.84203">
        <ele>220.8037</ele>
        <time>2012-09-16T06:10:58Z</time>
      </trkpt>
      <trkpt lat="45.77478" lon="4.84216">
        <ele>220.00624</ele>
        <time>2012-09-16T06:11:01Z</time>
      </trkpt>
      <trkpt lat="45.77497" lon="4.84229">
        <ele>219.37294</ele>
        <time>2012-09-16T06:11:04Z</time>
      </trkpt>
      <trkpt lat="45.77516" lon="4.84244">
        <ele>219.1214</ele>
        <time>2012-09-16T06:11:07Z</time>
      </trkpt>
      <trkpt lat="45.77535" lon="4.84259">
        <ele>218.8887</ele>
        <time>2012-09-16T06:11:10Z</time>
      </trkpt>
      <trkpt lat="45.77555" lon="4.84272">
        <ele>218.9968</ele>
        <time>2012-09-16T06:11:13Z</time>
      </trkpt>
      <trkpt lat="45.77575" lon="4.84285">
        <ele>219.2127</ele>
        <time>2012-09-16T06:11:16Z</time>
      </trkpt>
      <trkpt lat="45.77595" lon="4.84298">
        <ele>219.38818</ele>
        <time>2012-09-16T06:11:19Z</time>
      </trkpt>
      <trkpt lat="45.77616" lon="4.84313">
        <ele>219.56532</ele>
        <time>2012-09-16T06:11:22Z</time>
      </trkpt>
      <trkpt lat="45.77635" lon="4.84328">
        <ele>219.92601</ele>
        <time>2012-09-16T06:11:25Z</time>
      </trkpt>
      <trkpt lat="45.77656" lon="4.84344">
        <ele>220.24065</ele>
        <time>2012-09-16T06:11:28Z</time>
      </trkpt>
      <trkpt lat="45.77677" lon="4.84358">
        <ele>221.02809</ele>
        <time>2012-09-16T06:11:31Z</time>
      </trkpt>
      <trkpt lat="45.77699" lon="4.8437">
        <ele>221.96967</ele>
        <time>2012-09-16T06:11:34Z</time>
      </trkpt>
      <trkpt lat="45.77722" lon="4.84375">
        <ele>222.41376</ele>
        <time>2012-09-16T06:11:37Z</time>
      </trkpt>
      <trkpt lat="45.77744" lon="4.84372">
        <ele>222.3981</ele>
        <time>2012-09-16T06:11:41Z</time>
      </trkpt>
      <trkpt lat="45.77758" lon="4.84353">
        <ele>220.96548</ele>
        <time>2012-09-16T06:11:47Z</time>
      </trkpt>
      <trkpt lat="45.77774" lon="4.84336">
        <ele>218.84598</ele>
        <time>2012-09-16T06:11:55Z</time>
      </trkpt>
      <trkpt lat="45.77793" lon="4.84345">
        <ele>218.62666</ele>
        <time>2012-09-16T06:11:59Z</time>
      </trkpt>
      <trkpt lat="45.77816" lon="4.84362">
        <ele>218.6596</ele>
        <time>2012-09-16T06:12:03Z</time>
      </trkpt>
      <trkpt lat="45.77839" lon="4.84372">
        <ele>218.11577</ele>
        <time>2012-09-16T06:12:06Z</time>
      </trkpt>
      <trkpt lat="45.77862" lon="4.84377">
        <ele>217.59259</ele>
        <time>2012-09-16T06:12:09Z</time>
      </trkpt>
      <trkpt lat="45.77884" lon="4.84381">
        <ele>217.67061</ele>
        <time>2012-09-16T06:12:14Z</time>
      </trkpt>
      <trkpt lat="45.77901" lon="4.84393">
        <ele>217.97934</ele>
        <time>2012-09-16T06:12:19Z</time>
      </trkpt>
      <trkpt lat="45.77917" lon="4.84407">
        <ele>217.82518</ele>
        <time>2012-09-16T06:12:24Z</time>
      </trkpt>
      <trkpt lat="45.77936" lon="4.84416">
        <ele>217.94612</ele>
        <time>2012-09-16T06:12:29Z</time>
      </trkpt>
      <trkpt lat="45.77953" lon="4.84427">
        <ele>216.54909</ele>
        <time>2012-09-16T06:12:39Z</time>
      </trkpt>
      <trkpt lat="45.77966" lon="4.84447">
        <ele>215.29439</ele>
        <time>2012-09-16T06:12:54Z</time>
      </trkpt>
      <trkpt lat="45.77986" lon="4.84456">
        <ele>215.62944</ele>
        <time>2012-09-16T06:13:00Z</time>
      </trkpt>
      <trkpt lat="45.78004" lon="4.84472">
        <ele>216.55423</ele>
        <time>2012-09-16T06:13:04Z</time>
      </trkpt>
      <trkpt lat="45.78024" lon="4.84485">
        <ele>216.86636</ele>
        <time>2012-09-16T06:13:08Z</time>
      </trkpt>
      <trkpt lat="45.78041" lon="4.84498">
        <ele>216.67175</ele>
        <time>2012-09-16T06:13:11Z</time>
      </trkpt>
      <trkpt lat="45.78061" lon="4.84513">
        <ele>216.26607</ele>
        <time>2012-09-16T06:13:15Z</time>
      </trkpt>
      <trkpt lat="45.78082" lon="4.84527">
        <ele>215.82127</ele>
        <time>2012-09-16T06:13:19Z</time>
      </trkpt>
      <trkpt lat="45.78104" lon="4.84541">
        <ele>215.72</ele>
        <time>2012-09-16T06:13:23Z</time>
      </trkpt>
      <trkpt lat="45.7812" lon="4.84552">
        <ele>215.51</ele>
        <time>2012-09-16T06:13:26Z</time>
      </trkpt>
      <trkpt lat="45.78138" lon="4.84571">
        <ele>215.07465</ele>
        <time>2012-09-16T06:13:30Z</time>
      </trkpt>
      <trkpt lat="45.78139" lon="4.84597">
        <ele>215.7154</ele>
        <time>2012-09-16T06:13:36Z</time>
      </trkpt>
      <trkpt lat="45.78149" lon="4.84619">
        <ele>216.9653</ele>
        <time>2012-09-16T06:13:43Z</time>
      </trkpt>
      <trkpt lat="45.78167" lon="4.84634">
        <ele>217.72742</ele>
        <time>2012-09-16T06:13:48Z</time>
      </trkpt>
      <trkpt lat="45.78182" lon="4.84653">
        <ele>219.05553</ele>
        <time>2012-09-16T06:13:53Z</time>
      </trkpt>
      <trkpt lat="45.78188" lon="4.84678">
        <ele>219.90234</ele>
        <time>2012-09-16T06:13:58Z</time>
      </trkpt>
      <trkpt lat="45.78207" lon="4.84696">
        <ele>220.07468</ele>
        <time>2012-09-16T06:14:03Z</time>
      </trkpt>
      <trkpt lat="45.78224" lon="4.84709">
        <ele>219.87213</ele>
        <time>2012-09-16T06:14:06Z</time>
      </trkpt>
      <trkpt lat="45.78239" lon="4.84723">
        <ele>220.00075</ele>
        <time>2012-09-16T06:14:09Z</time>
      </trkpt>
      <trkpt lat="45.78254" lon="4.84739">
        <ele>220.21751</ele>
        <time>2012-09-16T06:14:12Z</time>
      </trkpt>
      <trkpt lat="45.78269" lon="4.84756">
        <ele>220.41676</ele>
        <time>2012-09-16T06:14:15Z</time>
      </trkpt>
      <trkpt lat="45.78285" lon="4.84773">
        <ele>220.68208</ele>
        <time>2012-09-16T06:14:18Z</time>
      </trkpt>
      <trkpt lat="45.78302" lon="4.84791">
        <ele>221.06119</ele>
        <time>2012-09-16T06:14:21Z</time>
      </trkpt>
      <trkpt lat="45.78317" lon="4.8481">
        <ele>221.39143</ele>
        <time>2012-09-16T06:14:24Z</time>
      </trkpt>
      <trkpt lat="45.78332" lon="4.84829">
        <ele>221.60576</ele>
        <time>2012-09-16T06:14:27Z</time>
      </trkpt>
      <trkpt lat="45.78345" lon="4.84847">
        <ele>221.90244</ele>
        <time>2012-09-16T06:14:30Z</time>
      </trkpt>
      <trkpt lat="45.78361" lon="4.84871">
        <ele>222.43828</ele>
        <time>2012-09-16T06:14:34Z</time>
      </trkpt>
      <trkpt lat="45.78376" lon="4.84897">
        <ele>223.33867</ele>
        <time>2012-09-16T06:14:38Z</time>
      </trkpt>
      <trkpt lat="45.78391" lon="4.84922">
        <ele>223.98528</ele>
        <time>2012-09-16T06:14:42Z</time>
      </trkpt>
      <trkpt lat="45.78406" lon="4.84948">
        <ele>224.39534</ele>
        <time>2012-09-16T06:14:46Z</time>
      </trkpt>
      <trkpt lat="45.78421" lon="4.84973">
        <ele>224.36533</ele>
        <time>2012-09-16T06:14:50Z</time>
      </trkpt>
      <trkpt lat="45.78414" lon="4.85002">
        <ele>223.9069</ele>
        <time>2012-09-16T06:14:55Z</time>
      </trkpt>
      <trkpt lat="45.78395" lon="4.85013">
        <ele>223.64978</ele>
        <time>2012-09-16T06:14:58Z</time>
      </trkpt>
      <trkpt lat="45.78381" lon="4.85029">
        <ele>223.78038</ele>
        <time>2012-09-16T06:15:01Z</time>
      </trkpt>
      <trkpt lat="45.78362" lon="4.85048">
        <ele>223.90707</ele>
        <time>2012-09-16T06:15:05Z</time>
      </trkpt>
      <trkpt lat="45.78346" lon="4.85062">
        <ele>223.82799</ele>
        <time>2012-09-16T06:15:08Z</time>
      </trkpt>
      <trkpt lat="45.78331" lon="4.85078">
        <ele>224.11182</ele>
        <time>2012-09-16T06:15:11Z</time>
      </trkpt>
      <trkpt lat="45.78317" lon="4.85105">
        <ele>224.92601</ele>
        <time>2012-09-16T06:15:15Z</time>
      </trkpt>
      <trkpt lat="45.78321" lon="4.8513">
        <ele>225.99692</ele>
        <time>2012-09-16T06:15:18Z</time>
      </trkpt>
      <trkpt lat="45.78331" lon="4.85154">
        <ele>227.1815</ele>
        <time>2012-09-16T06:15:21Z</time>
      </trkpt>
      <trkpt lat="45.78344" lon="4.85174">
        <ele>228.06721</ele>
        <time>2012-09-16T06:15:24Z</time>
      </trkpt>
      <trkpt lat="45.78357" lon="4.85195">
        <ele>228.72523</ele>
        <time>2012-09-16T06:15:27Z</time>
      </trkpt>
      <trkpt lat="45.78369" lon="4.85218">
        <ele>229.4622</ele>
        <time>2012-09-16T06:15:30Z</time>
      </trkpt>
      <trkpt lat="45.78381" lon="4.85241">
        <ele>230.36998</ele>
        <time>2012-09-16T06:15:33Z</time>
      </trkpt>
      <trkpt lat="45.78393" lon="4.85265">
        <ele>231.32016</ele>
        <time>2012-09-16T06:15:36Z</time>
      </trkpt>
      <trkpt lat="45.78404" lon="4.85289">
        <ele>232.11475</ele>
        <time>2012-09-16T06:15:39Z</time>
      </trkpt>
      <trkpt lat="45.78413" lon="4.85314">
        <ele>232.7531</ele>
        <time>2012-09-16T06:15:42Z</time>
      </trkpt>
      <trkpt lat="45.78425" lon="4.8534">
        <ele>233.4349</ele>
        <time>2012-09-16T06:15:45Z</time>
      </trkpt>
      <trkpt lat="45.78436" lon="4.85365">
        <ele>234.28192</ele>
        <time>2012-09-16T06:15:48Z</time>
      </trkpt>
      <trkpt lat="45.78446" lon="4.85391">
        <ele>234.98767</ele>
        <time>2012-09-16T06:15:51Z</time>
      </trkpt>
      <trkpt lat="45.78454" lon="4.85418">
        <ele>235.24167</ele>
        <time>2012-09-16T06:15:54Z</time>
      </trkpt>
      <trkpt lat="45.78461" lon="4.85445">
        <ele>234.8707</ele>
        <time>2012-09-16T06:15:57Z</time>
      </trkpt>
      <trkpt lat="45.78468" lon="4.85472">
        <ele>234.22203</ele>
        <time>2012-09-16T06:16:00Z</time>
      </trkpt>
      <trkpt lat="45.78475" lon="4.85499">
        <ele>233.9968</ele>
        <time>2012-09-16T06:16:03Z</time>
      </trkpt>
      <trkpt lat="45.7848" lon="4.85527">
        <ele>233.91428</ele>
        <time>2012-09-16T06:16:06Z</time>
      </trkpt>
      <trkpt lat="45.78484" lon="4.85555">
        <ele>233.88884</ele>
        <time>2012-09-16T06:16:09Z</time>
      </trkpt>
      <trkpt lat="45.78486" lon="4.85584">
        <ele>233.83746</ele>
        <time>2012-09-16T06:16:12Z</time>
      </trkpt>
      <trkpt lat="45.78488" lon="4.85613">
        <ele>233.74706</ele>
        <time>2012-09-16T06:16:15Z</time>
      </trkpt>
      <trkpt lat="45.78491" lon="4.8564">
        <ele>233.43391</ele>
        <time>2012-09-16T06:16:18Z</time>
      </trkpt>
      <trkpt lat="45.7849" lon="4.85669">
        <ele>233.12056</ele>
        <time>2012-09-16T06:16:21Z</time>
      </trkpt>
      <trkpt lat="45.78487" lon="4.85697">
        <ele>232.68211</ele>
        <time>2012-09-16T06:16:24Z</time>
      </trkpt>
      <trkpt lat="45.78486" lon="4.85726">
        <ele>232.42996</ele>
        <time>2012-09-16T06:16:27Z</time>
      </trkpt>
      <trkpt lat="45.78485" lon="4.85753">
        <ele>232.44547</ele>
        <time>2012-09-16T06:16:30Z</time>
      </trkpt>
      <trkpt lat="45.78484" lon="4.85781">
        <ele>232.50198</ele>
        <time>2012-09-16T06:16:33Z</time>
      </trkpt>
      <trkpt lat="45.7848" lon="4.85814">
        <ele>232.44397</ele>
        <time>2012-09-16T06:16:37Z</time>
      </trkpt>
      <trkpt lat="45.78478" lon="4.85853">
        <ele>230.61386</ele>
        <time>2012-09-16T06:16:40Z</time>
      </trkpt>
      <trkpt lat="45.78474" lon="4.85879">
        <ele>228.56404</ele>
        <time>2012-09-16T06:16:42Z</time>
      </trkpt>
      <trkpt lat="45.78468" lon="4.8591">
        <ele>227.35046</ele>
        <time>2012-09-16T06:16:45Z</time>
      </trkpt>
      <trkpt lat="45.78446" lon="4.85919">
        <ele>225.13745</ele>
        <time>2012-09-16T06:16:49Z</time>
      </trkpt>
      <trkpt lat="45.78422" lon="4.85906">
        <ele>224.30798</ele>
        <time>2012-09-16T06:16:52Z</time>
      </trkpt>
      <trkpt lat="45.78397" lon="4.85894">
        <ele>223.66743</ele>
        <time>2012-09-16T06:16:55Z</time>
      </trkpt>
      <trkpt lat="45.7838" lon="4.85886">
        <ele>223.08168</ele>
        <time>2012-09-16T06:16:57Z</time>
      </trkpt>
      <trkpt lat="45.78361" lon="4.85875">
        <ele>222.3522</ele>
        <time>2012-09-16T06:16:59Z</time>
      </trkpt>
      <trkpt lat="45.78344" lon="4.85864">
        <ele>221.71062</ele>
        <time>2012-09-16T06:17:01Z</time>
      </trkpt>
      <trkpt lat="45.78328" lon="4.85852">
        <ele>221.16847</ele>
        <time>2012-09-16T06:17:03Z</time>
      </trkpt>
      <trkpt lat="45.78306" lon="4.85831">
        <ele>220.0367</ele>
        <time>2012-09-16T06:17:06Z</time>
      </trkpt>
      <trkpt lat="45.78285" lon="4.85811">
        <ele>219.46236</ele>
        <time>2012-09-16T06:17:09Z</time>
      </trkpt>
      <trkpt lat="45.78263" lon="4.85795">
        <ele>219.74818</ele>
        <time>2012-09-16T06:17:12Z</time>
      </trkpt>
      <trkpt lat="45.78242" lon="4.85784">
        <ele>219.95157</ele>
        <time>2012-09-16T06:17:15Z</time>
      </trkpt>
      <trkpt lat="45.78221" lon="4.85772">
        <ele>220.21393</ele>
        <time>2012-09-16T06:17:18Z</time>
      </trkpt>
      <trkpt lat="45.78199" lon="4.85761">
        <ele>220.58556</ele>
        <time>2012-09-16T06:17:21Z</time>
      </trkpt>
      <trkpt lat="45.78178" lon="4.85749">
        <ele>221.50172</ele>
        <time>2012-09-16T06:17:24Z</time>
      </trkpt>
      <trkpt lat="45.78157" lon="4.85735">
        <ele>222.15854</ele>
        <time>2012-09-16T06:17:27Z</time>
      </trkpt>
      <trkpt lat="45.78139" lon="4.85718">
        <ele>222.77626</ele>
        <time>2012-09-16T06:17:30Z</time>
      </trkpt>
      <trkpt lat="45.78126" lon="4.85693">
        <ele>222.90405</ele>
        <time>2012-09-16T06:17:33Z</time>
      </trkpt>
      <trkpt lat="45.78117" lon="4.85665">
        <ele>222.97827</ele>
        <time>2012-09-16T06:17:36Z</time>
      </trkpt>
      <trkpt lat="45.78108" lon="4.85638">
        <ele>222.7627</ele>
        <time>2012-09-16T06:17:39Z</time>
      </trkpt>
      <trkpt lat="45.78102" lon="4.85612">
        <ele>222.71437</ele>
        <time>2012-09-16T06:17:43Z</time>
      </trkpt>
      <trkpt lat="45.78123" lon="4.856">
        <ele>222.9811</ele>
        <time>2012-09-16T06:17:47Z</time>
      </trkpt>
      <trkpt lat="45.78142" lon="4.85602">
        <ele>222.77953</ele>
        <time>2012-09-16T06:17:50Z</time>
      </trkpt>
      <trkpt lat="45.78157" lon="4.85621">
        <ele>222.16167</ele>
        <time>2012-09-16T06:17:53Z</time>
      </trkpt>
      <trkpt lat="45.78175" lon="4.85633">
        <ele>222.10414</ele>
        <time>2012-09-16T06:17:56Z</time>
      </trkpt>
      <trkpt lat="45.78198" lon="4.85632">
        <ele>221.9502</ele>
        <time>2012-09-16T06:17:59Z</time>
      </trkpt>
      <trkpt lat="45.78221" lon="4.85636">
        <ele>221.67136</ele>
        <time>2012-09-16T06:18:03Z</time>
      </trkpt>
      <trkpt lat="45.7824" lon="4.85642">
        <ele>221.54729</ele>
        <time>2012-09-16T06:18:06Z</time>
      </trkpt>
      <trkpt lat="45.7826" lon="4.85636">
        <ele>221.47621</ele>
        <time>2012-09-16T06:18:09Z</time>
      </trkpt>
      <trkpt lat="45.78273" lon="4.85612">
        <ele>221.46965</ele>
        <time>2012-09-16T06:18:12Z</time>
      </trkpt>
      <trkpt lat="45.78269" lon="4.85584">
        <ele>221.02626</ele>
        <time>2012-09-16T06:18:15Z</time>
      </trkpt>
      <trkpt lat="45.78251" lon="4.85569">
        <ele>220.12202</ele>
        <time>2012-09-16T06:18:18Z</time>
      </trkpt>
      <trkpt lat="45.7823" lon="4.85561">
        <ele>220.24991</ele>
        <time>2012-09-16T06:18:21Z</time>
      </trkpt>
      <trkpt lat="45.78209" lon="4.85554">
        <ele>221.28355</ele>
        <time>2012-09-16T06:18:24Z</time>
      </trkpt>
      <trkpt lat="45.78189" lon="4.85548">
        <ele>222.24776</ele>
        <time>2012-09-16T06:18:27Z</time>
      </trkpt>
      <trkpt lat="45.78167" lon="4.85549">
        <ele>222.95766</ele>
        <time>2012-09-16T06:18:30Z</time>
      </trkpt>
      <trkpt lat="45.78151" lon="4.85572">
        <ele>223.20557</ele>
        <time>2012-09-16T06:18:33Z</time>
      </trkpt>
      <trkpt lat="45.78151" lon="4.85604">
        <ele>223.13516</ele>
        <time>2012-09-16T06:18:36Z</time>
      </trkpt>
      <trkpt lat="45.78171" lon="4.85619">
        <ele>221.98671</ele>
        <time>2012-09-16T06:18:39Z</time>
      </trkpt>
      <trkpt lat="45.7819" lon="4.85625">
        <ele>221.04907</ele>
        <time>2012-09-16T06:18:42Z</time>
      </trkpt>
      <trkpt lat="45.78212" lon="4.85616">
        <ele>220.11427</ele>
        <time>2012-09-16T06:18:47Z</time>
      </trkpt>
      <trkpt lat="45.7823" lon="4.85623">
        <ele>220.13727</ele>
        <time>2012-09-16T06:18:50Z</time>
      </trkpt>
      <trkpt lat="45.78248" lon="4.85615">
        <ele>220.3204</ele>
        <time>2012-09-16T06:18:53Z</time>
      </trkpt>
      <trkpt lat="45.78267" lon="4.8561">
        <ele>220.05861</ele>
        <time>2012-09-16T06:18:56Z</time>
      </trkpt>
      <trkpt lat="45.78287" lon="4.85617">
        <ele>220.09973</ele>
        <time>2012-09-16T06:18:59Z</time>
      </trkpt>
      <trkpt lat="45.78305" lon="4.85625">
        <ele>220.55927</ele>
        <time>2012-09-16T06:19:02Z</time>
      </trkpt>
      <trkpt lat="45.78304" lon="4.85596">
        <ele>219.95059</ele>
        <time>2012-09-16T06:19:09Z</time>
      </trkpt>
      <trkpt lat="45.7832" lon="4.8558">
        <ele>219.34921</ele>
        <time>2012-09-16T06:19:13Z</time>
      </trkpt>
      <trkpt lat="45.78337" lon="4.85562">
        <ele>218.23639</ele>
        <time>2012-09-16T06:19:16Z</time>
      </trkpt>
      <trkpt lat="45.78347" lon="4.85533">
        <ele>217.1966</ele>
        <time>2012-09-16T06:19:19Z</time>
      </trkpt>
      <trkpt lat="45.78353" lon="4.85501">
        <ele>216.62044</ele>
        <time>2012-09-16T06:19:22Z</time>
      </trkpt>
      <trkpt lat="45.78356" lon="4.85468">
        <ele>216.83049</ele>
        <time>2012-09-16T06:19:25Z</time>
      </trkpt>
      <trkpt lat="45.78342" lon="4.8544">
        <ele>216.64412</ele>
        <time>2012-09-16T06:19:28Z</time>
      </trkpt>
      <trkpt lat="45.78324" lon="4.85418">
        <ele>216.84204</ele>
        <time>2012-09-16T06:19:31Z</time>
      </trkpt>
      <trkpt lat="45.78309" lon="4.85396">
        <ele>216.61618</ele>
        <time>2012-09-16T06:19:34Z</time>
      </trkpt>
      <trkpt lat="45.78293" lon="4.8537">
        <ele>216.41151</ele>
        <time>2012-09-16T06:19:37Z</time>
      </trkpt>
      <trkpt lat="45.78279" lon="4.85343">
        <ele>216.73454</ele>
        <time>2012-09-16T06:19:40Z</time>
      </trkpt>
      <trkpt lat="45.78265" lon="4.85315">
        <ele>217.1302</ele>
        <time>2012-09-16T06:19:43Z</time>
      </trkpt>
      <trkpt lat="45.78253" lon="4.85286">
        <ele>217.44087</ele>
        <time>2012-09-16T06:19:46Z</time>
      </trkpt>
      <trkpt lat="45.78241" lon="4.85257">
        <ele>217.60474</ele>
        <time>2012-09-16T06:19:49Z</time>
      </trkpt>
      <trkpt lat="45.7823" lon="4.85228">
        <ele>217.68481</ele>
        <time>2012-09-16T06:19:52Z</time>
      </trkpt>
      <trkpt lat="45.78218" lon="4.852">
        <ele>217.92172</ele>
        <time>2012-09-16T06:19:55Z</time>
      </trkpt>
      <trkpt lat="45.78206" lon="4.85173">
        <ele>218.20917</ele>
        <time>2012-09-16T06:19:58Z</time>
      </trkpt>
      <trkpt lat="45.78193" lon="4.85147">
        <ele>218.3773</ele>
        <time>2012-09-16T06:20:01Z</time>
      </trkpt>
      <trkpt lat="45.78179" lon="4.85123">
        <ele>218.4045</ele>
        <time>2012-09-16T06:20:04Z</time>
      </trkpt>
      <trkpt lat="45.78164" lon="4.85098">
        <ele>218.38315</ele>
        <time>2012-09-16T06:20:07Z</time>
      </trkpt>
      <trkpt lat="45.78146" lon="4.85078">
        <ele>218.16478</ele>
        <time>2012-09-16T06:20:10Z</time>
      </trkpt>
      <trkpt lat="45.78127" lon="4.8506">
        <ele>217.80858</ele>
        <time>2012-09-16T06:20:13Z</time>
      </trkpt>
      <trkpt lat="45.78108" lon="4.8504">
        <ele>217.54738</ele>
        <time>2012-09-16T06:20:16Z</time>
      </trkpt>
      <trkpt lat="45.78091" lon="4.85017">
        <ele>217.2778</ele>
        <time>2012-09-16T06:20:19Z</time>
      </trkpt>
      <trkpt lat="45.78075" lon="4.84991">
        <ele>217.0594</ele>
        <time>2012-09-16T06:20:22Z</time>
      </trkpt>
      <trkpt lat="45.78062" lon="4.84962">
        <ele>217.14851</ele>
        <time>2012-09-16T06:20:25Z</time>
      </trkpt>
      <trkpt lat="45.7805" lon="4.84932">
        <ele>217.64859</ele>
        <time>2012-09-16T06:20:28Z</time>
      </trkpt>
      <trkpt lat="45.78036" lon="4.84905">
        <ele>218.30331</ele>
        <time>2012-09-16T06:20:31Z</time>
      </trkpt>
      <trkpt lat="45.78022" lon="4.84879">
        <ele>218.78577</ele>
        <time>2012-09-16T06:20:34Z</time>
      </trkpt>
      <trkpt lat="45.78006" lon="4.84854">
        <ele>219.62682</ele>
        <time>2012-09-16T06:20:37Z</time>
      </trkpt>
      <trkpt lat="45.7799" lon="4.8483">
        <ele>220.5582</ele>
        <time>2012-09-16T06:20:40Z</time>
      </trkpt>
      <trkpt lat="45.77973" lon="4.84808">
        <ele>221.77611</ele>
        <time>2012-09-16T06:20:43Z</time>
      </trkpt>
      <trkpt lat="45.77956" lon="4.84785">
        <ele>223.55869</ele>
        <time>2012-09-16T06:20:46Z</time>
      </trkpt>
      <trkpt lat="45.77938" lon="4.84763">
        <ele>224.62007</ele>
        <time>2012-09-16T06:20:49Z</time>
      </trkpt>
      <trkpt lat="45.77919" lon="4.84743">
        <ele>224.84126</ele>
        <time>2012-09-16T06:20:52Z</time>
      </trkpt>
      <trkpt lat="45.77902" lon="4.84721">
        <ele>225.20023</ele>
        <time>2012-09-16T06:20:55Z</time>
      </trkpt>
      <trkpt lat="45.77884" lon="4.84701">
        <ele>225.24072</ele>
        <time>2012-09-16T06:20:58Z</time>
      </trkpt>
      <trkpt lat="45.77867" lon="4.84679">
        <ele>224.94218</ele>
        <time>2012-09-16T06:21:01Z</time>
      </trkpt>
      <trkpt lat="45.77848" lon="4.84657">
        <ele>224.90843</ele>
        <time>2012-09-16T06:21:04Z</time>
      </trkpt>
      <trkpt lat="45.77829" lon="4.84639">
        <ele>225.24104</ele>
        <time>2012-09-16T06:21:07Z</time>
      </trkpt>
      <trkpt lat="45.77812" lon="4.84619">
        <ele>225.47044</ele>
        <time>2012-09-16T06:21:10Z</time>
      </trkpt>
      <trkpt lat="45.77795" lon="4.84598">
        <ele>226.11252</ele>
        <time>2012-09-16T06:21:13Z</time>
      </trkpt>
      <trkpt lat="45.77778" lon="4.84579">
        <ele>226.75528</ele>
        <time>2012-09-16T06:21:16Z</time>
      </trkpt>
      <trkpt lat="45.77763" lon="4.8456">
        <ele>226.6874</ele>
        <time>2012-09-16T06:21:19Z</time>
      </trkpt>
      <trkpt lat="45.77749" lon="4.84545">
        <ele>226.60405</ele>
        <time>2012-09-16T06:21:22Z</time>
      </trkpt>
      <trkpt lat="45.77735" lon="4.84522">
        <ele>226.84035</ele>
        <time>2012-09-16T06:21:26Z</time>
      </trkpt>
      <trkpt lat="45.77737" lon="4.84494">
        <ele>227.41135</ele>
        <time>2012-09-16T06:21:33Z</time>
      </trkpt>
      <trkpt lat="45.77756" lon="4.84482">
        <ele>227.3243</ele>
        <time>2012-09-16T06:21:37Z</time>
      </trkpt>
      <trkpt lat="45.77774" lon="4.8447">
        <ele>227.4319</ele>
        <time>2012-09-16T06:21:41Z</time>
      </trkpt>
      <trkpt lat="45.77793" lon="4.84466">
        <ele>227.4718</ele>
        <time>2012-09-16T06:21:45Z</time>
      </trkpt>
      <trkpt lat="45.77815" lon="4.84473">
        <ele>227.1608</ele>
        <time>2012-09-16T06:21:50Z</time>
      </trkpt>
      <trkpt lat="45.77831" lon="4.84485">
        <ele>227.0272</ele>
        <time>2012-09-16T06:21:53Z</time>
      </trkpt>
      <trkpt lat="45.77848" lon="4.84497">
        <ele>226.55992</ele>
        <time>2012-09-16T06:21:56Z</time>
      </trkpt>
      <trkpt lat="45.77865" lon="4.8451">
        <ele>225.6159</ele>
        <time>2012-09-16T06:21:59Z</time>
      </trkpt>
      <trkpt lat="45.77883" lon="4.84523">
        <ele>224.80827</ele>
        <time>2012-09-16T06:22:02Z</time>
      </trkpt>
      <trkpt lat="45.779" lon="4.8454">
        <ele>224.80818</ele>
        <time>2012-09-16T06:22:05Z</time>
      </trkpt>
      <trkpt lat="45.77919" lon="4.84556">
        <ele>224.55032</ele>
        <time>2012-09-16T06:22:08Z</time>
      </trkpt>
      <trkpt lat="45.77938" lon="4.8457">
        <ele>224.06653</ele>
        <time>2012-09-16T06:22:11Z</time>
      </trkpt>
      <trkpt lat="45.77956" lon="4.84589">
        <ele>223.5937</ele>
        <time>2012-09-16T06:22:14Z</time>
      </trkpt>
      <trkpt lat="45.77975" lon="4.84606">
        <ele>223.5614</ele>
        <time>2012-09-16T06:22:17Z</time>
      </trkpt>
      <trkpt lat="45.77993" lon="4.84623">
        <ele>223.66028</ele>
        <time>2012-09-16T06:22:20Z</time>
      </trkpt>
      <trkpt lat="45.78012" lon="4.84641">
        <ele>223.29887</ele>
        <time>2012-09-16T06:22:23Z</time>
      </trkpt>
      <trkpt lat="45.78027" lon="4.8466">
        <ele>222.6464</ele>
        <time>2012-09-16T06:22:26Z</time>
      </trkpt>
      <trkpt lat="45.78043" lon="4.84678">
        <ele>222.30551</ele>
        <time>2012-09-16T06:22:29Z</time>
      </trkpt>
      <trkpt lat="45.7806" lon="4.84697">
        <ele>222.38513</ele>
        <time>2012-09-16T06:22:32Z</time>
      </trkpt>
      <trkpt lat="45.78075" lon="4.84716">
        <ele>222.81404</ele>
        <time>2012-09-16T06:22:35Z</time>
      </trkpt>
      <trkpt lat="45.78091" lon="4.84735">
        <ele>222.98718</ele>
        <time>2012-09-16T06:22:38Z</time>
      </trkpt>
      <trkpt lat="45.78109" lon="4.84738">
        <ele>223.3436</ele>
        <time>2012-09-16T06:22:42Z</time>
      </trkpt>
      <trkpt lat="45.7812" lon="4.84715">
        <ele>223.84776</ele>
        <time>2012-09-16T06:22:46Z</time>
      </trkpt>
      <trkpt lat="45.78135" lon="4.84693">
        <ele>222.62567</ele>
        <time>2012-09-16T06:22:50Z</time>
      </trkpt>
      <trkpt lat="45.78147" lon="4.84669">
        <ele>220.89204</ele>
        <time>2012-09-16T06:23:01Z</time>
      </trkpt>
      <trkpt lat="45.78151" lon="4.84644">
        <ele>221.52438</ele>
        <time>2012-09-16T06:23:06Z</time>
      </trkpt>
      <trkpt lat="45.78134" lon="4.84629">
        <ele>222.11786</ele>
        <time>2012-09-16T06:23:10Z</time>
      </trkpt>
      <trkpt lat="45.78117" lon="4.84613">
        <ele>222.0919</ele>
        <time>2012-09-16T06:23:13Z</time>
      </trkpt>
      <trkpt lat="45.781" lon="4.84596">
        <ele>221.92313</ele>
        <time>2012-09-16T06:23:16Z</time>
      </trkpt>
      <trkpt lat="45.78082" lon="4.84579">
        <ele>221.78319</ele>
        <time>2012-09-16T06:23:19Z</time>
      </trkpt>
      <trkpt lat="45.78065" lon="4.84563">
        <ele>221.42416</ele>
        <time>2012-09-16T06:23:22Z</time>
      </trkpt>
      <trkpt lat="45.78047" lon="4.84546">
        <ele>220.91176</ele>
        <time>2012-09-16T06:23:25Z</time>
      </trkpt>
      <trkpt lat="45.7803" lon="4.84531">
        <ele>220.7487</ele>
        <time>2012-09-16T06:23:28Z</time>
      </trkpt>
      <trkpt lat="45.78012" lon="4.84514">
        <ele>220.60178</ele>
        <time>2012-09-16T06:23:31Z</time>
      </trkpt>
      <trkpt lat="45.77993" lon="4.84498">
        <ele>220.6445</ele>
        <time>2012-09-16T06:23:34Z</time>
      </trkpt>
      <trkpt lat="45.77975" lon="4.84483">
        <ele>221.05624</ele>
        <time>2012-09-16T06:23:37Z</time>
      </trkpt>
      <trkpt lat="45.77955" lon="4.8447">
        <ele>221.25026</ele>
        <time>2012-09-16T06:23:40Z</time>
      </trkpt>
      <trkpt lat="45.77935" lon="4.84455">
        <ele>221.2821</ele>
        <time>2012-09-16T06:23:43Z</time>
      </trkpt>
      <trkpt lat="45.77915" lon="4.84441">
        <ele>221.49243</ele>
        <time>2012-09-16T06:23:46Z</time>
      </trkpt>
      <trkpt lat="45.77896" lon="4.84429">
        <ele>221.55147</ele>
        <time>2012-09-16T06:23:49Z</time>
      </trkpt>
      <trkpt lat="45.77876" lon="4.84415">
        <ele>222.00606</ele>
        <time>2012-09-16T06:23:52Z</time>
      </trkpt>
      <trkpt lat="45.77856" lon="4.84402">
        <ele>222.10878</ele>
        <time>2012-09-16T06:23:55Z</time>
      </trkpt>
      <trkpt lat="45.77835" lon="4.8439">
        <ele>222.15523</ele>
        <time>2012-09-16T06:23:58Z</time>
      </trkpt>
      <trkpt lat="45.77815" lon="4.84378">
        <ele>221.93109</ele>
        <time>2012-09-16T06:24:01Z</time>
      </trkpt>
      <trkpt lat="45.77794" lon="4.84368">
        <ele>221.10997</ele>
        <time>2012-09-16T06:24:04Z</time>
      </trkpt>
      <trkpt lat="45.77775" lon="4.84362">
        <ele>220.83076</ele>
        <time>2012-09-16T06:24:07Z</time>
      </trkpt>
      <trkpt lat="45.77757" lon="4.84375">
        <ele>219.63165</ele>
        <time>2012-09-16T06:24:12Z</time>
      </trkpt>
      <trkpt lat="45.77751" lon="4.84399">
        <ele>219.69994</ele>
        <time>2012-09-16T06:24:16Z</time>
      </trkpt>
      <trkpt lat="45.77732" lon="4.84395">
        <ele>221.22604</ele>
        <time>2012-09-16T06:24:20Z</time>
      </trkpt>
      <trkpt lat="45.77713" lon="4.84389">
        <ele>222.55377</ele>
        <time>2012-09-16T06:24:24Z</time>
      </trkpt>
      <trkpt lat="45.77692" lon="4.84379">
        <ele>223.04462</ele>
        <time>2012-09-16T06:24:28Z</time>
      </trkpt>
      <trkpt lat="45.7767" lon="4.84373">
        <ele>223.86058</ele>
        <time>2012-09-16T06:24:33Z</time>
      </trkpt>
      <trkpt lat="45.77648" lon="4.84361">
        <ele>223.39677</ele>
        <time>2012-09-16T06:24:37Z</time>
      </trkpt>
      <trkpt lat="45.7763" lon="4.84351">
        <ele>223.43135</ele>
        <time>2012-09-16T06:24:40Z</time>
      </trkpt>
      <trkpt lat="45.77611" lon="4.84338">
        <ele>223.63815</ele>
        <time>2012-09-16T06:24:43Z</time>
      </trkpt>
      <trkpt lat="45.77591" lon="4.84324">
        <ele>223.78635</ele>
        <time>2012-09-16T06:24:46Z</time>
      </trkpt>
      <trkpt lat="45.77573" lon="4.8431">
        <ele>224.15204</ele>
        <time>2012-09-16T06:24:49Z</time>
      </trkpt>
      <trkpt lat="45.77555" lon="4.84296">
        <ele>224.57819</ele>
        <time>2012-09-16T06:24:52Z</time>
      </trkpt>
      <trkpt lat="45.77536" lon="4.84283">
        <ele>224.85014</ele>
        <time>2012-09-16T06:24:55Z</time>
      </trkpt>
      <trkpt lat="45.77516" lon="4.84268">
        <ele>224.943</ele>
        <time>2012-09-16T06:24:58Z</time>
      </trkpt>
      <trkpt lat="45.77495" lon="4.84254">
        <ele>225.1431</ele>
        <time>2012-09-16T06:25:01Z</time>
      </trkpt>
      <trkpt lat="45.77475" lon="4.8424">
        <ele>224.94005</ele>
        <time>2012-09-16T06:25:04Z</time>
      </trkpt>
      <trkpt lat="45.77455" lon="4.84225">
        <ele>224.73251</ele>
        <time>2012-09-16T06:25:07Z</time>
      </trkpt>
      <trkpt lat="45.77435" lon="4.8421">
        <ele>224.36371</ele>
        <time>2012-09-16T06:25:10Z</time>
      </trkpt>
      <trkpt lat="45.77416" lon="4.84196">
        <ele>223.79877</ele>
        <time>2012-09-16T06:25:13Z</time>
      </trkpt>
      <trkpt lat="45.77396" lon="4.84182">
        <ele>223.35571</ele>
        <time>2012-09-16T06:25:16Z</time>
      </trkpt>
      <trkpt lat="45.77377" lon="4.84167">
        <ele>223.23286</ele>
        <time>2012-09-16T06:25:19Z</time>
      </trkpt>
      <trkpt lat="45.77359" lon="4.84151">
        <ele>223.40916</ele>
        <time>2012-09-16T06:25:22Z</time>
      </trkpt>
      <trkpt lat="45.7734" lon="4.84136">
        <ele>223.71008</ele>
        <time>2012-09-16T06:25:25Z</time>
      </trkpt>
      <trkpt lat="45.77319" lon="4.84127">
        <ele>224.39174</ele>
        <time>2012-09-16T06:25:28Z</time>
      </trkpt>
      <trkpt lat="45.77299" lon="4.84118">
        <ele>224.98555</ele>
        <time>2012-09-16T06:25:31Z</time>
      </trkpt>
      <trkpt lat="45.7728" lon="4.84111">
        <ele>225.36574</ele>
        <time>2012-09-16T06:25:34Z</time>
      </trkpt>
      <trkpt lat="45.77259" lon="4.84109">
        <ele>225.6277</ele>
        <time>2012-09-16T06:25:37Z</time>
      </trkpt>
      <trkpt lat="45.77244" lon="4.84095">
        <ele>225.73512</ele>
        <time>2012-09-16T06:25:40Z</time>
      </trkpt>
      <trkpt lat="45.77244" lon="4.84068">
        <ele>226.08046</ele>
        <time>2012-09-16T06:25:43Z</time>
      </trkpt>
      <trkpt lat="45.77247" lon="4.84042">
        <ele>226.36214</ele>
        <time>2012-09-16T06:25:46Z</time>
      </trkpt>
      <trkpt lat="45.7725" lon="4.84009">
        <ele>226.5967</ele>
        <time>2012-09-16T06:25:50Z</time>
      </trkpt>
      <trkpt lat="45.77253" lon="4.83977">
        <ele>226.73613</ele>
        <time>2012-09-16T06:25:54Z</time>
      </trkpt>
      <trkpt lat="45.77256" lon="4.83944">
        <ele>227.01025</ele>
        <time>2012-09-16T06:25:58Z</time>
      </trkpt>
      <trkpt lat="45.77258" lon="4.83911">
        <ele>227.25168</ele>
        <time>2012-09-16T06:26:02Z</time>
      </trkpt>
      <trkpt lat="45.77259" lon="4.83884">
        <ele>227.26085</ele>
        <time>2012-09-16T06:26:05Z</time>
      </trkpt>
      <trkpt lat="45.77261" lon="4.83858">
        <ele>227.2444</ele>
        <time>2012-09-16T06:26:08Z</time>
      </trkpt>
      <trkpt lat="45.77266" lon="4.83831">
        <ele>227.19373</ele>
        <time>2012-09-16T06:26:11Z</time>
      </trkpt>
      <trkpt lat="45.77274" lon="4.83805">
        <ele>226.94421</ele>
        <time>2012-09-16T06:26:14Z</time>
      </trkpt>
      <trkpt lat="45.77279" lon="4.83773">
        <ele>226.58267</ele>
        <time>2012-09-16T06:26:17Z</time>
      </trkpt>
      <trkpt lat="45.77278" lon="4.83737">
        <ele>226.02852</ele>
        <time>2012-09-16T06:26:20Z</time>
      </trkpt>
      <trkpt lat="45.77274" lon="4.83711">
        <ele>225.79097</ele>
        <time>2012-09-16T06:26:22Z</time>
      </trkpt>
      <trkpt lat="45.77271" lon="4.83676">
        <ele>225.54614</ele>
        <time>2012-09-16T06:26:25Z</time>
      </trkpt>
      <trkpt lat="45.77274" lon="4.83649">
        <ele>225.50716</ele>
        <time>2012-09-16T06:26:27Z</time>
      </trkpt>
      <trkpt lat="45.77447" lon="4.81406">
        <ele>225.00537</ele>
        <time>2012-09-16T06:29:40Z</time>
      </trkpt>
      <trkpt lat="45.77453" lon="4.81372">
        <ele>225.09758</ele>
        <time>2012-09-16T06:29:43Z</time>
      </trkpt>
      <trkpt lat="45.77456" lon="4.81337">
        <ele>226.13805</ele>
        <time>2012-09-16T06:29:46Z</time>
      </trkpt>
      <trkpt lat="45.77459" lon="4.81302">
        <ele>227.43169</ele>
        <time>2012-09-16T06:29:49Z</time>
      </trkpt>
      <trkpt lat="45.77463" lon="4.81268">
        <ele>227.7743</ele>
        <time>2012-09-16T06:29:52Z</time>
      </trkpt>
      <trkpt lat="45.77466" lon="4.81234">
        <ele>227.50635</ele>
        <time>2012-09-16T06:29:55Z</time>
      </trkpt>
      <trkpt lat="45.77471" lon="4.81201">
        <ele>226.93393</ele>
        <time>2012-09-16T06:29:58Z</time>
      </trkpt>
      <trkpt lat="45.77474" lon="4.81166">
        <ele>226.56743</ele>
        <time>2012-09-16T06:30:01Z</time>
      </trkpt>
      <trkpt lat="45.77478" lon="4.81134">
        <ele>225.62376</ele>
        <time>2012-09-16T06:30:04Z</time>
      </trkpt>
      <trkpt lat="45.77482" lon="4.81101">
        <ele>225.22409</ele>
        <time>2012-09-16T06:30:07Z</time>
      </trkpt>
      <trkpt lat="45.77491" lon="4.81072">
        <ele>225.1961</ele>
        <time>2012-09-16T06:30:10Z</time>
      </trkpt>
      <trkpt lat="45.77507" lon="4.81053">
        <ele>225.14992</ele>
        <time>2012-09-16T06:30:13Z</time>
      </trkpt>
      <trkpt lat="45.77532" lon="4.81047">
        <ele>223.68825</ele>
        <time>2012-09-16T06:30:16Z</time>
      </trkpt>
      <trkpt lat="45.77552" lon="4.81038">
        <ele>222.42317</ele>
        <time>2012-09-16T06:30:19Z</time>
      </trkpt>
      <trkpt lat="45.77528" lon="4.81037">
        <ele>219.4924</ele>
        <time>2012-09-16T06:30:24Z</time>
      </trkpt>
      <trkpt lat="45.77507" lon="4.81044">
        <ele>218.00775</ele>
        <time>2012-09-16T06:30:27Z</time>
      </trkpt>
      <trkpt lat="45.77485" lon="4.81055">
        <ele>217.39233</ele>
        <time>2012-09-16T06:30:30Z</time>
      </trkpt>
      <trkpt lat="45.77462" lon="4.81065">
        <ele>216.8249</ele>
        <time>2012-09-16T06:30:33Z</time>
      </trkpt>
      <trkpt lat="45.77441" lon="4.81077">
        <ele>216.71051</ele>
        <time>2012-09-16T06:30:36Z</time>
      </trkpt>
      <trkpt lat="45.77423" lon="4.81092">
        <ele>216.97475</ele>
        <time>2012-09-16T06:30:39Z</time>
      </trkpt>
      <trkpt lat="45.77407" lon="4.8111">
        <ele>217.20341</ele>
        <time>2012-09-16T06:30:42Z</time>
      </trkpt>
      <trkpt lat="45.77393" lon="4.81136">
        <ele>216.8577</ele>
        <time>2012-09-16T06:30:45Z</time>
      </trkpt>
      <trkpt lat="45.77379" lon="4.81162">
        <ele>217.06027</ele>
        <time>2012-09-16T06:30:48Z</time>
      </trkpt>
      <trkpt lat="45.77366" lon="4.81189">
        <ele>217.27856</ele>
        <time>2012-09-16T06:30:51Z</time>
      </trkpt>
      <trkpt lat="45.77351" lon="4.81215">
        <ele>218.12221</ele>
        <time>2012-09-16T06:30:54Z</time>
      </trkpt>
      <trkpt lat="45.77336" lon="4.8124">
        <ele>218.76874</ele>
        <time>2012-09-16T06:30:57Z</time>
      </trkpt>
      <trkpt lat="45.77322" lon="4.81263">
        <ele>219.61807</ele>
        <time>2012-09-16T06:31:00Z</time>
      </trkpt>
      <trkpt lat="45.77305" lon="4.81279">
        <ele>220.51855</ele>
        <time>2012-09-16T06:31:03Z</time>
      </trkpt>
      <trkpt lat="45.77284" lon="4.81298">
        <ele>222.3547</ele>
        <time>2012-09-16T06:31:06Z</time>
      </trkpt>
      <trkpt lat="45.77264" lon="4.81311">
        <ele>224.6184</ele>
        <time>2012-09-16T06:31:09Z</time>
      </trkpt>
      <trkpt lat="45.77243" lon="4.81325">
        <ele>226.74995</ele>
        <time>2012-09-16T06:31:12Z</time>
      </trkpt>
      <trkpt lat="45.77223" lon="4.81342">
        <ele>227.58826</ele>
        <time>2012-09-16T06:31:15Z</time>
      </trkpt>
      <trkpt lat="45.77202" lon="4.81354">
        <ele>227.41537</ele>
        <time>2012-09-16T06:31:18Z</time>
      </trkpt>
      <trkpt lat="45.7718" lon="4.81364">
        <ele>226.71117</ele>
        <time>2012-09-16T06:31:21Z</time>
      </trkpt>
      <trkpt lat="45.77157" lon="4.81374">
        <ele>226.19066</ele>
        <time>2012-09-16T06:31:24Z</time>
      </trkpt>
      <trkpt lat="45.77133" lon="4.81384">
        <ele>225.80856</ele>
        <time>2012-09-16T06:31:27Z</time>
      </trkpt>
      <trkpt lat="45.7711" lon="4.81392">
        <ele>225.77548</ele>
        <time>2012-09-16T06:31:30Z</time>
      </trkpt>
      <trkpt lat="45.77087" lon="4.81397">
        <ele>225.95372</ele>
        <time>2012-09-16T06:31:33Z</time>
      </trkpt>
      <trkpt lat="45.77065" lon="4.81403">
        <ele>225.7086</ele>
        <time>2012-09-16T06:31:36Z</time>
      </trkpt>
      <trkpt lat="45.77043" lon="4.81409">
        <ele>225.29112</ele>
        <time>2012-09-16T06:31:39Z</time>
      </trkpt>
      <trkpt lat="45.77029" lon="4.8139">
        <ele>224.1927</ele>
        <time>2012-09-16T06:31:44Z</time>
      </trkpt>
      <trkpt lat="45.77023" lon="4.81361">
        <ele>223.54808</ele>
        <time>2012-09-16T06:31:48Z</time>
      </trkpt>
      <trkpt lat="45.77018" lon="4.81332">
        <ele>223.42812</ele>
        <time>2012-09-16T06:31:52Z</time>
      </trkpt>
      <trkpt lat="45.77012" lon="4.81304">
        <ele>223.50186</ele>
        <time>2012-09-16T06:31:56Z</time>
      </trkpt>
      <trkpt lat="45.77006" lon="4.81272">
        <ele>223.717</ele>
        <time>2012-09-16T06:32:00Z</time>
      </trkpt>
      <trkpt lat="45.76985" lon="4.81262">
        <ele>223.83168</ele>
        <time>2012-09-16T06:32:05Z</time>
      </trkpt>
      <trkpt lat="45.76967" lon="4.81267">
        <ele>223.7618</ele>
        <time>2012-09-16T06:32:08Z</time>
      </trkpt>
      <trkpt lat="45.76947" lon="4.81271">
        <ele>223.86514</ele>
        <time>2012-09-16T06:32:11Z</time>
      </trkpt>
      <trkpt lat="45.76924" lon="4.81276">
        <ele>224.28061</ele>
        <time>2012-09-16T06:32:14Z</time>
      </trkpt>
      <trkpt lat="45.76899" lon="4.81279">
        <ele>224.15431</ele>
        <time>2012-09-16T06:32:17Z</time>
      </trkpt>
      <trkpt lat="45.76876" lon="4.81279">
        <ele>223.94946</ele>
        <time>2012-09-16T06:32:20Z</time>
      </trkpt>
      <trkpt lat="45.76854" lon="4.81285">
        <ele>223.83025</ele>
        <time>2012-09-16T06:32:23Z</time>
      </trkpt>
      <trkpt lat="45.76832" lon="4.81297">
        <ele>223.79869</ele>
        <time>2012-09-16T06:32:26Z</time>
      </trkpt>
      <trkpt lat="45.76811" lon="4.81312">
        <ele>223.60414</ele>
        <time>2012-09-16T06:32:29Z</time>
      </trkpt>
      <trkpt lat="45.76794" lon="4.81331">
        <ele>223.29466</ele>
        <time>2012-09-16T06:32:33Z</time>
      </trkpt>
      <trkpt lat="45.76778" lon="4.8131">
        <ele>223.00806</ele>
        <time>2012-09-16T06:32:41Z</time>
      </trkpt>
      <trkpt lat="45.76765" lon="4.8129">
        <ele>223.21431</ele>
        <time>2012-09-16T06:32:46Z</time>
      </trkpt>
      <trkpt lat="45.76749" lon="4.81268">
        <ele>224.3304</ele>
        <time>2012-09-16T06:32:52Z</time>
      </trkpt>
      <trkpt lat="45.76736" lon="4.81245">
        <ele>225.56747</ele>
        <time>2012-09-16T06:32:58Z</time>
      </trkpt>
      <trkpt lat="45.76738" lon="4.81215">
        <ele>226.56848</ele>
        <time>2012-09-16T06:33:04Z</time>
      </trkpt>
      <trkpt lat="45.76752" lon="4.81191">
        <ele>228.47598</ele>
        <time>2012-09-16T06:33:11Z</time>
      </trkpt>
      <trkpt lat="45.76769" lon="4.81177">
        <ele>229.3924</ele>
        <time>2012-09-16T06:33:15Z</time>
      </trkpt>
      <trkpt lat="45.76787" lon="4.81163">
        <ele>231.18285</ele>
        <time>2012-09-16T06:33:22Z</time>
      </trkpt>
      <trkpt lat="45.76805" lon="4.81152">
        <ele>232.41742</ele>
        <time>2012-09-16T06:33:27Z</time>
      </trkpt>
      <trkpt lat="45.7682" lon="4.81133">
        <ele>235.91876</ele>
        <time>2012-09-16T06:33:42Z</time>
      </trkpt>
      <trkpt lat="45.76816" lon="4.81105">
        <ele>236.37944</ele>
        <time>2012-09-16T06:33:48Z</time>
      </trkpt>
      <trkpt lat="45.76797" lon="4.81116">
        <ele>241.90111</ele>
        <time>2012-09-16T06:33:56Z</time>
      </trkpt>
      <trkpt lat="45.76778" lon="4.81127">
        <ele>243.8033</ele>
        <time>2012-09-16T06:34:03Z</time>
      </trkpt>
      <trkpt lat="45.76759" lon="4.81134">
        <ele>244.86346</ele>
        <time>2012-09-16T06:34:10Z</time>
      </trkpt>
      <trkpt lat="45.76741" lon="4.81144">
        <ele>245.9385</ele>
        <time>2012-09-16T06:34:17Z</time>
      </trkpt>
      <trkpt lat="45.76726" lon="4.81165">
        <ele>247.67125</ele>
        <time>2012-09-16T06:34:24Z</time>
      </trkpt>
      <trkpt lat="45.7672" lon="4.8119">
        <ele>253.348</ele>
        <time>2012-09-16T06:34:30Z</time>
      </trkpt>
      <trkpt lat="45.76706" lon="4.8121">
        <ele>260.15195</ele>
        <time>2012-09-16T06:34:37Z</time>
      </trkpt>
      <trkpt lat="45.76686" lon="4.81209">
        <ele>264.25397</ele>
        <time>2012-09-16T06:34:43Z</time>
      </trkpt>
      <trkpt lat="45.76673" lon="4.81188">
        <ele>266.5836</ele>
        <time>2012-09-16T06:34:49Z</time>
      </trkpt>
      <trkpt lat="45.76671" lon="4.81161">
        <ele>268.1403</ele>
        <time>2012-09-16T06:34:55Z</time>
      </trkpt>
      <trkpt lat="45.76679" lon="4.81135">
        <ele>270.51636</ele>
        <time>2012-09-16T06:35:02Z</time>
      </trkpt>
      <trkpt lat="45.76695" lon="4.81118">
        <ele>272.55243</ele>
        <time>2012-09-16T06:35:08Z</time>
      </trkpt>
      <trkpt lat="45.76709" lon="4.811">
        <ele>274.63568</ele>
        <time>2012-09-16T06:35:15Z</time>
      </trkpt>
      <trkpt lat="45.76727" lon="4.81084">
        <ele>277.32117</ele>
        <time>2012-09-16T06:35:20Z</time>
      </trkpt>
      <trkpt lat="45.76745" lon="4.81072">
        <ele>279.3195</ele>
        <time>2012-09-16T06:35:26Z</time>
      </trkpt>
      <trkpt lat="45.76762" lon="4.81063">
        <ele>278.04587</ele>
        <time>2012-09-16T06:35:32Z</time>
      </trkpt>
      <trkpt lat="45.76782" lon="4.81049">
        <ele>277.37183</ele>
        <time>2012-09-16T06:35:37Z</time>
      </trkpt>
      <trkpt lat="45.76799" lon="4.81038">
        <ele>279.12598</ele>
        <time>2012-09-16T06:35:44Z</time>
      </trkpt>
      <trkpt lat="45.76816" lon="4.8103">
        <ele>281.44583</ele>
        <time>2012-09-16T06:35:52Z</time>
      </trkpt>
      <trkpt lat="45.76836" lon="4.81028">
        <ele>281.98904</ele>
        <time>2012-09-16T06:36:01Z</time>
      </trkpt>
      <trkpt lat="45.76856" lon="4.81025">
        <ele>282.4978</ele>
        <time>2012-09-16T06:36:06Z</time>
      </trkpt>
      <trkpt lat="45.76874" lon="4.81031">
        <ele>283.73404</ele>
        <time>2012-09-16T06:36:11Z</time>
      </trkpt>
      <trkpt lat="45.76895" lon="4.81033">
        <ele>283.92526</ele>
        <time>2012-09-16T06:36:16Z</time>
      </trkpt>
      <trkpt lat="45.76913" lon="4.81028">
        <ele>283.4127</ele>
        <time>2012-09-16T06:36:20Z</time>
      </trkpt>
      <trkpt lat="45.7693" lon="4.81012">
        <ele>283.6663</ele>
        <time>2012-09-16T06:36:26Z</time>
      </trkpt>
      <trkpt lat="45.76953" lon="4.81011">
        <ele>284.2001</ele>
        <time>2012-09-16T06:36:31Z</time>
      </trkpt>
      <trkpt lat="45.76977" lon="4.81007">
        <ele>283.97308</ele>
        <time>2012-09-16T06:36:35Z</time>
      </trkpt>
      <trkpt lat="45.76998" lon="4.80999">
        <ele>282.96832</ele>
        <time>2012-09-16T06:36:38Z</time>
      </trkpt>
      <trkpt lat="45.77008" lon="4.80968">
        <ele>281.27414</ele>
        <time>2012-09-16T06:36:41Z</time>
      </trkpt>
      <trkpt lat="45.76994" lon="4.8094">
        <ele>279.67657</ele>
        <time>2012-09-16T06:36:44Z</time>
      </trkpt>
      <trkpt lat="45.76999" lon="4.80914">
        <ele>278.162</ele>
        <time>2012-09-16T06:36:47Z</time>
      </trkpt>
      <trkpt lat="45.77022" lon="4.80921">
        <ele>276.78085</ele>
        <time>2012-09-16T06:36:50Z</time>
      </trkpt>
      <trkpt lat="45.77046" lon="4.80934">
        <ele>274.96222</ele>
        <time>2012-09-16T06:36:53Z</time>
      </trkpt>
      <trkpt lat="45.77068" lon="4.80942">
        <ele>273.65125</ele>
        <time>2012-09-16T06:36:56Z</time>
      </trkpt>
      <trkpt lat="45.77073" lon="4.80968">
        <ele>271.2399</ele>
        <time>2012-09-16T06:37:03Z</time>
      </trkpt>
      <trkpt lat="45.77066" lon="4.80993">
        <ele>269.89117</ele>
        <time>2012-09-16T06:37:14Z</time>
      </trkpt>
      <trkpt lat="45.77081" lon="4.81007">
        <ele>268.77933</ele>
        <time>2012-09-16T06:37:24Z</time>
      </trkpt>
      <trkpt lat="45.77099" lon="4.81014">
        <ele>270.17578</ele>
        <time>2012-09-16T06:37:40Z</time>
      </trkpt>
      <trkpt lat="45.77117" lon="4.81005">
        <ele>271.48026</ele>
        <time>2012-09-16T06:37:45Z</time>
      </trkpt>
      <trkpt lat="45.77136" lon="4.80987">
        <ele>270.97266</ele>
        <time>2012-09-16T06:37:51Z</time>
      </trkpt>
      <trkpt lat="45.77151" lon="4.8097">
        <ele>265.91943</ele>
        <time>2012-09-16T06:37:57Z</time>
      </trkpt>
      <trkpt lat="45.77174" lon="4.80973">
        <ele>263.5795</ele>
        <time>2012-09-16T06:38:01Z</time>
      </trkpt>
      <trkpt lat="45.77197" lon="4.80973">
        <ele>262.14438</ele>
        <time>2012-09-16T06:38:04Z</time>
      </trkpt>
      <trkpt lat="45.77215" lon="4.80972">
        <ele>261.53116</ele>
        <time>2012-09-16T06:38:06Z</time>
      </trkpt>
      <trkpt lat="45.77234" lon="4.80968">
        <ele>261.0862</ele>
        <time>2012-09-16T06:38:08Z</time>
      </trkpt>
      <trkpt lat="45.77254" lon="4.80956">
        <ele>260.7047</ele>
        <time>2012-09-16T06:38:10Z</time>
      </trkpt>
      <trkpt lat="45.77263" lon="4.80928">
        <ele>259.7379</ele>
        <time>2012-09-16T06:38:13Z</time>
      </trkpt>
      <trkpt lat="45.77249" lon="4.80904">
        <ele>258.08167</ele>
        <time>2012-09-16T06:38:16Z</time>
      </trkpt>
      <trkpt lat="45.77222" lon="4.80911">
        <ele>256.26736</ele>
        <time>2012-09-16T06:38:19Z</time>
      </trkpt>
      <trkpt lat="45.77198" lon="4.80921">
        <ele>255.19414</ele>
        <time>2012-09-16T06:38:21Z</time>
      </trkpt>
      <trkpt lat="45.77177" lon="4.80925">
        <ele>254.3342</ele>
        <time>2012-09-16T06:38:23Z</time>
      </trkpt>
      <trkpt lat="45.77156" lon="4.80924">
        <ele>253.32547</ele>
        <time>2012-09-16T06:38:25Z</time>
      </trkpt>
      <trkpt lat="45.77136" lon="4.80919">
        <ele>251.77684</ele>
        <time>2012-09-16T06:38:27Z</time>
      </trkpt>
      <trkpt lat="45.77113" lon="4.80905">
        <ele>249.5996</ele>
        <time>2012-09-16T06:38:30Z</time>
      </trkpt>
      <trkpt lat="45.77111" lon="4.80879">
        <ele>247.53659</ele>
        <time>2012-09-16T06:38:34Z</time>
      </trkpt>
      <trkpt lat="45.77093" lon="4.80886">
        <ele>246.89319</ele>
        <time>2012-09-16T06:38:46Z</time>
      </trkpt>
      <trkpt lat="45.77075" lon="4.80896">
        <ele>251.47127</ele>
        <time>2012-09-16T06:38:57Z</time>
      </trkpt>
      <trkpt lat="45.77056" lon="4.809">
        <ele>255.66116</ele>
        <time>2012-09-16T06:39:12Z</time>
      </trkpt>
      <trkpt lat="45.77037" lon="4.80904">
        <ele>258.34982</ele>
        <time>2012-09-16T06:39:43Z</time>
      </trkpt>
      <trkpt lat="45.77018" lon="4.80908">
        <ele>263.193</ele>
        <time>2012-09-16T06:39:49Z</time>
      </trkpt>
      <trkpt lat="45.77" lon="4.80908">
        <ele>264.72168</ele>
        <time>2012-09-16T06:39:58Z</time>
      </trkpt>
      <trkpt lat="45.76981" lon="4.80908">
        <ele>268.99448</ele>
        <time>2012-09-16T06:40:07Z</time>
      </trkpt>
      <trkpt lat="45.76965" lon="4.80921">
        <ele>277.10547</ele>
        <time>2012-09-16T06:40:18Z</time>
      </trkpt>
      <trkpt lat="45.76946" lon="4.80916">
        <ele>282.27487</ele>
        <time>2012-09-16T06:40:58Z</time>
      </trkpt>
      <trkpt lat="45.7693" lon="4.80931">
        <ele>286.67395</ele>
        <time>2012-09-16T06:41:06Z</time>
      </trkpt>
      <trkpt lat="45.76921" lon="4.80955">
        <ele>289.14352</ele>
        <time>2012-09-16T06:41:12Z</time>
      </trkpt>
      <trkpt lat="45.76907" lon="4.80973">
        <ele>288.97543</ele>
        <time>2012-09-16T06:41:18Z</time>
      </trkpt>
      <trkpt lat="45.76889" lon="4.80968">
        <ele>288.15744</ele>
        <time>2012-09-16T06:41:24Z</time>
      </trkpt>
      <trkpt lat="45.76868" lon="4.80965">
        <ele>288.12842</ele>
        <time>2012-09-16T06:41:31Z</time>
      </trkpt>
      <trkpt lat="45.7685" lon="4.80963">
        <ele>288.4013</ele>
        <time>2012-09-16T06:41:38Z</time>
      </trkpt>
      <trkpt lat="45.76831" lon="4.80964">
        <ele>289.22354</ele>
        <time>2012-09-16T06:41:45Z</time>
      </trkpt>
      <trkpt lat="45.76811" lon="4.80958">
        <ele>291.63806</ele>
        <time>2012-09-16T06:41:52Z</time>
      </trkpt>
      <trkpt lat="45.76792" lon="4.80954">
        <ele>293.26968</ele>
        <time>2012-09-16T06:41:59Z</time>
      </trkpt>
      <trkpt lat="45.76773" lon="4.80951">
        <ele>293.9599</ele>
        <time>2012-09-16T06:42:06Z</time>
      </trkpt>
      <trkpt lat="45.76752" lon="4.80952">
        <ele>295.79907</ele>
        <time>2012-09-16T06:42:13Z</time>
      </trkpt>
      <trkpt lat="45.76734" lon="4.80952">
        <ele>299.61453</ele>
        <time>2012-09-16T06:42:19Z</time>
      </trkpt>
      <trkpt lat="45.76713" lon="4.80949">
        <ele>305.11337</ele>
        <time>2012-09-16T06:42:26Z</time>
      </trkpt>
      <trkpt lat="45.76694" lon="4.80949">
        <ele>309.64957</ele>
        <time>2012-09-16T06:42:33Z</time>
      </trkpt>
      <trkpt lat="45.76674" lon="4.80951">
        <ele>312.38412</ele>
        <time>2012-09-16T06:42:41Z</time>
      </trkpt>
      <trkpt lat="45.76655" lon="4.8096">
        <ele>314.97522</ele>
        <time>2012-09-16T06:42:48Z</time>
      </trkpt>
      <trkpt lat="45.76639" lon="4.80972">
        <ele>314.5628</ele>
        <time>2012-09-16T06:42:55Z</time>
      </trkpt>
      <trkpt lat="45.76623" lon="4.80985">
        <ele>314.94083</ele>
        <time>2012-09-16T06:43:01Z</time>
      </trkpt>
      <trkpt lat="45.76607" lon="4.80998">
        <ele>317.02023</ele>
        <time>2012-09-16T06:43:07Z</time>
      </trkpt>
      <trkpt lat="45.76591" lon="4.81015">
        <ele>319.81808</ele>
        <time>2012-09-16T06:43:14Z</time>
      </trkpt>
      <trkpt lat="45.76573" lon="4.81031">
        <ele>323.08594</ele>
        <time>2012-09-16T06:43:21Z</time>
      </trkpt>
      <trkpt lat="45.76557" lon="4.81046">
        <ele>324.98782</ele>
        <time>2012-09-16T06:43:27Z</time>
      </trkpt>
      <trkpt lat="45.76543" lon="4.81064">
        <ele>327.89804</ele>
        <time>2012-09-16T06:43:35Z</time>
      </trkpt>
      <trkpt lat="45.76527" lon="4.81081">
        <ele>330.86435</ele>
        <time>2012-09-16T06:43:42Z</time>
      </trkpt>
      <trkpt lat="45.76516" lon="4.81101">
        <ele>331.85352</ele>
        <time>2012-09-16T06:43:51Z</time>
      </trkpt>
      <trkpt lat="45.76509" lon="4.81127">
        <ele>333.10577</ele>
        <time>2012-09-16T06:43:58Z</time>
      </trkpt>
      <trkpt lat="45.76495" lon="4.81146">
        <ele>333.31485</ele>
        <time>2012-09-16T06:44:03Z</time>
      </trkpt>
      <trkpt lat="45.76485" lon="4.81168">
        <ele>333.07712</ele>
        <time>2012-09-16T06:44:09Z</time>
      </trkpt>
      <trkpt lat="45.76478" lon="4.81194">
        <ele>332.87704</ele>
        <time>2012-09-16T06:44:15Z</time>
      </trkpt>
      <trkpt lat="45.76469" lon="4.81218">
        <ele>334.13446</ele>
        <time>2012-09-16T06:44:23Z</time>
      </trkpt>
      <trkpt lat="45.76453" lon="4.81239">
        <ele>335.2677</ele>
        <time>2012-09-16T06:44:30Z</time>
      </trkpt>
      <trkpt lat="45.76438" lon="4.81258">
        <ele>335.2113</ele>
        <time>2012-09-16T06:44:37Z</time>
      </trkpt>
      <trkpt lat="45.76424" lon="4.81274">
        <ele>333.7232</ele>
        <time>2012-09-16T06:44:43Z</time>
      </trkpt>
      <trkpt lat="45.76406" lon="4.81289">
        <ele>332.95868</ele>
        <time>2012-09-16T06:44:50Z</time>
      </trkpt>
      <trkpt lat="45.7639" lon="4.81303">
        <ele>333.54367</ele>
        <time>2012-09-16T06:44:56Z</time>
      </trkpt>
      <trkpt lat="45.76374" lon="4.81318">
        <ele>335.2249</ele>
        <time>2012-09-16T06:45:03Z</time>
      </trkpt>
      <trkpt lat="45.76353" lon="4.81323">
        <ele>336.29163</ele>
        <time>2012-09-16T06:45:10Z</time>
      </trkpt>
      <trkpt lat="45.76332" lon="4.81323">
        <ele>338.6807</ele>
        <time>2012-09-16T06:45:17Z</time>
      </trkpt>
      <trkpt lat="45.76311" lon="4.81319">
        <ele>341.0115</ele>
        <time>2012-09-16T06:45:24Z</time>
      </trkpt>
      <trkpt lat="45.76293" lon="4.81317">
        <ele>342.8465</ele>
        <time>2012-09-16T06:45:30Z</time>
      </trkpt>
      <trkpt lat="45.76289" lon="4.81344">
        <ele>342.07144</ele>
        <time>2012-09-16T06:45:40Z</time>
      </trkpt>
      <trkpt lat="45.76287" lon="4.81371">
        <ele>341.06876</ele>
        <time>2012-09-16T06:49:20Z</time>
      </trkpt>
      <trkpt lat="45.76293" lon="4.814">
        <ele>342.27432</ele>
        <time>2012-09-16T06:49:27Z</time>
      </trkpt>
      <trkpt lat="45.76301" lon="4.81425">
        <ele>340.90045</ele>
        <time>2012-09-16T06:49:31Z</time>
      </trkpt>
      <trkpt lat="45.7631" lon="4.81454">
        <ele>340.08527</ele>
        <time>2012-09-16T06:49:35Z</time>
      </trkpt>
      <trkpt lat="45.76318" lon="4.81478">
        <ele>340.09845</ele>
        <time>2012-09-16T06:49:38Z</time>
      </trkpt>
      <trkpt lat="45.76331" lon="4.81501">
        <ele>339.578</ele>
        <time>2012-09-16T06:49:42Z</time>
      </trkpt>
      <trkpt lat="45.76341" lon="4.81523">
        <ele>338.19733</ele>
        <time>2012-09-16T06:49:46Z</time>
      </trkpt>
      <trkpt lat="45.76346" lon="4.81559">
        <ele>336.7476</ele>
        <time>2012-09-16T06:49:52Z</time>
      </trkpt>
      <trkpt lat="45.76351" lon="4.81588">
        <ele>336.19666</ele>
        <time>2012-09-16T06:49:55Z</time>
      </trkpt>
      <trkpt lat="45.76362" lon="4.81609">
        <ele>332.8818</ele>
        <time>2012-09-16T06:50:01Z</time>
      </trkpt>
      <trkpt lat="45.76381" lon="4.81618">
        <ele>326.89722</ele>
        <time>2012-09-16T06:50:13Z</time>
      </trkpt>
      <trkpt lat="45.7639" lon="4.81592">
        <ele>324.13107</ele>
        <time>2012-09-16T06:50:18Z</time>
      </trkpt>
      <trkpt lat="45.76407" lon="4.81602">
        <ele>321.24115</ele>
        <time>2012-09-16T06:50:23Z</time>
      </trkpt>
      <trkpt lat="45.764" lon="4.81628">
        <ele>319.44238</ele>
        <time>2012-09-16T06:50:26Z</time>
      </trkpt>
      <trkpt lat="45.76417" lon="4.81644">
        <ele>311.90775</ele>
        <time>2012-09-16T06:50:45Z</time>
      </trkpt>
      <trkpt lat="45.76432" lon="4.8166">
        <ele>308.8066</ele>
        <time>2012-09-16T06:50:55Z</time>
      </trkpt>
      <trkpt lat="45.76443" lon="4.81632">
        <ele>306.98138</ele>
        <time>2012-09-16T06:50:59Z</time>
      </trkpt>
      <trkpt lat="45.76462" lon="4.81628">
        <ele>303.84528</ele>
        <time>2012-09-16T06:51:03Z</time>
      </trkpt>
      <trkpt lat="45.76481" lon="4.81641">
        <ele>301.1707</ele>
        <time>2012-09-16T06:51:06Z</time>
      </trkpt>
      <trkpt lat="45.76495" lon="4.81659">
        <ele>297.75952</ele>
        <time>2012-09-16T06:51:09Z</time>
      </trkpt>
      <trkpt lat="45.76514" lon="4.81682">
        <ele>292.46533</ele>
        <time>2012-09-16T06:51:13Z</time>
      </trkpt>
      <trkpt lat="45.76531" lon="4.81694">
        <ele>288.44318</ele>
        <time>2012-09-16T06:51:16Z</time>
      </trkpt>
      <trkpt lat="45.76549" lon="4.81699">
        <ele>281.0671</ele>
        <time>2012-09-16T06:51:23Z</time>
      </trkpt>
      <trkpt lat="45.76537" lon="4.81723">
        <ele>277.61826</ele>
        <time>2012-09-16T06:51:28Z</time>
      </trkpt>
      <trkpt lat="45.76553" lon="4.8171">
        <ele>274.90912</ele>
        <time>2012-09-16T06:51:33Z</time>
      </trkpt>
      <trkpt lat="45.76545" lon="4.81738">
        <ele>272.37708</ele>
        <time>2012-09-16T06:51:42Z</time>
      </trkpt>
      <trkpt lat="45.76536" lon="4.8176">
        <ele>271.48566</ele>
        <time>2012-09-16T06:51:45Z</time>
      </trkpt>
      <trkpt lat="45.76525" lon="4.81789">
        <ele>271.04858</ele>
        <time>2012-09-16T06:51:49Z</time>
      </trkpt>
      <trkpt lat="45.76522" lon="4.81815">
        <ele>270.70953</ele>
        <time>2012-09-16T06:51:53Z</time>
      </trkpt>
      <trkpt lat="45.76519" lon="4.81842">
        <ele>271.01004</ele>
        <time>2012-09-16T06:51:57Z</time>
      </trkpt>
      <trkpt lat="45.76517" lon="4.81869">
        <ele>271.49615</ele>
        <time>2012-09-16T06:52:01Z</time>
      </trkpt>
      <trkpt lat="45.76515" lon="4.81897">
        <ele>271.9812</ele>
        <time>2012-09-16T06:52:05Z</time>
      </trkpt>
      <trkpt lat="45.76512" lon="4.81931">
        <ele>272.6339</ele>
        <time>2012-09-16T06:52:09Z</time>
      </trkpt>
      <trkpt lat="45.76507" lon="4.81966">
        <ele>273.10022</ele>
        <time>2012-09-16T06:52:12Z</time>
      </trkpt>
      <trkpt lat="45.76503" lon="4.81994">
        <ele>272.31262</ele>
        <time>2012-09-16T06:52:14Z</time>
      </trkpt>
      <trkpt lat="45.76502" lon="4.8202">
        <ele>271.2821</ele>
        <time>2012-09-16T06:52:16Z</time>
      </trkpt>
      <trkpt lat="45.76515" lon="4.82043">
        <ele>269.97995</ele>
        <time>2012-09-16T06:52:19Z</time>
      </trkpt>
      <trkpt lat="45.76527" lon="4.82063">
        <ele>270.01343</ele>
        <time>2012-09-16T06:52:22Z</time>
      </trkpt>
      <trkpt lat="45.7654" lon="4.82086">
        <ele>270.81204</ele>
        <time>2012-09-16T06:52:26Z</time>
      </trkpt>
      <trkpt lat="45.76551" lon="4.82107">
        <ele>271.03622</ele>
        <time>2012-09-16T06:52:30Z</time>
      </trkpt>
      <trkpt lat="45.76569" lon="4.82125">
        <ele>271.69034</ele>
        <time>2012-09-16T06:52:35Z</time>
      </trkpt>
      <trkpt lat="45.76589" lon="4.82129">
        <ele>272.07623</ele>
        <time>2012-09-16T06:52:39Z</time>
      </trkpt>
      <trkpt lat="45.7661" lon="4.82139">
        <ele>272.78076</ele>
        <time>2012-09-16T06:52:43Z</time>
      </trkpt>
      <trkpt lat="45.76627" lon="4.82154">
        <ele>273.05127</ele>
        <time>2012-09-16T06:52:46Z</time>
      </trkpt>
      <trkpt lat="45.76634" lon="4.82184">
        <ele>273.07324</ele>
        <time>2012-09-16T06:52:50Z</time>
      </trkpt>
      <trkpt lat="45.76631" lon="4.82214">
        <ele>273.17935</ele>
        <time>2012-09-16T06:52:53Z</time>
      </trkpt>
      <trkpt lat="45.76631" lon="4.82243">
        <ele>273.63504</ele>
        <time>2012-09-16T06:52:56Z</time>
      </trkpt>
      <trkpt lat="45.7663" lon="4.82272">
        <ele>273.70853</ele>
        <time>2012-09-16T06:52:59Z</time>
      </trkpt>
      <trkpt lat="45.76624" lon="4.82298">
        <ele>273.40985</ele>
        <time>2012-09-16T06:53:02Z</time>
      </trkpt>
      <trkpt lat="45.76619" lon="4.82326">
        <ele>273.40103</ele>
        <time>2012-09-16T06:53:05Z</time>
      </trkpt>
      <trkpt lat="45.76613" lon="4.82356">
        <ele>273.51294</ele>
        <time>2012-09-16T06:53:08Z</time>
      </trkpt>
      <trkpt lat="45.76611" lon="4.82386">
        <ele>273.6742</ele>
        <time>2012-09-16T06:53:11Z</time>
      </trkpt>
      <trkpt lat="45.76617" lon="4.8242">
        <ele>270.42975</ele>
        <time>2012-09-16T06:53:14Z</time>
      </trkpt>
      <trkpt lat="45.76615" lon="4.82454">
        <ele>268.17426</ele>
        <time>2012-09-16T06:53:18Z</time>
      </trkpt>
      <trkpt lat="45.76612" lon="4.82483">
        <ele>267.51257</ele>
        <time>2012-09-16T06:53:21Z</time>
      </trkpt>
      <trkpt lat="45.76609" lon="4.8251">
        <ele>267.74127</ele>
        <time>2012-09-16T06:53:24Z</time>
      </trkpt>
      <trkpt lat="45.76597" lon="4.82533">
        <ele>269.20477</ele>
        <time>2012-09-16T06:53:31Z</time>
      </trkpt>
      <trkpt lat="45.76594" lon="4.82563">
        <ele>271.31708</ele>
        <time>2012-09-16T06:53:41Z</time>
      </trkpt>
      <trkpt lat="45.76585" lon="4.82586">
        <ele>269.16934</ele>
        <time>2012-09-16T06:53:48Z</time>
      </trkpt>
      <trkpt lat="45.76588" lon="4.82613">
        <ele>266.28085</ele>
        <time>2012-09-16T06:53:55Z</time>
      </trkpt>
      <trkpt lat="45.76597" lon="4.82646">
        <ele>264.26346</ele>
        <time>2012-09-16T06:53:59Z</time>
      </trkpt>
      <trkpt lat="45.76599" lon="4.82672">
        <ele>262.90622</ele>
        <time>2012-09-16T06:54:08Z</time>
      </trkpt>
      <trkpt lat="45.76579" lon="4.82685">
        <ele>259.1962</ele>
        <time>2012-09-16T06:54:13Z</time>
      </trkpt>
      <trkpt lat="45.7656" lon="4.82693">
        <ele>255.86797</ele>
        <time>2012-09-16T06:54:19Z</time>
      </trkpt>
      <trkpt lat="45.76542" lon="4.82702">
        <ele>250.72005</ele>
        <time>2012-09-16T06:54:25Z</time>
      </trkpt>
      <trkpt lat="45.76526" lon="4.82689">
        <ele>248.90639</ele>
        <time>2012-09-16T06:54:32Z</time>
      </trkpt>
      <trkpt lat="45.76509" lon="4.82674">
        <ele>249.91539</ele>
        <time>2012-09-16T06:54:42Z</time>
      </trkpt>
      <trkpt lat="45.76492" lon="4.82663">
        <ele>250.53622</ele>
        <time>2012-09-16T06:54:48Z</time>
      </trkpt>
      <trkpt lat="45.76473" lon="4.82662">
        <ele>250.05443</ele>
        <time>2012-09-16T06:54:54Z</time>
      </trkpt>
      <trkpt lat="45.76455" lon="4.82652">
        <ele>251.40584</ele>
        <time>2012-09-16T06:55:00Z</time>
      </trkpt>
      <trkpt lat="45.76435" lon="4.82647">
        <ele>254.22377</ele>
        <time>2012-09-16T06:55:07Z</time>
      </trkpt>
      <trkpt lat="45.76416" lon="4.82643">
        <ele>255.69678</ele>
        <time>2012-09-16T06:55:15Z</time>
      </trkpt>
      <trkpt lat="45.76399" lon="4.82634">
        <ele>257.07318</ele>
        <time>2012-09-16T06:55:22Z</time>
      </trkpt>
      <trkpt lat="45.7638" lon="4.82628">
        <ele>258.39545</ele>
        <time>2012-09-16T06:55:29Z</time>
      </trkpt>
      <trkpt lat="45.76361" lon="4.82622">
        <ele>263.65692</ele>
        <time>2012-09-16T06:55:37Z</time>
      </trkpt>
      <trkpt lat="45.76344" lon="4.82612">
        <ele>263.20035</ele>
        <time>2012-09-16T06:55:46Z</time>
      </trkpt>
      <trkpt lat="45.76331" lon="4.82591">
        <ele>262.44897</ele>
        <time>2012-09-16T06:55:55Z</time>
      </trkpt>
      <trkpt lat="45.76316" lon="4.82573">
        <ele>263.2269</ele>
        <time>2012-09-16T06:56:05Z</time>
      </trkpt>
      <trkpt lat="45.763" lon="4.82559">
        <ele>266.50598</ele>
        <time>2012-09-16T06:56:14Z</time>
      </trkpt>
      <trkpt lat="45.76283" lon="4.82544">
        <ele>269.77225</ele>
        <time>2012-09-16T06:56:23Z</time>
      </trkpt>
      <trkpt lat="45.76267" lon="4.82528">
        <ele>273.37994</ele>
        <time>2012-09-16T06:56:32Z</time>
      </trkpt>
      <trkpt lat="45.76253" lon="4.8251">
        <ele>274.506</ele>
        <time>2012-09-16T06:56:41Z</time>
      </trkpt>
      <trkpt lat="45.76242" lon="4.82489">
        <ele>276.8971</ele>
        <time>2012-09-16T06:56:49Z</time>
      </trkpt>
      <trkpt lat="45.76237" lon="4.8246">
        <ele>281.47473</ele>
        <time>2012-09-16T06:57:20Z</time>
      </trkpt>
      <trkpt lat="45.76224" lon="4.82442">
        <ele>288.26678</ele>
        <time>2012-09-16T06:57:26Z</time>
      </trkpt>
      <trkpt lat="45.76212" lon="4.82424">
        <ele>289.79956</ele>
        <time>2012-09-16T06:57:54Z</time>
      </trkpt>
      <trkpt lat="45.76232" lon="4.8242">
        <ele>296.5929</ele>
        <time>2012-09-16T06:58:00Z</time>
      </trkpt>
      <trkpt lat="45.7625" lon="4.82422">
        <ele>299.41263</ele>
        <time>2012-09-16T06:58:03Z</time>
      </trkpt>
      <trkpt lat="45.76268" lon="4.82427">
        <ele>303.89545</ele>
        <time>2012-09-16T06:58:11Z</time>
      </trkpt>
      <trkpt lat="45.76255" lon="4.82408">
        <ele>304.07663</ele>
        <time>2012-09-16T06:58:25Z</time>
      </trkpt>
      <trkpt lat="45.76237" lon="4.824">
        <ele>305.8192</ele>
        <time>2012-09-16T06:58:36Z</time>
      </trkpt>
      <trkpt lat="45.76221" lon="4.82385">
        <ele>309.3462</ele>
        <time>2012-09-16T06:58:47Z</time>
      </trkpt>
      <trkpt lat="45.76238" lon="4.82373">
        <ele>311.04504</ele>
        <time>2012-09-16T06:59:00Z</time>
      </trkpt>
      <trkpt lat="45.76256" lon="4.82378">
        <ele>312.74292</ele>
        <time>2012-09-16T06:59:08Z</time>
      </trkpt>
      <trkpt lat="45.76274" lon="4.82383">
        <ele>316.4018</ele>
        <time>2012-09-16T06:59:21Z</time>
      </trkpt>
      <trkpt lat="45.76259" lon="4.82364">
        <ele>319.6202</ele>
        <time>2012-09-16T06:59:33Z</time>
      </trkpt>
      <trkpt lat="45.76244" lon="4.82351">
        <ele>320.37384</ele>
        <time>2012-09-16T06:59:43Z</time>
      </trkpt>
      <trkpt lat="45.76257" lon="4.82334">
        <ele>325.02213</ele>
        <time>2012-09-16T07:00:07Z</time>
      </trkpt>
      <trkpt lat="45.76276" lon="4.82339">
        <ele>328.12225</ele>
        <time>2012-09-16T07:00:16Z</time>
      </trkpt>
      <trkpt lat="45.76266" lon="4.82316">
        <ele>335.31302</ele>
        <time>2012-09-16T07:00:35Z</time>
      </trkpt>
      <trkpt lat="45.76246" lon="4.8231">
        <ele>339.55368</ele>
        <time>2012-09-16T07:00:48Z</time>
      </trkpt>
      <trkpt lat="45.76228" lon="4.82308">
        <ele>340.45682</ele>
        <time>2012-09-16T07:00:52Z</time>
      </trkpt>
      <trkpt lat="45.76208" lon="4.82308">
        <ele>340.33646</ele>
        <time>2012-09-16T07:00:55Z</time>
      </trkpt>
      <trkpt lat="45.76189" lon="4.82306">
        <ele>339.29697</ele>
        <time>2012-09-16T07:01:02Z</time>
      </trkpt>
      <trkpt lat="45.7617" lon="4.82309">
        <ele>335.715</ele>
        <time>2012-09-16T07:01:13Z</time>
      </trkpt>
      <trkpt lat="45.76149" lon="4.82307">
        <ele>334.13504</ele>
        <time>2012-09-16T07:01:18Z</time>
      </trkpt>
      <trkpt lat="45.7613" lon="4.82313">
        <ele>333.242</ele>
        <time>2012-09-16T07:01:23Z</time>
      </trkpt>
      <trkpt lat="45.76111" lon="4.82325">
        <ele>332.47037</ele>
        <time>2012-09-16T07:01:29Z</time>
      </trkpt>
      <trkpt lat="45.76091" lon="4.8233">
        <ele>331.28305</ele>
        <time>2012-09-16T07:01:36Z</time>
      </trkpt>
      <trkpt lat="45.76073" lon="4.82325">
        <ele>329.79437</ele>
        <time>2012-09-16T07:01:39Z</time>
      </trkpt>
      <trkpt lat="45.76055" lon="4.82316">
        <ele>328.73196</ele>
        <time>2012-09-16T07:01:42Z</time>
      </trkpt>
      <trkpt lat="45.76037" lon="4.82308">
        <ele>327.11243</ele>
        <time>2012-09-16T07:01:46Z</time>
      </trkpt>
      <trkpt lat="45.76029" lon="4.82285">
        <ele>325.63187</ele>
        <time>2012-09-16T07:01:52Z</time>
      </trkpt>
      <trkpt lat="45.76031" lon="4.82256">
        <ele>325.55225</ele>
        <time>2012-09-16T07:01:57Z</time>
      </trkpt>
      <trkpt lat="45.76011" lon="4.8225">
        <ele>325.11636</ele>
        <time>2012-09-16T07:02:01Z</time>
      </trkpt>
      <trkpt lat="45.75986" lon="4.82242">
        <ele>323.60672</ele>
        <time>2012-09-16T07:02:04Z</time>
      </trkpt>
      <trkpt lat="45.7597" lon="4.82212">
        <ele>322.08398</ele>
        <time>2012-09-16T07:02:07Z</time>
      </trkpt>
      <trkpt lat="45.75962" lon="4.82179">
        <ele>320.70883</ele>
        <time>2012-09-16T07:02:10Z</time>
      </trkpt>
      <trkpt lat="45.75965" lon="4.82148">
        <ele>319.1501</ele>
        <time>2012-09-16T07:02:14Z</time>
      </trkpt>
      <trkpt lat="45.75976" lon="4.82124">
        <ele>317.63623</ele>
        <time>2012-09-16T07:02:18Z</time>
      </trkpt>
      <trkpt lat="45.75984" lon="4.82097">
        <ele>316.65445</ele>
        <time>2012-09-16T07:02:22Z</time>
      </trkpt>
      <trkpt lat="45.75987" lon="4.82069">
        <ele>316.35474</ele>
        <time>2012-09-16T07:02:26Z</time>
      </trkpt>
      <trkpt lat="45.76003" lon="4.82054">
        <ele>316.33972</ele>
        <time>2012-09-16T07:02:32Z</time>
      </trkpt>
      <trkpt lat="45.75991" lon="4.82029">
        <ele>316.08536</ele>
        <time>2012-09-16T07:02:38Z</time>
      </trkpt>
      <trkpt lat="45.75972" lon="4.8202">
        <ele>316.56485</ele>
        <time>2012-09-16T07:02:42Z</time>
      </trkpt>
      <trkpt lat="45.75954" lon="4.82013">
        <ele>316.60175</ele>
        <time>2012-09-16T07:02:46Z</time>
      </trkpt>
      <trkpt lat="45.75936" lon="4.82006">
        <ele>315.6408</ele>
        <time>2012-09-16T07:02:50Z</time>
      </trkpt>
      <trkpt lat="45.75918" lon="4.82007">
        <ele>314.36966</ele>
        <time>2012-09-16T07:02:55Z</time>
      </trkpt>
      <trkpt lat="45.75909" lon="4.82029">
        <ele>312.82144</ele>
        <time>2012-09-16T07:03:00Z</time>
      </trkpt>
      <trkpt lat="45.75903" lon="4.82057">
        <ele>311.42987</ele>
        <time>2012-09-16T07:03:04Z</time>
      </trkpt>
      <trkpt lat="45.75896" lon="4.82085">
        <ele>310.28946</ele>
        <time>2012-09-16T07:03:09Z</time>
      </trkpt>
      <trkpt lat="45.75892" lon="4.82111">
        <ele>309.32614</ele>
        <time>2012-09-16T07:03:23Z</time>
      </trkpt>
      <trkpt lat="45.75875" lon="4.82117">
        <ele>308.7422</ele>
        <time>2012-09-16T07:03:31Z</time>
      </trkpt>
      <trkpt lat="45.75855" lon="4.82115">
        <ele>307.9662</ele>
        <time>2012-09-16T07:03:34Z</time>
      </trkpt>
      <trkpt lat="45.75836" lon="4.82112">
        <ele>306.85446</ele>
        <time>2012-09-16T07:03:37Z</time>
      </trkpt>
      <trkpt lat="45.75814" lon="4.82107">
        <ele>305.34952</ele>
        <time>2012-09-16T07:03:40Z</time>
      </trkpt>
      <trkpt lat="45.75794" lon="4.82103">
        <ele>303.56772</ele>
        <time>2012-09-16T07:03:43Z</time>
      </trkpt>
      <trkpt lat="45.75772" lon="4.82101">
        <ele>302.21396</ele>
        <time>2012-09-16T07:03:47Z</time>
      </trkpt>
      <trkpt lat="45.75768" lon="4.82126">
        <ele>300.60056</ele>
        <time>2012-09-16T07:03:57Z</time>
      </trkpt>
      <trkpt lat="45.75774" lon="4.8215">
        <ele>298.95816</ele>
        <time>2012-09-16T07:04:03Z</time>
      </trkpt>
      <trkpt lat="45.75793" lon="4.82169">
        <ele>298.06076</ele>
        <time>2012-09-16T07:04:06Z</time>
      </trkpt>
      <trkpt lat="45.75813" lon="4.82185">
        <ele>297.26358</ele>
        <time>2012-09-16T07:04:10Z</time>
      </trkpt>
      <trkpt lat="45.75824" lon="4.82212">
        <ele>295.90247</ele>
        <time>2012-09-16T07:04:16Z</time>
      </trkpt>
      <trkpt lat="45.75832" lon="4.82238">
        <ele>295.50735</ele>
        <time>2012-09-16T07:04:19Z</time>
      </trkpt>
      <trkpt lat="45.7584" lon="4.82264">
        <ele>295.14218</ele>
        <time>2012-09-16T07:04:22Z</time>
      </trkpt>
      <trkpt lat="45.75848" lon="4.82293">
        <ele>294.4053</ele>
        <time>2012-09-16T07:04:25Z</time>
      </trkpt>
      <trkpt lat="45.75855" lon="4.82326">
        <ele>293.56003</ele>
        <time>2012-09-16T07:04:28Z</time>
      </trkpt>
      <trkpt lat="45.75869" lon="4.82359">
        <ele>292.35034</ele>
        <time>2012-09-16T07:04:31Z</time>
      </trkpt>
      <trkpt lat="45.75884" lon="4.82377">
        <ele>291.48456</ele>
        <time>2012-09-16T07:04:33Z</time>
      </trkpt>
      <trkpt lat="45.75901" lon="4.82393">
        <ele>290.59756</ele>
        <time>2012-09-16T07:04:35Z</time>
      </trkpt>
      <trkpt lat="45.75917" lon="4.82409">
        <ele>289.7674</ele>
        <time>2012-09-16T07:04:37Z</time>
      </trkpt>
      <trkpt lat="45.75933" lon="4.82424">
        <ele>287.95667</ele>
        <time>2012-09-16T07:04:39Z</time>
      </trkpt>
      <trkpt lat="45.75951" lon="4.82433">
        <ele>286.03186</ele>
        <time>2012-09-16T07:04:41Z</time>
      </trkpt>
      <trkpt lat="45.75974" lon="4.8244">
        <ele>283.99918</ele>
        <time>2012-09-16T07:04:43Z</time>
      </trkpt>
      <trkpt lat="45.75995" lon="4.82453">
        <ele>281.76205</ele>
        <time>2012-09-16T07:04:45Z</time>
      </trkpt>
      <trkpt lat="45.7602" lon="4.82469">
        <ele>279.80365</ele>
        <time>2012-09-16T07:04:47Z</time>
      </trkpt>
      <trkpt lat="45.76047" lon="4.82481">
        <ele>277.47705</ele>
        <time>2012-09-16T07:04:49Z</time>
      </trkpt>
      <trkpt lat="45.76073" lon="4.82494">
        <ele>274.21835</ele>
        <time>2012-09-16T07:04:51Z</time>
      </trkpt>
      <trkpt lat="45.76102" lon="4.82505">
        <ele>269.9478</ele>
        <time>2012-09-16T07:04:53Z</time>
      </trkpt>
      <trkpt lat="45.76129" lon="4.82518">
        <ele>265.86438</ele>
        <time>2012-09-16T07:04:55Z</time>
      </trkpt>
      <trkpt lat="45.7615" lon="4.8253">
        <ele>261.72998</ele>
        <time>2012-09-16T07:04:57Z</time>
      </trkpt>
      <trkpt lat="45.76166" lon="4.82543">
        <ele>257.13562</ele>
        <time>2012-09-16T07:04:59Z</time>
      </trkpt>
      <trkpt lat="45.76182" lon="4.82558">
        <ele>252.68251</ele>
        <time>2012-09-16T07:05:01Z</time>
      </trkpt>
      <trkpt lat="45.762" lon="4.82581">
        <ele>246.45357</ele>
        <time>2012-09-16T07:05:04Z</time>
      </trkpt>
      <trkpt lat="45.76206" lon="4.82612">
        <ele>239.88766</ele>
        <time>2012-09-16T07:05:08Z</time>
      </trkpt>
      <trkpt lat="45.76186" lon="4.82592">
        <ele>237.05016</ele>
        <time>2012-09-16T07:05:14Z</time>
      </trkpt>
      <trkpt lat="45.76159" lon="4.82584">
        <ele>236.72195</ele>
        <time>2012-09-16T07:05:16Z</time>
      </trkpt>
      <trkpt lat="45.76133" lon="4.82583">
        <ele>236.65611</ele>
        <time>2012-09-16T07:05:18Z</time>
      </trkpt>
      <trkpt lat="45.76107" lon="4.82582">
        <ele>237.1253</ele>
        <time>2012-09-16T07:05:20Z</time>
      </trkpt>
      <trkpt lat="45.76089" lon="4.82575">
        <ele>239.17473</ele>
        <time>2012-09-16T07:05:23Z</time>
      </trkpt>
      <trkpt lat="45.7607" lon="4.82566">
        <ele>238.98535</ele>
        <time>2012-09-16T07:05:29Z</time>
      </trkpt>
      <trkpt lat="45.76049" lon="4.82562">
        <ele>238.26726</ele>
        <time>2012-09-16T07:05:32Z</time>
      </trkpt>
      <trkpt lat="45.76028" lon="4.82565">
        <ele>238.15182</ele>
        <time>2012-09-16T07:05:35Z</time>
      </trkpt>
      <trkpt lat="45.76012" lon="4.82584">
        <ele>238.39998</ele>
        <time>2012-09-16T07:05:38Z</time>
      </trkpt>
      <trkpt lat="45.76009" lon="4.82616">
        <ele>238.51561</ele>
        <time>2012-09-16T07:05:41Z</time>
      </trkpt>
      <trkpt lat="45.76015" lon="4.82641">
        <ele>238.77129</ele>
        <time>2012-09-16T07:05:43Z</time>
      </trkpt>
      <trkpt lat="45.76005" lon="4.82664">
        <ele>239.24258</ele>
        <time>2012-09-16T07:05:46Z</time>
      </trkpt>
      <trkpt lat="45.76003" lon="4.8269">
        <ele>241.32637</ele>
        <time>2012-09-16T07:05:50Z</time>
      </trkpt>
      <trkpt lat="45.75999" lon="4.82718">
        <ele>243.32986</ele>
        <time>2012-09-16T07:05:53Z</time>
      </trkpt>
      <trkpt lat="45.75993" lon="4.82744">
        <ele>244.45479</ele>
        <time>2012-09-16T07:05:56Z</time>
      </trkpt>
      <trkpt lat="45.75984" lon="4.8277">
        <ele>245.27936</ele>
        <time>2012-09-16T07:05:59Z</time>
      </trkpt>
      <trkpt lat="45.75985" lon="4.82801">
        <ele>241.14035</ele>
        <time>2012-09-16T07:06:03Z</time>
      </trkpt>
      <trkpt lat="45.76005" lon="4.82815">
        <ele>236.84671</ele>
        <time>2012-09-16T07:06:06Z</time>
      </trkpt>
      <trkpt lat="45.76026" lon="4.82827">
        <ele>233.42595</ele>
        <time>2012-09-16T07:06:09Z</time>
      </trkpt>
      <trkpt lat="45.76049" lon="4.82839">
        <ele>231.1297</ele>
        <time>2012-09-16T07:06:12Z</time>
      </trkpt>
      <trkpt lat="45.76072" lon="4.82847">
        <ele>229.37192</ele>
        <time>2012-09-16T07:06:15Z</time>
      </trkpt>
      <trkpt lat="45.76096" lon="4.82854">
        <ele>227.67096</ele>
        <time>2012-09-16T07:06:18Z</time>
      </trkpt>
      <trkpt lat="45.7612" lon="4.82862">
        <ele>226.25963</ele>
        <time>2012-09-16T07:06:21Z</time>
      </trkpt>
      <trkpt lat="45.76143" lon="4.82872">
        <ele>225.5564</ele>
        <time>2012-09-16T07:06:24Z</time>
      </trkpt>
      <trkpt lat="45.76164" lon="4.82876">
        <ele>224.56754</ele>
        <time>2012-09-16T07:06:27Z</time>
      </trkpt>
      <trkpt lat="45.76184" lon="4.82883">
        <ele>223.21912</ele>
        <time>2012-09-16T07:06:30Z</time>
      </trkpt>
      <trkpt lat="45.76202" lon="4.82894">
        <ele>222.57524</ele>
        <time>2012-09-16T07:06:33Z</time>
      </trkpt>
      <trkpt lat="45.76221" lon="4.82905">
        <ele>221.87862</ele>
        <time>2012-09-16T07:06:36Z</time>
      </trkpt>
      <trkpt lat="45.76239" lon="4.82915">
        <ele>221.68005</ele>
        <time>2012-09-16T07:06:39Z</time>
      </trkpt>
      <trkpt lat="45.76258" lon="4.82922">
        <ele>221.86502</ele>
        <time>2012-09-16T07:06:42Z</time>
      </trkpt>
      <trkpt lat="45.76276" lon="4.82928">
        <ele>221.99774</ele>
        <time>2012-09-16T07:06:45Z</time>
      </trkpt>
      <trkpt lat="45.76294" lon="4.82933">
        <ele>222.04906</ele>
        <time>2012-09-16T07:06:48Z</time>
      </trkpt>
      <trkpt lat="45.76313" lon="4.82937">
        <ele>222.08476</ele>
        <time>2012-09-16T07:06:51Z</time>
      </trkpt>
      <trkpt lat="45.76332" lon="4.82955">
        <ele>222.80377</ele>
        <time>2012-09-16T07:06:55Z</time>
      </trkpt>
      <trkpt lat="45.76354" lon="4.82944">
        <ele>223.1801</ele>
        <time>2012-09-16T07:06:59Z</time>
      </trkpt>
      <trkpt lat="45.76375" lon="4.82943">
        <ele>223.14473</ele>
        <time>2012-09-16T07:07:02Z</time>
      </trkpt>
      <trkpt lat="45.76393" lon="4.82944">
        <ele>223.0095</ele>
        <time>2012-09-16T07:07:05Z</time>
      </trkpt>
      <trkpt lat="45.76413" lon="4.82942">
        <ele>222.5837</ele>
        <time>2012-09-16T07:07:08Z</time>
      </trkpt>
      <trkpt lat="45.76434" lon="4.82941">
        <ele>222.36967</ele>
        <time>2012-09-16T07:07:11Z</time>
      </trkpt>
      <trkpt lat="45.76457" lon="4.82936">
        <ele>222.11736</ele>
        <time>2012-09-16T07:07:15Z</time>
      </trkpt>
      <trkpt lat="45.76474" lon="4.82921">
        <ele>222.49326</ele>
        <time>2012-09-16T07:07:18Z</time>
      </trkpt>
      <trkpt lat="45.76491" lon="4.82912">
        <ele>223.27997</ele>
        <time>2012-09-16T07:07:21Z</time>
      </trkpt>
      <trkpt lat="45.76511" lon="4.82915">
        <ele>224.14935</ele>
        <time>2012-09-16T07:07:24Z</time>
      </trkpt>
      <trkpt lat="45.76531" lon="4.82914">
        <ele>224.37395</ele>
        <time>2012-09-16T07:07:27Z</time>
      </trkpt>
      <trkpt lat="45.76551" lon="4.82911">
        <ele>224.29526</ele>
        <time>2012-09-16T07:07:30Z</time>
      </trkpt>
      <trkpt lat="45.76571" lon="4.82903">
        <ele>223.68706</ele>
        <time>2012-09-16T07:07:33Z</time>
      </trkpt>
      <trkpt lat="45.76592" lon="4.82893">
        <ele>223.35861</ele>
        <time>2012-09-16T07:07:36Z</time>
      </trkpt>
      <trkpt lat="45.76611" lon="4.82883">
        <ele>223.13098</ele>
        <time>2012-09-16T07:07:39Z</time>
      </trkpt>
      <trkpt lat="45.76629" lon="4.82872">
        <ele>223.18651</ele>
        <time>2012-09-16T07:07:42Z</time>
      </trkpt>
      <trkpt lat="45.76646" lon="4.82851">
        <ele>222.90837</ele>
        <time>2012-09-16T07:07:45Z</time>
      </trkpt>
      <trkpt lat="45.76662" lon="4.82829">
        <ele>222.94572</ele>
        <time>2012-09-16T07:07:48Z</time>
      </trkpt>
      <trkpt lat="45.76679" lon="4.82806">
        <ele>223.17554</ele>
        <time>2012-09-16T07:07:51Z</time>
      </trkpt>
      <trkpt lat="45.76696" lon="4.82782">
        <ele>223.92407</ele>
        <time>2012-09-16T07:07:54Z</time>
      </trkpt>
      <trkpt lat="45.76713" lon="4.82759">
        <ele>224.77109</ele>
        <time>2012-09-16T07:07:57Z</time>
      </trkpt>
      <trkpt lat="45.76728" lon="4.82734">
        <ele>226.37218</ele>
        <time>2012-09-16T07:08:00Z</time>
      </trkpt>
      <trkpt lat="45.76737" lon="4.82706">
        <ele>226.45546</ele>
        <time>2012-09-16T07:08:03Z</time>
      </trkpt>
      <trkpt lat="45.76742" lon="4.82677">
        <ele>225.60933</ele>
        <time>2012-09-16T07:08:06Z</time>
      </trkpt>
      <trkpt lat="45.76748" lon="4.82649">
        <ele>224.2555</ele>
        <time>2012-09-16T07:08:09Z</time>
      </trkpt>
      <trkpt lat="45.76755" lon="4.82622">
        <ele>223.49062</ele>
        <time>2012-09-16T07:08:12Z</time>
      </trkpt>
      <trkpt lat="45.76755" lon="4.82592">
        <ele>222.88979</ele>
        <time>2012-09-16T07:08:15Z</time>
      </trkpt>
      <trkpt lat="45.76755" lon="4.82555">
        <ele>221.83319</ele>
        <time>2012-09-16T07:08:18Z</time>
      </trkpt>
      <trkpt lat="45.76756" lon="4.82517">
        <ele>220.38899</ele>
        <time>2012-09-16T07:08:21Z</time>
      </trkpt>
      <trkpt lat="45.76755" lon="4.82485">
        <ele>219.06723</ele>
        <time>2012-09-16T07:08:24Z</time>
      </trkpt>
      <trkpt lat="45.76754" lon="4.82454">
        <ele>218.23305</ele>
        <time>2012-09-16T07:08:27Z</time>
      </trkpt>
      <trkpt lat="45.76753" lon="4.82424">
        <ele>217.69675</ele>
        <time>2012-09-16T07:08:30Z</time>
      </trkpt>
      <trkpt lat="45.76751" lon="4.82396">
        <ele>217.55489</ele>
        <time>2012-09-16T07:08:33Z</time>
      </trkpt>
      <trkpt lat="45.76747" lon="4.82365">
        <ele>217.77089</ele>
        <time>2012-09-16T07:08:37Z</time>
      </trkpt>
      <trkpt lat="45.76746" lon="4.82338">
        <ele>218.30998</ele>
        <time>2012-09-16T07:08:42Z</time>
      </trkpt>
      <trkpt lat="45.76742" lon="4.8231">
        <ele>219.79463</ele>
        <time>2012-09-16T07:08:48Z</time>
      </trkpt>
      <trkpt lat="45.76738" lon="4.8228">
        <ele>220.34091</ele>
        <time>2012-09-16T07:08:53Z</time>
      </trkpt>
      <trkpt lat="45.76734" lon="4.82253">
        <ele>220.58676</ele>
        <time>2012-09-16T07:08:57Z</time>
      </trkpt>
      <trkpt lat="45.76727" lon="4.82224">
        <ele>220.84465</ele>
        <time>2012-09-16T07:09:01Z</time>
      </trkpt>
      <trkpt lat="45.76718" lon="4.82196">
        <ele>220.99458</ele>
        <time>2012-09-16T07:09:05Z</time>
      </trkpt>
      <trkpt lat="45.7671" lon="4.82168">
        <ele>221.17876</ele>
        <time>2012-09-16T07:09:09Z</time>
      </trkpt>
      <trkpt lat="45.76702" lon="4.82137">
        <ele>221.58273</ele>
        <time>2012-09-16T07:09:13Z</time>
      </trkpt>
      <trkpt lat="45.76694" lon="4.82107">
        <ele>221.86836</ele>
        <time>2012-09-16T07:09:17Z</time>
      </trkpt>
      <trkpt lat="45.76687" lon="4.82083">
        <ele>222.18666</ele>
        <time>2012-09-16T07:09:20Z</time>
      </trkpt>
      <trkpt lat="45.76681" lon="4.82058">
        <ele>222.40062</ele>
        <time>2012-09-16T07:09:23Z</time>
      </trkpt>
      <trkpt lat="45.76676" lon="4.82031">
        <ele>222.62839</ele>
        <time>2012-09-16T07:09:26Z</time>
      </trkpt>
      <trkpt lat="45.76669" lon="4.82004">
        <ele>222.83698</ele>
        <time>2012-09-16T07:09:29Z</time>
      </trkpt>
      <trkpt lat="45.76661" lon="4.81977">
        <ele>222.87343</ele>
        <time>2012-09-16T07:09:32Z</time>
      </trkpt>
      <trkpt lat="45.76655" lon="4.81949">
        <ele>223.01535</ele>
        <time>2012-09-16T07:09:35Z</time>
      </trkpt>
      <trkpt lat="45.76651" lon="4.81921">
        <ele>223.29868</ele>
        <time>2012-09-16T07:09:38Z</time>
      </trkpt>
      <trkpt lat="45.76649" lon="4.81893">
        <ele>223.63226</ele>
        <time>2012-09-16T07:09:41Z</time>
      </trkpt>
      <trkpt lat="45.76647" lon="4.81864">
        <ele>223.81206</ele>
        <time>2012-09-16T07:09:44Z</time>
      </trkpt>
      <trkpt lat="45.76648" lon="4.81834">
        <ele>223.98946</ele>
        <time>2012-09-16T07:09:47Z</time>
      </trkpt>
      <trkpt lat="45.76649" lon="4.81804">
        <ele>224.18774</ele>
        <time>2012-09-16T07:09:50Z</time>
      </trkpt>
      <trkpt lat="45.76653" lon="4.81776">
        <ele>223.98076</ele>
        <time>2012-09-16T07:09:53Z</time>
      </trkpt>
      <trkpt lat="45.76658" lon="4.81747">
        <ele>223.66689</ele>
        <time>2012-09-16T07:09:56Z</time>
      </trkpt>
      <trkpt lat="45.76663" lon="4.81718">
        <ele>223.41103</ele>
        <time>2012-09-16T07:09:59Z</time>
      </trkpt>
      <trkpt lat="45.76669" lon="4.81688">
        <ele>223.31403</ele>
        <time>2012-09-16T07:10:02Z</time>
      </trkpt>
      <trkpt lat="45.76674" lon="4.81659">
        <ele>223.0528</ele>
        <time>2012-09-16T07:10:05Z</time>
      </trkpt>
      <trkpt lat="45.76679" lon="4.81631">
        <ele>222.62071</ele>
        <time>2012-09-16T07:10:08Z</time>
      </trkpt>
      <trkpt lat="45.76685" lon="4.81602">
        <ele>222.33372</ele>
        <time>2012-09-16T07:10:11Z</time>
      </trkpt>
      <trkpt lat="45.76694" lon="4.81576">
        <ele>222.0783</ele>
        <time>2012-09-16T07:10:14Z</time>
      </trkpt>
      <trkpt lat="45.76705" lon="4.8155">
        <ele>222.1846</ele>
        <time>2012-09-16T07:10:17Z</time>
      </trkpt>
      <trkpt lat="45.76715" lon="4.81523">
        <ele>222.22632</ele>
        <time>2012-09-16T07:10:20Z</time>
      </trkpt>
      <trkpt lat="45.76724" lon="4.81496">
        <ele>221.99704</ele>
        <time>2012-09-16T07:10:23Z</time>
      </trkpt>
      <trkpt lat="45.76733" lon="4.81471">
        <ele>221.29718</ele>
        <time>2012-09-16T07:10:26Z</time>
      </trkpt>
      <trkpt lat="45.76747" lon="4.81442">
        <ele>220.55693</ele>
        <time>2012-09-16T07:10:30Z</time>
      </trkpt>
      <trkpt lat="45.76757" lon="4.81414">
        <ele>219.94276</ele>
        <time>2012-09-16T07:10:33Z</time>
      </trkpt>
      <trkpt lat="45.76773" lon="4.81383">
        <ele>218.91335</ele>
        <time>2012-09-16T07:10:36Z</time>
      </trkpt>
      <trkpt lat="45.76787" lon="4.81355">
        <ele>217.5525</ele>
        <time>2012-09-16T07:10:39Z</time>
      </trkpt>
      <trkpt lat="45.76806" lon="4.81333">
        <ele>217.14403</ele>
        <time>2012-09-16T07:10:42Z</time>
      </trkpt>
      <trkpt lat="45.76825" lon="4.81316">
        <ele>217.06857</ele>
        <time>2012-09-16T07:10:45Z</time>
      </trkpt>
      <trkpt lat="45.76845" lon="4.81304">
        <ele>216.71175</ele>
        <time>2012-09-16T07:10:48Z</time>
      </trkpt>
      <trkpt lat="45.76865" lon="4.81295">
        <ele>215.93463</ele>
        <time>2012-09-16T07:10:51Z</time>
      </trkpt>
      <trkpt lat="45.76884" lon="4.8129">
        <ele>214.95212</ele>
        <time>2012-09-16T07:10:54Z</time>
      </trkpt>
      <trkpt lat="45.76903" lon="4.81288">
        <ele>214.26105</ele>
        <time>2012-09-16T07:10:57Z</time>
      </trkpt>
      <trkpt lat="45.76922" lon="4.81286">
        <ele>213.87886</ele>
        <time>2012-09-16T07:11:00Z</time>
      </trkpt>
      <trkpt lat="45.7694" lon="4.81283">
        <ele>213.86609</ele>
        <time>2012-09-16T07:11:03Z</time>
      </trkpt>
      <trkpt lat="45.76958" lon="4.8128">
        <ele>213.99352</ele>
        <time>2012-09-16T07:11:06Z</time>
      </trkpt>
      <trkpt lat="45.76976" lon="4.81277">
        <ele>214.10663</ele>
        <time>2012-09-16T07:11:09Z</time>
      </trkpt>
      <trkpt lat="45.76998" lon="4.81272">
        <ele>214.1853</ele>
        <time>2012-09-16T07:11:13Z</time>
      </trkpt>
      <trkpt lat="45.7702" lon="4.81269">
        <ele>213.8305</ele>
        <time>2012-09-16T07:11:17Z</time>
      </trkpt>
      <trkpt lat="45.77038" lon="4.81263">
        <ele>213.2457</ele>
        <time>2012-09-16T07:11:20Z</time>
      </trkpt>
      <trkpt lat="45.77057" lon="4.81256">
        <ele>213.28021</ele>
        <time>2012-09-16T07:11:23Z</time>
      </trkpt>
      <trkpt lat="45.77078" lon="4.81249">
        <ele>214.06914</ele>
        <time>2012-09-16T07:11:27Z</time>
      </trkpt>
      <trkpt lat="45.771" lon="4.81234">
        <ele>214.33633</ele>
        <time>2012-09-16T07:11:31Z</time>
      </trkpt>
      <trkpt lat="45.77119" lon="4.81224">
        <ele>214.28564</ele>
        <time>2012-09-16T07:11:34Z</time>
      </trkpt>
      <trkpt lat="45.77136" lon="4.81213">
        <ele>214.09238</ele>
        <time>2012-09-16T07:11:37Z</time>
      </trkpt>
      <trkpt lat="45.77156" lon="4.81202">
        <ele>214.57806</ele>
        <time>2012-09-16T07:11:41Z</time>
      </trkpt>
      <trkpt lat="45.77175" lon="4.81195">
        <ele>215.08719</ele>
        <time>2012-09-16T07:11:45Z</time>
      </trkpt>
      <trkpt lat="45.77194" lon="4.81185">
        <ele>214.65845</ele>
        <time>2012-09-16T07:11:49Z</time>
      </trkpt>
      <trkpt lat="45.7721" lon="4.81171">
        <ele>214.87465</ele>
        <time>2012-09-16T07:11:52Z</time>
      </trkpt>
      <trkpt lat="45.77228" lon="4.8115">
        <ele>215.3701</ele>
        <time>2012-09-16T07:11:56Z</time>
      </trkpt>
      <trkpt lat="45.77242" lon="4.81133">
        <ele>216.16864</ele>
        <time>2012-09-16T07:11:59Z</time>
      </trkpt>
      <trkpt lat="45.7726" lon="4.81114">
        <ele>216.88812</ele>
        <time>2012-09-16T07:12:03Z</time>
      </trkpt>
      <trkpt lat="45.77275" lon="4.81099">
        <ele>217.3028</ele>
        <time>2012-09-16T07:12:06Z</time>
      </trkpt>
      <trkpt lat="45.77294" lon="4.8108">
        <ele>218.36807</ele>
        <time>2012-09-16T07:12:10Z</time>
      </trkpt>
      <trkpt lat="45.7731" lon="4.81064">
        <ele>219.20372</ele>
        <time>2012-09-16T07:12:13Z</time>
      </trkpt>
      <trkpt lat="45.77326" lon="4.81048">
        <ele>220.1078</ele>
        <time>2012-09-16T07:12:16Z</time>
      </trkpt>
      <trkpt lat="45.77346" lon="4.81024">
        <ele>221.17047</ele>
        <time>2012-09-16T07:12:19Z</time>
      </trkpt>
      <trkpt lat="45.77358" lon="4.81001">
        <ele>221.15785</ele>
        <time>2012-09-16T07:12:22Z</time>
      </trkpt>
      <trkpt lat="45.77374" lon="4.80978">
        <ele>219.77104</ele>
        <time>2012-09-16T07:12:26Z</time>
      </trkpt>
      <trkpt lat="45.77393" lon="4.80956">
        <ele>218.11975</ele>
        <time>2012-09-16T07:12:30Z</time>
      </trkpt>
      <trkpt lat="45.77408" lon="4.8094">
        <ele>218.09114</ele>
        <time>2012-09-16T07:12:33Z</time>
      </trkpt>
      <trkpt lat="45.7743" lon="4.80925">
        <ele>218.49446</ele>
        <time>2012-09-16T07:12:37Z</time>
      </trkpt>
      <trkpt lat="45.77448" lon="4.80913">
        <ele>218.65234</ele>
        <time>2012-09-16T07:12:40Z</time>
      </trkpt>
      <trkpt lat="45.77465" lon="4.809">
        <ele>218.10489</ele>
        <time>2012-09-16T07:12:43Z</time>
      </trkpt>
      <trkpt lat="45.77482" lon="4.80886">
        <ele>218.43019</ele>
        <time>2012-09-16T07:12:46Z</time>
      </trkpt>
      <trkpt lat="45.77503" lon="4.80875">
        <ele>219.23805</ele>
        <time>2012-09-16T07:12:50Z</time>
      </trkpt>
      <trkpt lat="45.77525" lon="4.80864">
        <ele>219.18001</ele>
        <time>2012-09-16T07:12:54Z</time>
      </trkpt>
      <trkpt lat="45.77545" lon="4.80853">
        <ele>218.81813</ele>
        <time>2012-09-16T07:12:57Z</time>
      </trkpt>
      <trkpt lat="45.77564" lon="4.80845">
        <ele>218.73889</ele>
        <time>2012-09-16T07:13:00Z</time>
      </trkpt>
      <trkpt lat="45.77583" lon="4.80839">
        <ele>218.52734</ele>
        <time>2012-09-16T07:13:03Z</time>
      </trkpt>
      <trkpt lat="45.77601" lon="4.8083">
        <ele>217.28186</ele>
        <time>2012-09-16T07:13:06Z</time>
      </trkpt>
      <trkpt lat="45.77619" lon="4.80824">
        <ele>215.9736</ele>
        <time>2012-09-16T07:13:09Z</time>
      </trkpt>
      <trkpt lat="45.77638" lon="4.80818">
        <ele>214.25761</ele>
        <time>2012-09-16T07:13:12Z</time>
      </trkpt>
      <trkpt lat="45.77657" lon="4.80811">
        <ele>212.63055</ele>
        <time>2012-09-16T07:13:15Z</time>
      </trkpt>
      <trkpt lat="45.77675" lon="4.80805">
        <ele>211.84883</ele>
        <time>2012-09-16T07:13:18Z</time>
      </trkpt>
      <trkpt lat="45.77696" lon="4.80797">
        <ele>211.81857</ele>
        <time>2012-09-16T07:13:22Z</time>
      </trkpt>
      <trkpt lat="45.77715" lon="4.80801">
        <ele>212.39807</ele>
        <time>2012-09-16T07:13:26Z</time>
      </trkpt>
      <trkpt lat="45.77736" lon="4.80803">
        <ele>212.33846</ele>
        <time>2012-09-16T07:13:30Z</time>
      </trkpt>
      <trkpt lat="45.77759" lon="4.80805">
        <ele>211.75905</ele>
        <time>2012-09-16T07:13:34Z</time>
      </trkpt>
      <trkpt lat="45.77778" lon="4.80809">
        <ele>211.48116</ele>
        <time>2012-09-16T07:13:37Z</time>
      </trkpt>
      <trkpt lat="45.77796" lon="4.80813">
        <ele>211.08893</ele>
        <time>2012-09-16T07:13:40Z</time>
      </trkpt>
      <trkpt lat="45.77814" lon="4.80815">
        <ele>210.54532</ele>
        <time>2012-09-16T07:13:43Z</time>
      </trkpt>
      <trkpt lat="45.77837" lon="4.80822">
        <ele>210.59167</ele>
        <time>2012-09-16T07:13:47Z</time>
      </trkpt>
      <trkpt lat="45.77859" lon="4.80832">
        <ele>211.19774</ele>
        <time>2012-09-16T07:13:51Z</time>
      </trkpt>
      <trkpt lat="45.77878" lon="4.80839">
        <ele>212.23405</ele>
        <time>2012-09-16T07:13:55Z</time>
      </trkpt>
      <trkpt lat="45.77898" lon="4.80845">
        <ele>213.58951</ele>
        <time>2012-09-16T07:14:01Z</time>
      </trkpt>
      <trkpt lat="45.77917" lon="4.80849">
        <ele>214.38853</ele>
        <time>2012-09-16T07:14:07Z</time>
      </trkpt>
      <trkpt lat="45.77938" lon="4.8085">
        <ele>216.83344</ele>
        <time>2012-09-16T07:14:13Z</time>
      </trkpt>
      <trkpt lat="45.77958" lon="4.80864">
        <ele>219.18909</ele>
        <time>2012-09-16T07:14:17Z</time>
      </trkpt>
      <trkpt lat="45.77974" lon="4.80876">
        <ele>220.52039</ele>
        <time>2012-09-16T07:14:20Z</time>
      </trkpt>
      <trkpt lat="45.77993" lon="4.80884">
        <ele>221.98985</ele>
        <time>2012-09-16T07:14:23Z</time>
      </trkpt>
      <trkpt lat="45.78015" lon="4.80888">
        <ele>222.97726</ele>
        <time>2012-09-16T07:14:27Z</time>
      </trkpt>
      <trkpt lat="45.78038" lon="4.80885">
        <ele>222.85843</ele>
        <time>2012-09-16T07:14:31Z</time>
      </trkpt>
      <trkpt lat="45.78059" lon="4.8089">
        <ele>222.99269</ele>
        <time>2012-09-16T07:14:35Z</time>
      </trkpt>
      <trkpt lat="45.78074" lon="4.80912">
        <ele>223.02348</ele>
        <time>2012-09-16T07:14:39Z</time>
      </trkpt>
      <trkpt lat="45.78095" lon="4.80928">
        <ele>222.63243</ele>
        <time>2012-09-16T07:14:43Z</time>
      </trkpt>
      <trkpt lat="45.78111" lon="4.80943">
        <ele>222.58087</ele>
        <time>2012-09-16T07:14:46Z</time>
      </trkpt>
      <trkpt lat="45.78129" lon="4.80957">
        <ele>223.17006</ele>
        <time>2012-09-16T07:14:49Z</time>
      </trkpt>
      <trkpt lat="45.78146" lon="4.80972">
        <ele>223.67644</ele>
        <time>2012-09-16T07:14:52Z</time>
      </trkpt>
      <trkpt lat="45.78163" lon="4.80986">
        <ele>223.74786</ele>
        <time>2012-09-16T07:14:55Z</time>
      </trkpt>
      <trkpt lat="45.7818" lon="4.81">
        <ele>223.51395</ele>
        <time>2012-09-16T07:14:58Z</time>
      </trkpt>
      <trkpt lat="45.78196" lon="4.81013">
        <ele>223.36212</ele>
        <time>2012-09-16T07:15:01Z</time>
      </trkpt>
      <trkpt lat="45.78216" lon="4.8103">
        <ele>223.52278</ele>
        <time>2012-09-16T07:15:05Z</time>
      </trkpt>
      <trkpt lat="45.78234" lon="4.81046">
        <ele>223.14119</ele>
        <time>2012-09-16T07:15:09Z</time>
      </trkpt>
      <trkpt lat="45.78252" lon="4.81062">
        <ele>223.5461</ele>
        <time>2012-09-16T07:15:14Z</time>
      </trkpt>
      <trkpt lat="45.78264" lon="4.81081">
        <ele>224.95682</ele>
        <time>2012-09-16T07:15:24Z</time>
      </trkpt>
      <trkpt lat="45.7827" lon="4.81106">
        <ele>223.50922</ele>
        <time>2012-09-16T07:15:30Z</time>
      </trkpt>
      <trkpt lat="45.78285" lon="4.81123">
        <ele>222.05287</ele>
        <time>2012-09-16T07:15:35Z</time>
      </trkpt>
      <trkpt lat="45.78303" lon="4.81138">
        <ele>221.35962</ele>
        <time>2012-09-16T07:15:40Z</time>
      </trkpt>
      <trkpt lat="45.78323" lon="4.81152">
        <ele>220.97273</ele>
        <time>2012-09-16T07:15:44Z</time>
      </trkpt>
      <trkpt lat="45.78339" lon="4.81169">
        <ele>220.29489</ele>
        <time>2012-09-16T07:15:48Z</time>
      </trkpt>
      <trkpt lat="45.78359" lon="4.81186">
        <ele>220.21788</ele>
        <time>2012-09-16T07:15:52Z</time>
      </trkpt>
      <trkpt lat="45.78379" lon="4.81204">
        <ele>220.48059</ele>
        <time>2012-09-16T07:15:56Z</time>
      </trkpt>
      <trkpt lat="45.784" lon="4.81213">
        <ele>219.58289</ele>
        <time>2012-09-16T07:16:00Z</time>
      </trkpt>
      <trkpt lat="45.78416" lon="4.81223">
        <ele>220.1693</ele>
        <time>2012-09-16T07:16:03Z</time>
      </trkpt>
      <trkpt lat="45.78435" lon="4.81236">
        <ele>220.49797</ele>
        <time>2012-09-16T07:16:06Z</time>
      </trkpt>
      <trkpt lat="45.78454" lon="4.81249">
        <ele>220.61476</ele>
        <time>2012-09-16T07:16:09Z</time>
      </trkpt>
      <trkpt lat="45.78472" lon="4.81264">
        <ele>221.19841</ele>
        <time>2012-09-16T07:16:12Z</time>
      </trkpt>
      <trkpt lat="45.78491" lon="4.81278">
        <ele>222.28836</ele>
        <time>2012-09-16T07:16:15Z</time>
      </trkpt>
      <trkpt lat="45.78509" lon="4.81293">
        <ele>223.67632</ele>
        <time>2012-09-16T07:16:18Z</time>
      </trkpt>
      <trkpt lat="45.78527" lon="4.81307">
        <ele>224.1478</ele>
        <time>2012-09-16T07:16:21Z</time>
      </trkpt>
      <trkpt lat="45.78546" lon="4.81321">
        <ele>223.60298</ele>
        <time>2012-09-16T07:16:24Z</time>
      </trkpt>
      <trkpt lat="45.78565" lon="4.81334">
        <ele>222.90285</ele>
        <time>2012-09-16T07:16:27Z</time>
      </trkpt>
      <trkpt lat="45.78584" lon="4.81349">
        <ele>222.70746</ele>
        <time>2012-09-16T07:16:30Z</time>
      </trkpt>
      <trkpt lat="45.78599" lon="4.81362">
        <ele>223.12968</ele>
        <time>2012-09-16T07:16:33Z</time>
      </trkpt>
      <trkpt lat="45.7862" lon="4.81374">
        <ele>223.19058</ele>
        <time>2012-09-16T07:16:36Z</time>
      </trkpt>
      <trkpt lat="45.7864" lon="4.81386">
        <ele>222.99597</ele>
        <time>2012-09-16T07:16:39Z</time>
      </trkpt>
      <trkpt lat="45.7866" lon="4.81397">
        <ele>221.72954</ele>
        <time>2012-09-16T07:16:42Z</time>
      </trkpt>
      <trkpt lat="45.7868" lon="4.8141">
        <ele>220.25932</ele>
        <time>2012-09-16T07:16:45Z</time>
      </trkpt>
      <trkpt lat="45.78701" lon="4.81423">
        <ele>219.48283</ele>
        <time>2012-09-16T07:16:48Z</time>
      </trkpt>
      <trkpt lat="45.7872" lon="4.81436">
        <ele>219.86148</ele>
        <time>2012-09-16T07:16:51Z</time>
      </trkpt>
      <trkpt lat="45.78739" lon="4.81449">
        <ele>220.79622</ele>
        <time>2012-09-16T07:16:54Z</time>
      </trkpt>
      <trkpt lat="45.78756" lon="4.81464">
        <ele>222.0515</ele>
        <time>2012-09-16T07:16:57Z</time>
      </trkpt>
      <trkpt lat="45.78775" lon="4.81481">
        <ele>222.7717</ele>
        <time>2012-09-16T07:17:00Z</time>
      </trkpt>
      <trkpt lat="45.78792" lon="4.81497">
        <ele>223.28954</ele>
        <time>2012-09-16T07:17:03Z</time>
      </trkpt>
      <trkpt lat="45.78812" lon="4.81513">
        <ele>223.96266</ele>
        <time>2012-09-16T07:17:06Z</time>
      </trkpt>
      <trkpt lat="45.78831" lon="4.81532">
        <ele>224.39511</ele>
        <time>2012-09-16T07:17:09Z</time>
      </trkpt>
      <trkpt lat="45.7885" lon="4.81551">
        <ele>224.8541</ele>
        <time>2012-09-16T07:17:12Z</time>
      </trkpt>
      <trkpt lat="45.78869" lon="4.8157">
        <ele>224.46638</ele>
        <time>2012-09-16T07:17:15Z</time>
      </trkpt>
      <trkpt lat="45.78889" lon="4.8159">
        <ele>223.87471</ele>
        <time>2012-09-16T07:17:18Z</time>
      </trkpt>
      <trkpt lat="45.78908" lon="4.81612">
        <ele>223.33765</ele>
        <time>2012-09-16T07:17:21Z</time>
      </trkpt>
      <trkpt lat="45.78925" lon="4.81635">
        <ele>222.7237</ele>
        <time>2012-09-16T07:17:24Z</time>
      </trkpt>
      <trkpt lat="45.78942" lon="4.8166">
        <ele>222.0272</ele>
        <time>2012-09-16T07:17:27Z</time>
      </trkpt>
      <trkpt lat="45.78958" lon="4.81684">
        <ele>221.57558</ele>
        <time>2012-09-16T07:17:30Z</time>
      </trkpt>
      <trkpt lat="45.78974" lon="4.81707">
        <ele>221.03024</ele>
        <time>2012-09-16T07:17:33Z</time>
      </trkpt>
      <trkpt lat="45.7899" lon="4.81731">
        <ele>220.65955</ele>
        <time>2012-09-16T07:17:36Z</time>
      </trkpt>
      <trkpt lat="45.79007" lon="4.81756">
        <ele>220.45628</ele>
        <time>2012-09-16T07:17:39Z</time>
      </trkpt>
      <trkpt lat="45.79022" lon="4.8178">
        <ele>220.8299</ele>
        <time>2012-09-16T07:17:42Z</time>
      </trkpt>
      <trkpt lat="45.79039" lon="4.81805">
        <ele>221.64214</ele>
        <time>2012-09-16T07:17:45Z</time>
      </trkpt>
      <trkpt lat="45.79055" lon="4.81827">
        <ele>222.41139</ele>
        <time>2012-09-16T07:17:48Z</time>
      </trkpt>
      <trkpt lat="45.79071" lon="4.81848">
        <ele>223.73119</ele>
        <time>2012-09-16T07:17:51Z</time>
      </trkpt>
      <trkpt lat="45.79088" lon="4.81871">
        <ele>224.69409</ele>
        <time>2012-09-16T07:17:54Z</time>
      </trkpt>
      <trkpt lat="45.79105" lon="4.81896">
        <ele>225.57838</ele>
        <time>2012-09-16T07:17:57Z</time>
      </trkpt>
      <trkpt lat="45.79124" lon="4.8192">
        <ele>225.74686</ele>
        <time>2012-09-16T07:18:00Z</time>
      </trkpt>
      <trkpt lat="45.79144" lon="4.81944">
        <ele>226.11778</ele>
        <time>2012-09-16T07:18:03Z</time>
      </trkpt>
      <trkpt lat="45.79164" lon="4.81965">
        <ele>225.7306</ele>
        <time>2012-09-16T07:18:06Z</time>
      </trkpt>
      <trkpt lat="45.79184" lon="4.8196">
        <ele>225.70831</ele>
        <time>2012-09-16T07:18:09Z</time>
      </trkpt>
      <trkpt lat="45.79198" lon="4.81933">
        <ele>227.33533</ele>
        <time>2012-09-16T07:18:12Z</time>
      </trkpt>
      <trkpt lat="45.7921" lon="4.81907">
        <ele>228.61374</ele>
        <time>2012-09-16T07:18:15Z</time>
      </trkpt>
      <trkpt lat="45.79222" lon="4.81885">
        <ele>230.90741</ele>
        <time>2012-09-16T07:18:18Z</time>
      </trkpt>
      <trkpt lat="45.79242" lon="4.8189">
        <ele>231.27051</ele>
        <time>2012-09-16T07:18:22Z</time>
      </trkpt>
      <trkpt lat="45.79255" lon="4.81914">
        <ele>229.475</ele>
        <time>2012-09-16T07:18:25Z</time>
      </trkpt>
      <trkpt lat="45.79266" lon="4.8194">
        <ele>228.12697</ele>
        <time>2012-09-16T07:18:28Z</time>
      </trkpt>
      <trkpt lat="45.79285" lon="4.81945">
        <ele>226.92712</ele>
        <time>2012-09-16T07:18:31Z</time>
      </trkpt>
      <trkpt lat="45.79304" lon="4.8193">
        <ele>225.15501</ele>
        <time>2012-09-16T07:18:35Z</time>
      </trkpt>
      <trkpt lat="45.7932" lon="4.81913">
        <ele>224.5259</ele>
        <time>2012-09-16T07:18:40Z</time>
      </trkpt>
      <trkpt lat="45.79336" lon="4.81927">
        <ele>225.08292</ele>
        <time>2012-09-16T07:18:45Z</time>
      </trkpt>
      <trkpt lat="45.79346" lon="4.8195">
        <ele>226.74524</ele>
        <time>2012-09-16T07:18:50Z</time>
      </trkpt>
      <trkpt lat="45.79355" lon="4.81973">
        <ele>227.82043</ele>
        <time>2012-09-16T07:18:55Z</time>
      </trkpt>
      <trkpt lat="45.79366" lon="4.81996">
        <ele>229.1991</ele>
        <time>2012-09-16T07:19:00Z</time>
      </trkpt>
      <trkpt lat="45.79377" lon="4.8202">
        <ele>230.73749</ele>
        <time>2012-09-16T07:19:05Z</time>
      </trkpt>
      <trkpt lat="45.7939" lon="4.82041">
        <ele>231.115</ele>
        <time>2012-09-16T07:19:10Z</time>
      </trkpt>
      <trkpt lat="45.79409" lon="4.82048">
        <ele>231.78528</ele>
        <time>2012-09-16T07:19:16Z</time>
      </trkpt>
      <trkpt lat="45.79428" lon="4.82049">
        <ele>234.95323</ele>
        <time>2012-09-16T07:19:26Z</time>
      </trkpt>
      <trkpt lat="45.79447" lon="4.82046">
        <ele>237.5832</ele>
        <time>2012-09-16T07:19:40Z</time>
      </trkpt>
      <trkpt lat="45.79464" lon="4.82034">
        <ele>243.38704</ele>
        <time>2012-09-16T07:19:49Z</time>
      </trkpt>
      <trkpt lat="45.79481" lon="4.82027">
        <ele>249.65532</ele>
        <time>2012-09-16T07:20:00Z</time>
      </trkpt>
      <trkpt lat="45.795" lon="4.82022">
        <ele>259.41336</ele>
        <time>2012-09-16T07:20:19Z</time>
      </trkpt>
      <trkpt lat="45.79519" lon="4.82016">
        <ele>268.78638</ele>
        <time>2012-09-16T07:20:32Z</time>
      </trkpt>
      <trkpt lat="45.79537" lon="4.82005">
        <ele>271.02582</ele>
        <time>2012-09-16T07:20:46Z</time>
      </trkpt>
      <trkpt lat="45.79555" lon="4.81995">
        <ele>273.29504</ele>
        <time>2012-09-16T07:20:57Z</time>
      </trkpt>
      <trkpt lat="45.79575" lon="4.81991">
        <ele>276.3837</ele>
        <time>2012-09-16T07:21:04Z</time>
      </trkpt>
      <trkpt lat="45.79592" lon="4.82001">
        <ele>279.33914</ele>
        <time>2012-09-16T07:21:12Z</time>
      </trkpt>
      <trkpt lat="45.796" lon="4.82025">
        <ele>279.9084</ele>
        <time>2012-09-16T07:21:17Z</time>
      </trkpt>
      <trkpt lat="45.79609" lon="4.82051">
        <ele>279.46103</ele>
        <time>2012-09-16T07:21:21Z</time>
      </trkpt>
      <trkpt lat="45.79617" lon="4.82077">
        <ele>279.38464</ele>
        <time>2012-09-16T07:21:25Z</time>
      </trkpt>
      <trkpt lat="45.79624" lon="4.82104">
        <ele>279.8348</ele>
        <time>2012-09-16T07:21:30Z</time>
      </trkpt>
      <trkpt lat="45.7963" lon="4.82129">
        <ele>279.20413</ele>
        <time>2012-09-16T07:21:35Z</time>
      </trkpt>
      <trkpt lat="45.79638" lon="4.82153">
        <ele>279.25006</ele>
        <time>2012-09-16T07:21:40Z</time>
      </trkpt>
      <trkpt lat="45.79647" lon="4.82178">
        <ele>278.96262</ele>
        <time>2012-09-16T07:21:46Z</time>
      </trkpt>
      <trkpt lat="45.79659" lon="4.82199">
        <ele>280.2015</ele>
        <time>2012-09-16T07:21:51Z</time>
      </trkpt>
      <trkpt lat="45.79678" lon="4.82195">
        <ele>281.31815</ele>
        <time>2012-09-16T07:21:57Z</time>
      </trkpt>
      <trkpt lat="45.79694" lon="4.82178">
        <ele>280.8494</ele>
        <time>2012-09-16T07:22:04Z</time>
      </trkpt>
      <trkpt lat="45.79712" lon="4.82174">
        <ele>280.9658</ele>
        <time>2012-09-16T07:22:11Z</time>
      </trkpt>
      <trkpt lat="45.79721" lon="4.82199">
        <ele>280.02548</ele>
        <time>2012-09-16T07:22:16Z</time>
      </trkpt>
      <trkpt lat="45.79733" lon="4.82226">
        <ele>279.47208</ele>
        <time>2012-09-16T07:22:21Z</time>
      </trkpt>
      <trkpt lat="45.79743" lon="4.8225">
        <ele>279.47</ele>
        <time>2012-09-16T07:22:25Z</time>
      </trkpt>
      <trkpt lat="45.79753" lon="4.82274">
        <ele>279.52914</ele>
        <time>2012-09-16T07:22:29Z</time>
      </trkpt>
      <trkpt lat="45.79766" lon="4.82299">
        <ele>279.22675</ele>
        <time>2012-09-16T07:22:33Z</time>
      </trkpt>
      <trkpt lat="45.79782" lon="4.82318">
        <ele>279.09695</ele>
        <time>2012-09-16T07:22:37Z</time>
      </trkpt>
      <trkpt lat="45.79799" lon="4.82337">
        <ele>279.5195</ele>
        <time>2012-09-16T07:22:41Z</time>
      </trkpt>
      <trkpt lat="45.79817" lon="4.82355">
        <ele>280.4003</ele>
        <time>2012-09-16T07:22:45Z</time>
      </trkpt>
      <trkpt lat="45.79835" lon="4.82373">
        <ele>282.06335</ele>
        <time>2012-09-16T07:22:49Z</time>
      </trkpt>
      <trkpt lat="45.79852" lon="4.82392">
        <ele>283.3509</ele>
        <time>2012-09-16T07:22:53Z</time>
      </trkpt>
      <trkpt lat="45.79868" lon="4.82411">
        <ele>283.7536</ele>
        <time>2012-09-16T07:22:57Z</time>
      </trkpt>
      <trkpt lat="45.79887" lon="4.82428">
        <ele>284.3451</ele>
        <time>2012-09-16T07:23:01Z</time>
      </trkpt>
      <trkpt lat="45.79885" lon="4.82458">
        <ele>284.29395</ele>
        <time>2012-09-16T07:23:05Z</time>
      </trkpt>
      <trkpt lat="45.79874" lon="4.82485">
        <ele>283.20837</ele>
        <time>2012-09-16T07:23:08Z</time>
      </trkpt>
      <trkpt lat="45.79872" lon="4.82517">
        <ele>282.25354</ele>
        <time>2012-09-16T07:23:11Z</time>
      </trkpt>
      <trkpt lat="45.79879" lon="4.82545">
        <ele>281.58664</ele>
        <time>2012-09-16T07:23:14Z</time>
      </trkpt>
      <trkpt lat="45.7989" lon="4.8257">
        <ele>280.835</ele>
        <time>2012-09-16T07:23:17Z</time>
      </trkpt>
      <trkpt lat="45.79905" lon="4.82595">
        <ele>279.8741</ele>
        <time>2012-09-16T07:23:20Z</time>
      </trkpt>
      <trkpt lat="45.79918" lon="4.82621">
        <ele>279.54532</ele>
        <time>2012-09-16T07:23:23Z</time>
      </trkpt>
      <trkpt lat="45.79929" lon="4.82646">
        <ele>279.89725</ele>
        <time>2012-09-16T07:23:26Z</time>
      </trkpt>
      <trkpt lat="45.79938" lon="4.8267">
        <ele>280.08008</ele>
        <time>2012-09-16T07:23:29Z</time>
      </trkpt>
      <trkpt lat="45.79948" lon="4.82695">
        <ele>279.8166</ele>
        <time>2012-09-16T07:23:32Z</time>
      </trkpt>
      <trkpt lat="45.79957" lon="4.8272">
        <ele>279.67575</ele>
        <time>2012-09-16T07:23:35Z</time>
      </trkpt>
      <trkpt lat="45.79968" lon="4.82749">
        <ele>279.5056</ele>
        <time>2012-09-16T07:23:39Z</time>
      </trkpt>
      <trkpt lat="45.79978" lon="4.82773">
        <ele>278.7289</ele>
        <time>2012-09-16T07:23:42Z</time>
      </trkpt>
      <trkpt lat="45.79976" lon="4.82801">
        <ele>276.90295</ele>
        <time>2012-09-16T07:23:47Z</time>
      </trkpt>
      <trkpt lat="45.79962" lon="4.82824">
        <ele>274.92438</ele>
        <time>2012-09-16T07:23:51Z</time>
      </trkpt>
      <trkpt lat="45.79945" lon="4.8285">
        <ele>273.13217</ele>
        <time>2012-09-16T07:23:54Z</time>
      </trkpt>
      <trkpt lat="45.79929" lon="4.82867">
        <ele>271.4806</ele>
        <time>2012-09-16T07:23:56Z</time>
      </trkpt>
      <trkpt lat="45.79912" lon="4.82883">
        <ele>269.72034</ele>
        <time>2012-09-16T07:23:58Z</time>
      </trkpt>
      <trkpt lat="45.79894" lon="4.82904">
        <ele>267.41013</ele>
        <time>2012-09-16T07:24:01Z</time>
      </trkpt>
      <trkpt lat="45.79898" lon="4.82933">
        <ele>263.79227</ele>
        <time>2012-09-16T07:24:05Z</time>
      </trkpt>
      <trkpt lat="45.79911" lon="4.82959">
        <ele>260.8233</ele>
        <time>2012-09-16T07:24:08Z</time>
      </trkpt>
      <trkpt lat="45.79908" lon="4.82987">
        <ele>255.98674</ele>
        <time>2012-09-16T07:24:19Z</time>
      </trkpt>
      <trkpt lat="45.79907" lon="4.83013">
        <ele>255.188</ele>
        <time>2012-09-16T07:24:23Z</time>
      </trkpt>
      <trkpt lat="45.79888" lon="4.82991">
        <ele>254.20518</ele>
        <time>2012-09-16T07:24:27Z</time>
      </trkpt>
      <trkpt lat="45.7988" lon="4.82967">
        <ele>252.85374</ele>
        <time>2012-09-16T07:24:30Z</time>
      </trkpt>
      <trkpt lat="45.79884" lon="4.82994">
        <ele>243.61505</ele>
        <time>2012-09-16T07:24:42Z</time>
      </trkpt>
      <trkpt lat="45.79891" lon="4.83025">
        <ele>241.6608</ele>
        <time>2012-09-16T07:24:47Z</time>
      </trkpt>
      <trkpt lat="45.79895" lon="4.83051">
        <ele>238.71806</ele>
        <time>2012-09-16T07:24:51Z</time>
      </trkpt>
      <trkpt lat="45.79875" lon="4.83033">
        <ele>236.75415</ele>
        <time>2012-09-16T07:24:55Z</time>
      </trkpt>
      <trkpt lat="45.79862" lon="4.83011">
        <ele>234.69629</ele>
        <time>2012-09-16T07:24:58Z</time>
      </trkpt>
      <trkpt lat="45.79842" lon="4.83012">
        <ele>233.33594</ele>
        <time>2012-09-16T07:25:01Z</time>
      </trkpt>
      <trkpt lat="45.79819" lon="4.8301">
        <ele>232.2309</ele>
        <time>2012-09-16T07:25:05Z</time>
      </trkpt>
      <trkpt lat="45.79799" lon="4.83012">
        <ele>230.67793</ele>
        <time>2012-09-16T07:25:10Z</time>
      </trkpt>
      <trkpt lat="45.79781" lon="4.83027">
        <ele>228.93944</ele>
        <time>2012-09-16T07:25:20Z</time>
      </trkpt>
      <trkpt lat="45.79786" lon="4.83054">
        <ele>225.91922</ele>
        <time>2012-09-16T07:25:25Z</time>
      </trkpt>
      <trkpt lat="45.79769" lon="4.83067">
        <ele>224.57327</ele>
        <time>2012-09-16T07:25:29Z</time>
      </trkpt>
      <trkpt lat="45.79752" lon="4.8308">
        <ele>223.45435</ele>
        <time>2012-09-16T07:25:32Z</time>
      </trkpt>
      <trkpt lat="45.79735" lon="4.83091">
        <ele>222.73698</ele>
        <time>2012-09-16T07:25:35Z</time>
      </trkpt>
      <trkpt lat="45.79718" lon="4.83102">
        <ele>221.93748</ele>
        <time>2012-09-16T07:25:38Z</time>
      </trkpt>
      <trkpt lat="45.797" lon="4.83109">
        <ele>220.86421</ele>
        <time>2012-09-16T07:25:42Z</time>
      </trkpt>
      <trkpt lat="45.7969" lon="4.83081">
        <ele>220.40587</ele>
        <time>2012-09-16T07:25:46Z</time>
      </trkpt>
      <trkpt lat="45.79689" lon="4.83107">
        <ele>227.02547</ele>
        <time>2012-09-16T07:27:07Z</time>
      </trkpt>
      <trkpt lat="45.79672" lon="4.83124">
        <ele>225.37526</ele>
        <time>2012-09-16T07:27:11Z</time>
      </trkpt>
      <trkpt lat="45.79656" lon="4.83138">
        <ele>223.06717</ele>
        <time>2012-09-16T07:27:15Z</time>
      </trkpt>
      <trkpt lat="45.79636" lon="4.83153">
        <ele>221.88141</ele>
        <time>2012-09-16T07:27:19Z</time>
      </trkpt>
      <trkpt lat="45.79617" lon="4.83169">
        <ele>221.31404</ele>
        <time>2012-09-16T07:27:23Z</time>
      </trkpt>
      <trkpt lat="45.79599" lon="4.83155">
        <ele>220.90155</ele>
        <time>2012-09-16T07:27:31Z</time>
      </trkpt>
      <trkpt lat="45.79593" lon="4.83129">
        <ele>221.02722</ele>
        <time>2012-09-16T07:27:34Z</time>
      </trkpt>
      <trkpt lat="45.79589" lon="4.83101">
        <ele>221.00835</ele>
        <time>2012-09-16T07:27:37Z</time>
      </trkpt>
      <trkpt lat="45.79583" lon="4.83072">
        <ele>220.9129</ele>
        <time>2012-09-16T07:27:40Z</time>
      </trkpt>
      <trkpt lat="45.79577" lon="4.83043">
        <ele>220.88045</ele>
        <time>2012-09-16T07:27:43Z</time>
      </trkpt>
      <trkpt lat="45.79567" lon="4.83016">
        <ele>220.76518</ele>
        <time>2012-09-16T07:27:46Z</time>
      </trkpt>
      <trkpt lat="45.79556" lon="4.82988">
        <ele>220.54312</ele>
        <time>2012-09-16T07:27:49Z</time>
      </trkpt>
      <trkpt lat="45.79544" lon="4.82961">
        <ele>220.31975</ele>
        <time>2012-09-16T07:27:52Z</time>
      </trkpt>
      <trkpt lat="45.79533" lon="4.82933">
        <ele>220.19269</ele>
        <time>2012-09-16T07:27:55Z</time>
      </trkpt>
      <trkpt lat="45.79521" lon="4.82905">
        <ele>220.1641</ele>
        <time>2012-09-16T07:27:58Z</time>
      </trkpt>
      <trkpt lat="45.79508" lon="4.82878">
        <ele>220.1161</ele>
        <time>2012-09-16T07:28:01Z</time>
      </trkpt>
      <trkpt lat="45.79492" lon="4.82854">
        <ele>220.02399</ele>
        <time>2012-09-16T07:28:04Z</time>
      </trkpt>
      <trkpt lat="45.79476" lon="4.82831">
        <ele>219.88356</ele>
        <time>2012-09-16T07:28:07Z</time>
      </trkpt>
      <trkpt lat="45.7946" lon="4.82808">
        <ele>219.84619</ele>
        <time>2012-09-16T07:28:10Z</time>
      </trkpt>
      <trkpt lat="45.79442" lon="4.82791">
        <ele>220.02261</ele>
        <time>2012-09-16T07:28:13Z</time>
      </trkpt>
      <trkpt lat="45.7942" lon="4.82798">
        <ele>220.42828</ele>
        <time>2012-09-16T07:28:16Z</time>
      </trkpt>
      <trkpt lat="45.79406" lon="4.82823">
        <ele>221.85582</ele>
        <time>2012-09-16T07:28:20Z</time>
      </trkpt>
      <trkpt lat="45.79387" lon="4.82838">
        <ele>223.34154</ele>
        <time>2012-09-16T07:28:26Z</time>
      </trkpt>
      <trkpt lat="45.79368" lon="4.82842">
        <ele>224.2893</ele>
        <time>2012-09-16T07:28:30Z</time>
      </trkpt>
      <trkpt lat="45.79348" lon="4.82847">
        <ele>225.49037</ele>
        <time>2012-09-16T07:28:34Z</time>
      </trkpt>
      <trkpt lat="45.79326" lon="4.82854">
        <ele>225.64383</ele>
        <time>2012-09-16T07:28:38Z</time>
      </trkpt>
      <trkpt lat="45.79308" lon="4.82861">
        <ele>225.73099</ele>
        <time>2012-09-16T07:28:41Z</time>
      </trkpt>
      <trkpt lat="45.79286" lon="4.82867">
        <ele>226.30511</ele>
        <time>2012-09-16T07:28:45Z</time>
      </trkpt>
      <trkpt lat="45.79264" lon="4.82859">
        <ele>227.33989</ele>
        <time>2012-09-16T07:28:49Z</time>
      </trkpt>
      <trkpt lat="45.79241" lon="4.8285">
        <ele>228.23567</ele>
        <time>2012-09-16T07:28:53Z</time>
      </trkpt>
      <trkpt lat="45.79222" lon="4.82842">
        <ele>228.58824</ele>
        <time>2012-09-16T07:28:57Z</time>
      </trkpt>
      <trkpt lat="45.792" lon="4.82837">
        <ele>228.78418</ele>
        <time>2012-09-16T07:29:01Z</time>
      </trkpt>
      <trkpt lat="45.79182" lon="4.8284">
        <ele>228.06207</ele>
        <time>2012-09-16T07:29:04Z</time>
      </trkpt>
      <trkpt lat="45.79159" lon="4.82839">
        <ele>227.88876</ele>
        <time>2012-09-16T07:29:08Z</time>
      </trkpt>
      <trkpt lat="45.79139" lon="4.82827">
        <ele>228.91129</ele>
        <time>2012-09-16T07:29:12Z</time>
      </trkpt>
      <trkpt lat="45.79122" lon="4.82813">
        <ele>230.13446</ele>
        <time>2012-09-16T07:29:15Z</time>
      </trkpt>
      <trkpt lat="45.79103" lon="4.82806">
        <ele>231.55348</ele>
        <time>2012-09-16T07:29:19Z</time>
      </trkpt>
      <trkpt lat="45.79087" lon="4.8282">
        <ele>232.55504</ele>
        <time>2012-09-16T07:29:27Z</time>
      </trkpt>
      <trkpt lat="45.79092" lon="4.82846">
        <ele>239.03441</ele>
        <time>2012-09-16T07:29:45Z</time>
      </trkpt>
      <trkpt lat="45.79072" lon="4.8285">
        <ele>245.68784</ele>
        <time>2012-09-16T07:30:02Z</time>
      </trkpt>
      <trkpt lat="45.79055" lon="4.82841">
        <ele>248.1406</ele>
        <time>2012-09-16T07:30:09Z</time>
      </trkpt>
      <trkpt lat="45.79035" lon="4.82834">
        <ele>249.45479</ele>
        <time>2012-09-16T07:30:30Z</time>
      </trkpt>
      <trkpt lat="45.79016" lon="4.82833">
        <ele>249.91849</ele>
        <time>2012-09-16T07:30:35Z</time>
      </trkpt>
      <trkpt lat="45.78997" lon="4.82838">
        <ele>250.15993</ele>
        <time>2012-09-16T07:30:43Z</time>
      </trkpt>
      <trkpt lat="45.79008" lon="4.82861">
        <ele>252.57452</ele>
        <time>2012-09-16T07:31:00Z</time>
      </trkpt>
      <trkpt lat="45.79026" lon="4.8287">
        <ele>256.6508</ele>
        <time>2012-09-16T07:31:08Z</time>
      </trkpt>
      <trkpt lat="45.79041" lon="4.82884">
        <ele>259.4422</ele>
        <time>2012-09-16T07:31:17Z</time>
      </trkpt>
      <trkpt lat="45.79057" lon="4.82902">
        <ele>261.1169</ele>
        <time>2012-09-16T07:31:27Z</time>
      </trkpt>
      <trkpt lat="45.7904" lon="4.82912">
        <ele>263.35187</ele>
        <time>2012-09-16T07:31:48Z</time>
      </trkpt>
      <trkpt lat="45.79023" lon="4.829">
        <ele>264.16846</ele>
        <time>2012-09-16T07:31:56Z</time>
      </trkpt>
      <trkpt lat="45.79004" lon="4.82897">
        <ele>265.31485</ele>
        <time>2012-09-16T07:32:06Z</time>
      </trkpt>
      <trkpt lat="45.78985" lon="4.82897">
        <ele>268.56757</ele>
        <time>2012-09-16T07:32:24Z</time>
      </trkpt>
      <trkpt lat="45.78967" lon="4.82897">
        <ele>272.93024</ele>
        <time>2012-09-16T07:32:33Z</time>
      </trkpt>
      <trkpt lat="45.78949" lon="4.82892">
        <ele>275.56577</ele>
        <time>2012-09-16T07:32:42Z</time>
      </trkpt>
      <trkpt lat="45.78936" lon="4.82868">
        <ele>276.76617</ele>
        <time>2012-09-16T07:32:49Z</time>
      </trkpt>
      <trkpt lat="45.78929" lon="4.82844">
        <ele>277.29715</ele>
        <time>2012-09-16T07:32:55Z</time>
      </trkpt>
      <trkpt lat="45.78912" lon="4.82832">
        <ele>278.78693</ele>
        <time>2012-09-16T07:33:05Z</time>
      </trkpt>
      <trkpt lat="45.78893" lon="4.8283">
        <ele>278.6316</ele>
        <time>2012-09-16T07:33:14Z</time>
      </trkpt>
      <trkpt lat="45.78873" lon="4.82831">
        <ele>279.498</ele>
        <time>2012-09-16T07:33:27Z</time>
      </trkpt>
      <trkpt lat="45.78854" lon="4.82835">
        <ele>278.6335</ele>
        <time>2012-09-16T07:33:34Z</time>
      </trkpt>
      <trkpt lat="45.78835" lon="4.82841">
        <ele>280.18808</ele>
        <time>2012-09-16T07:33:44Z</time>
      </trkpt>
      <trkpt lat="45.78819" lon="4.8285">
        <ele>281.4301</ele>
        <time>2012-09-16T07:33:55Z</time>
      </trkpt>
      <trkpt lat="45.78803" lon="4.82864">
        <ele>281.18802</ele>
        <time>2012-09-16T07:34:03Z</time>
      </trkpt>
      <trkpt lat="45.78788" lon="4.82882">
        <ele>281.9475</ele>
        <time>2012-09-16T07:34:11Z</time>
      </trkpt>
      <trkpt lat="45.7877" lon="4.82895">
        <ele>286.4406</ele>
        <time>2012-09-16T07:34:19Z</time>
      </trkpt>
      <trkpt lat="45.78751" lon="4.82906">
        <ele>289.3476</ele>
        <time>2012-09-16T07:34:26Z</time>
      </trkpt>
      <trkpt lat="45.78733" lon="4.82908">
        <ele>293.5695</ele>
        <time>2012-09-16T07:34:34Z</time>
      </trkpt>
      <trkpt lat="45.78713" lon="4.82909">
        <ele>295.1415</ele>
        <time>2012-09-16T07:34:40Z</time>
      </trkpt>
      <trkpt lat="45.78699" lon="4.82929">
        <ele>298.11813</ele>
        <time>2012-09-16T07:34:48Z</time>
      </trkpt>
      <trkpt lat="45.78687" lon="4.8295">
        <ele>300.66208</ele>
        <time>2012-09-16T07:34:54Z</time>
      </trkpt>
      <trkpt lat="45.78672" lon="4.82973">
        <ele>303.7665</ele>
        <time>2012-09-16T07:35:00Z</time>
      </trkpt>
      <trkpt lat="45.78653" lon="4.82989">
        <ele>303.7016</ele>
        <time>2012-09-16T07:35:05Z</time>
      </trkpt>
      <trkpt lat="45.7863" lon="4.82989">
        <ele>300.97824</ele>
        <time>2012-09-16T07:35:10Z</time>
      </trkpt>
      <trkpt lat="45.78612" lon="4.82986">
        <ele>300.56686</ele>
        <time>2012-09-16T07:35:14Z</time>
      </trkpt>
      <trkpt lat="45.78593" lon="4.82984">
        <ele>300.52106</ele>
        <time>2012-09-16T07:35:18Z</time>
      </trkpt>
      <trkpt lat="45.78573" lon="4.82981">
        <ele>300.49567</ele>
        <time>2012-09-16T07:35:22Z</time>
      </trkpt>
      <trkpt lat="45.78554" lon="4.82978">
        <ele>300.52322</ele>
        <time>2012-09-16T07:35:26Z</time>
      </trkpt>
      <trkpt lat="45.78534" lon="4.82975">
        <ele>300.76282</ele>
        <time>2012-09-16T07:35:30Z</time>
      </trkpt>
      <trkpt lat="45.78515" lon="4.82972">
        <ele>301.32535</ele>
        <time>2012-09-16T07:35:34Z</time>
      </trkpt>
      <trkpt lat="45.78494" lon="4.82968">
        <ele>302.0002</ele>
        <time>2012-09-16T07:35:38Z</time>
      </trkpt>
      <trkpt lat="45.78473" lon="4.82964">
        <ele>301.81766</ele>
        <time>2012-09-16T07:35:42Z</time>
      </trkpt>
      <trkpt lat="45.78453" lon="4.8296">
        <ele>300.82355</ele>
        <time>2012-09-16T07:35:46Z</time>
      </trkpt>
      <trkpt lat="45.78434" lon="4.82956">
        <ele>299.7024</ele>
        <time>2012-09-16T07:35:50Z</time>
      </trkpt>
      <trkpt lat="45.78414" lon="4.82949">
        <ele>299.3019</ele>
        <time>2012-09-16T07:35:54Z</time>
      </trkpt>
      <trkpt lat="45.78392" lon="4.82941">
        <ele>299.60803</ele>
        <time>2012-09-16T07:35:58Z</time>
      </trkpt>
      <trkpt lat="45.78372" lon="4.82938">
        <ele>300.29715</ele>
        <time>2012-09-16T07:36:01Z</time>
      </trkpt>
      <trkpt lat="45.78351" lon="4.82935">
        <ele>301.38004</ele>
        <time>2012-09-16T07:36:04Z</time>
      </trkpt>
      <trkpt lat="45.7833" lon="4.82934">
        <ele>302.09625</ele>
        <time>2012-09-16T07:36:07Z</time>
      </trkpt>
      <trkpt lat="45.78311" lon="4.8293">
        <ele>302.71796</ele>
        <time>2012-09-16T07:36:11Z</time>
      </trkpt>
      <trkpt lat="45.7829" lon="4.82923">
        <ele>303.9307</ele>
        <time>2012-09-16T07:36:15Z</time>
      </trkpt>
      <trkpt lat="45.78291" lon="4.82895">
        <ele>302.61166</ele>
        <time>2012-09-16T07:36:19Z</time>
      </trkpt>
      <trkpt lat="45.78301" lon="4.82871">
        <ele>300.53223</ele>
        <time>2012-09-16T07:36:23Z</time>
      </trkpt>
      <trkpt lat="45.78307" lon="4.82845">
        <ele>299.50122</ele>
        <time>2012-09-16T07:36:27Z</time>
      </trkpt>
      <trkpt lat="45.78315" lon="4.82818">
        <ele>299.54022</ele>
        <time>2012-09-16T07:36:31Z</time>
      </trkpt>
      <trkpt lat="45.78322" lon="4.82788">
        <ele>300.69827</ele>
        <time>2012-09-16T07:36:35Z</time>
      </trkpt>
      <trkpt lat="45.78329" lon="4.82758">
        <ele>301.60687</ele>
        <time>2012-09-16T07:36:39Z</time>
      </trkpt>
      <trkpt lat="45.78338" lon="4.82725">
        <ele>302.82523</ele>
        <time>2012-09-16T07:36:43Z</time>
      </trkpt>
      <trkpt lat="45.78347" lon="4.82694">
        <ele>303.63495</ele>
        <time>2012-09-16T07:36:47Z</time>
      </trkpt>
      <trkpt lat="45.78354" lon="4.8267">
        <ele>304.00067</ele>
        <time>2012-09-16T07:36:50Z</time>
      </trkpt>
      <trkpt lat="45.7836" lon="4.82643">
        <ele>304.22998</ele>
        <time>2012-09-16T07:36:53Z</time>
      </trkpt>
      <trkpt lat="45.78368" lon="4.82618">
        <ele>303.93765</ele>
        <time>2012-09-16T07:36:56Z</time>
      </trkpt>
      <trkpt lat="45.78375" lon="4.82591">
        <ele>303.0737</ele>
        <time>2012-09-16T07:36:59Z</time>
      </trkpt>
      <trkpt lat="45.78383" lon="4.82564">
        <ele>302.23578</ele>
        <time>2012-09-16T07:37:02Z</time>
      </trkpt>
      <trkpt lat="45.7839" lon="4.82536">
        <ele>301.8104</ele>
        <time>2012-09-16T07:37:05Z</time>
      </trkpt>
      <trkpt lat="45.78396" lon="4.8251">
        <ele>301.7575</ele>
        <time>2012-09-16T07:37:08Z</time>
      </trkpt>
      <trkpt lat="45.78403" lon="4.82478">
        <ele>301.82993</ele>
        <time>2012-09-16T07:37:12Z</time>
      </trkpt>
      <trkpt lat="45.7841" lon="4.82445">
        <ele>302.08798</ele>
        <time>2012-09-16T07:37:16Z</time>
      </trkpt>
      <trkpt lat="45.78416" lon="4.82421">
        <ele>302.76526</ele>
        <time>2012-09-16T07:37:19Z</time>
      </trkpt>
      <trkpt lat="45.78424" lon="4.82396">
        <ele>303.0775</ele>
        <time>2012-09-16T07:37:22Z</time>
      </trkpt>
      <trkpt lat="45.7843" lon="4.82368">
        <ele>302.95926</ele>
        <time>2012-09-16T07:37:25Z</time>
      </trkpt>
      <trkpt lat="45.78443" lon="4.8235">
        <ele>302.39377</ele>
        <time>2012-09-16T07:37:28Z</time>
      </trkpt>
      <trkpt lat="45.78464" lon="4.82348">
        <ele>302.44113</ele>
        <time>2012-09-16T07:37:31Z</time>
      </trkpt>
      <trkpt lat="45.78487" lon="4.82348">
        <ele>303.2783</ele>
        <time>2012-09-16T07:37:34Z</time>
      </trkpt>
      <trkpt lat="45.78512" lon="4.82341">
        <ele>303.08615</ele>
        <time>2012-09-16T07:37:37Z</time>
      </trkpt>
      <trkpt lat="45.78536" lon="4.82335">
        <ele>302.02228</ele>
        <time>2012-09-16T07:37:40Z</time>
      </trkpt>
      <trkpt lat="45.78558" lon="4.82325">
        <ele>300.60315</ele>
        <time>2012-09-16T07:37:43Z</time>
      </trkpt>
      <trkpt lat="45.78581" lon="4.82314">
        <ele>299.27475</ele>
        <time>2012-09-16T07:37:46Z</time>
      </trkpt>
      <trkpt lat="45.78605" lon="4.82303">
        <ele>297.66434</ele>
        <time>2012-09-16T07:37:49Z</time>
      </trkpt>
      <trkpt lat="45.78624" lon="4.82295">
        <ele>296.34106</ele>
        <time>2012-09-16T07:37:53Z</time>
      </trkpt>
      <trkpt lat="45.78623" lon="4.82263">
        <ele>295.36383</ele>
        <time>2012-09-16T07:37:58Z</time>
      </trkpt>
      <trkpt lat="45.78621" lon="4.82233">
        <ele>293.42096</ele>
        <time>2012-09-16T07:38:02Z</time>
      </trkpt>
      <trkpt lat="45.78622" lon="4.82205">
        <ele>291.5258</ele>
        <time>2012-09-16T07:38:06Z</time>
      </trkpt>
      <trkpt lat="45.78635" lon="4.82183">
        <ele>289.90417</ele>
        <time>2012-09-16T07:38:11Z</time>
      </trkpt>
      <trkpt lat="45.78653" lon="4.82169">
        <ele>288.8033</ele>
        <time>2012-09-16T07:38:14Z</time>
      </trkpt>
      <trkpt lat="45.78674" lon="4.82158">
        <ele>286.0862</ele>
        <time>2012-09-16T07:38:18Z</time>
      </trkpt>
      <trkpt lat="45.78691" lon="4.82177">
        <ele>281.72845</ele>
        <time>2012-09-16T07:38:22Z</time>
      </trkpt>
      <trkpt lat="45.78699" lon="4.82152">
        <ele>268.3783</ele>
        <time>2012-09-16T07:38:38Z</time>
      </trkpt>
      <trkpt lat="45.78707" lon="4.82176">
        <ele>263.8504</ele>
        <time>2012-09-16T07:38:43Z</time>
      </trkpt>
      <trkpt lat="45.78724" lon="4.8221">
        <ele>260.9744</ele>
        <time>2012-09-16T07:38:46Z</time>
      </trkpt>
      <trkpt lat="45.78737" lon="4.82234">
        <ele>258.71683</ele>
        <time>2012-09-16T07:38:48Z</time>
      </trkpt>
      <trkpt lat="45.78755" lon="4.82255">
        <ele>256.61572</ele>
        <time>2012-09-16T07:38:50Z</time>
      </trkpt>
      <trkpt lat="45.78773" lon="4.82249">
        <ele>252.2038</ele>
        <time>2012-09-16T07:38:54Z</time>
      </trkpt>
      <trkpt lat="45.78789" lon="4.82226">
        <ele>246.67455</ele>
        <time>2012-09-16T07:38:59Z</time>
      </trkpt>
      <trkpt lat="45.78802" lon="4.82199">
        <ele>243.65015</ele>
        <time>2012-09-16T07:39:03Z</time>
      </trkpt>
      <trkpt lat="45.78812" lon="4.82171">
        <ele>239.89555</ele>
        <time>2012-09-16T07:39:07Z</time>
      </trkpt>
      <trkpt lat="45.78803" lon="4.82143">
        <ele>235.03784</ele>
        <time>2012-09-16T07:39:13Z</time>
      </trkpt>
      <trkpt lat="45.78788" lon="4.82128">
        <ele>232.63696</ele>
        <time>2012-09-16T07:39:17Z</time>
      </trkpt>
      <trkpt lat="45.78774" lon="4.82108">
        <ele>229.56943</ele>
        <time>2012-09-16T07:39:22Z</time>
      </trkpt>
      <trkpt lat="45.7876" lon="4.8209">
        <ele>227.4646</ele>
        <time>2012-09-16T07:39:27Z</time>
      </trkpt>
      <trkpt lat="45.78746" lon="4.82071">
        <ele>226.84619</ele>
        <time>2012-09-16T07:39:34Z</time>
      </trkpt>
      <trkpt lat="45.7873" lon="4.82052">
        <ele>227.56554</ele>
        <time>2012-09-16T07:39:42Z</time>
      </trkpt>
      <trkpt lat="45.78716" lon="4.82033">
        <ele>228.20326</ele>
        <time>2012-09-16T07:39:50Z</time>
      </trkpt>
      <trkpt lat="45.78698" lon="4.82029">
        <ele>230.62735</ele>
        <time>2012-09-16T07:39:59Z</time>
      </trkpt>
      <trkpt lat="45.7868" lon="4.82042">
        <ele>231.96068</ele>
        <time>2012-09-16T07:40:14Z</time>
      </trkpt>
      <trkpt lat="45.78663" lon="4.82052">
        <ele>233.64954</ele>
        <time>2012-09-16T07:40:25Z</time>
      </trkpt>
      <trkpt lat="45.78645" lon="4.82053">
        <ele>238.54022</ele>
        <time>2012-09-16T07:40:42Z</time>
      </trkpt>
      <trkpt lat="45.78626" lon="4.82056">
        <ele>247.68573</ele>
        <time>2012-09-16T07:40:58Z</time>
      </trkpt>
      <trkpt lat="45.78608" lon="4.82061">
        <ele>255.7491</ele>
        <time>2012-09-16T07:41:21Z</time>
      </trkpt>
      <trkpt lat="45.78591" lon="4.8207">
        <ele>265.2227</ele>
        <time>2012-09-16T07:41:30Z</time>
      </trkpt>
      <trkpt lat="45.78571" lon="4.82074">
        <ele>269.13992</ele>
        <time>2012-09-16T07:41:38Z</time>
      </trkpt>
      <trkpt lat="45.78554" lon="4.82083">
        <ele>274.79343</ele>
        <time>2012-09-16T07:41:54Z</time>
      </trkpt>
      <trkpt lat="45.78536" lon="4.82089">
        <ele>274.8461</ele>
        <time>2012-09-16T07:42:05Z</time>
      </trkpt>
      <trkpt lat="45.78517" lon="4.82097">
        <ele>275.48248</ele>
        <time>2012-09-16T07:42:17Z</time>
      </trkpt>
      <trkpt lat="45.78499" lon="4.82102">
        <ele>278.51645</ele>
        <time>2012-09-16T07:42:27Z</time>
      </trkpt>
      <trkpt lat="45.7848" lon="4.82109">
        <ele>283.16196</ele>
        <time>2012-09-16T07:42:37Z</time>
      </trkpt>
      <trkpt lat="45.78464" lon="4.82124">
        <ele>287.07724</ele>
        <time>2012-09-16T07:42:50Z</time>
      </trkpt>
      <trkpt lat="45.78447" lon="4.82128">
        <ele>292.82678</ele>
        <time>2012-09-16T07:43:04Z</time>
      </trkpt>
      <trkpt lat="45.7843" lon="4.82113">
        <ele>293.5941</ele>
        <time>2012-09-16T07:43:09Z</time>
      </trkpt>
      <trkpt lat="45.78424" lon="4.82088">
        <ele>293.50504</ele>
        <time>2012-09-16T07:43:14Z</time>
      </trkpt>
      <trkpt lat="45.78406" lon="4.82082">
        <ele>293.34454</ele>
        <time>2012-09-16T07:43:21Z</time>
      </trkpt>
      <trkpt lat="45.78385" lon="4.82083">
        <ele>292.7851</ele>
        <time>2012-09-16T07:43:27Z</time>
      </trkpt>
      <trkpt lat="45.78366" lon="4.82082">
        <ele>290.5417</ele>
        <time>2012-09-16T07:43:32Z</time>
      </trkpt>
      <trkpt lat="45.78354" lon="4.82061">
        <ele>289.0377</ele>
        <time>2012-09-16T07:43:38Z</time>
      </trkpt>
      <trkpt lat="45.78356" lon="4.82031">
        <ele>287.78302</ele>
        <time>2012-09-16T07:43:42Z</time>
      </trkpt>
      <trkpt lat="45.78358" lon="4.81998">
        <ele>287.07745</ele>
        <time>2012-09-16T07:43:46Z</time>
      </trkpt>
      <trkpt lat="45.7836" lon="4.81972">
        <ele>286.67487</ele>
        <time>2012-09-16T07:43:49Z</time>
      </trkpt>
      <trkpt lat="45.78361" lon="4.81945">
        <ele>286.43314</ele>
        <time>2012-09-16T07:43:52Z</time>
      </trkpt>
      <trkpt lat="45.78362" lon="4.81917">
        <ele>286.29837</ele>
        <time>2012-09-16T07:43:55Z</time>
      </trkpt>
      <trkpt lat="45.78363" lon="4.8189">
        <ele>286.2915</ele>
        <time>2012-09-16T07:43:58Z</time>
      </trkpt>
      <trkpt lat="45.78363" lon="4.81863">
        <ele>286.6433</ele>
        <time>2012-09-16T07:44:01Z</time>
      </trkpt>
      <trkpt lat="45.78365" lon="4.81836">
        <ele>286.8745</ele>
        <time>2012-09-16T07:44:04Z</time>
      </trkpt>
      <trkpt lat="45.78365" lon="4.81809">
        <ele>287.09238</ele>
        <time>2012-09-16T07:44:07Z</time>
      </trkpt>
      <trkpt lat="45.78355" lon="4.81785">
        <ele>287.19095</ele>
        <time>2012-09-16T07:44:11Z</time>
      </trkpt>
      <trkpt lat="45.78333" lon="4.81793">
        <ele>287.1643</ele>
        <time>2012-09-16T07:44:15Z</time>
      </trkpt>
      <trkpt lat="45.78315" lon="4.81799">
        <ele>287.45682</ele>
        <time>2012-09-16T07:44:18Z</time>
      </trkpt>
      <trkpt lat="45.78296" lon="4.81806">
        <ele>287.72708</ele>
        <time>2012-09-16T07:44:21Z</time>
      </trkpt>
      <trkpt lat="45.78279" lon="4.81813">
        <ele>288.0005</ele>
        <time>2012-09-16T07:44:24Z</time>
      </trkpt>
      <trkpt lat="45.78261" lon="4.8182">
        <ele>288.32675</ele>
        <time>2012-09-16T07:44:27Z</time>
      </trkpt>
      <trkpt lat="45.78242" lon="4.81825">
        <ele>288.791</ele>
        <time>2012-09-16T07:44:30Z</time>
      </trkpt>
      <trkpt lat="45.78223" lon="4.81829">
        <ele>289.26807</ele>
        <time>2012-09-16T07:44:33Z</time>
      </trkpt>
      <trkpt lat="45.78209" lon="4.81803">
        <ele>289.20786</ele>
        <time>2012-09-16T07:44:37Z</time>
      </trkpt>
      <trkpt lat="45.78213" lon="4.81775">
        <ele>288.8033</ele>
        <time>2012-09-16T07:44:40Z</time>
      </trkpt>
      <trkpt lat="45.78225" lon="4.81749">
        <ele>288.17953</ele>
        <time>2012-09-16T07:44:43Z</time>
      </trkpt>
      <trkpt lat="45.7824" lon="4.81726">
        <ele>287.432</ele>
        <time>2012-09-16T07:44:46Z</time>
      </trkpt>
      <trkpt lat="45.78258" lon="4.81703">
        <ele>286.60413</ele>
        <time>2012-09-16T07:44:49Z</time>
      </trkpt>
      <trkpt lat="45.78265" lon="4.81669">
        <ele>285.78455</ele>
        <time>2012-09-16T07:44:52Z</time>
      </trkpt>
      <trkpt lat="45.78262" lon="4.81637">
        <ele>284.36694</ele>
        <time>2012-09-16T07:44:55Z</time>
      </trkpt>
      <trkpt lat="45.78252" lon="4.81614">
        <ele>282.097</ele>
        <time>2012-09-16T07:44:58Z</time>
      </trkpt>
      <trkpt lat="45.78239" lon="4.81595">
        <ele>279.97842</ele>
        <time>2012-09-16T07:45:01Z</time>
      </trkpt>
      <trkpt lat="45.78225" lon="4.81573">
        <ele>278.11432</ele>
        <time>2012-09-16T07:45:04Z</time>
      </trkpt>
      <trkpt lat="45.78211" lon="4.81548">
        <ele>276.74667</ele>
        <time>2012-09-16T07:45:07Z</time>
      </trkpt>
      <trkpt lat="45.78199" lon="4.81521">
        <ele>274.85617</ele>
        <time>2012-09-16T07:45:11Z</time>
      </trkpt>
      <trkpt lat="45.7818" lon="4.81513">
        <ele>272.31076</ele>
        <time>2012-09-16T07:45:18Z</time>
      </trkpt>
      <trkpt lat="45.78162" lon="4.81513">
        <ele>271.1463</ele>
        <time>2012-09-16T07:45:24Z</time>
      </trkpt>
      <trkpt lat="45.78145" lon="4.81521">
        <ele>271.63824</ele>
        <time>2012-09-16T07:45:43Z</time>
      </trkpt>
      <trkpt lat="45.78148" lon="4.8155">
        <ele>275.01712</ele>
        <time>2012-09-16T07:45:53Z</time>
      </trkpt>
      <trkpt lat="45.78154" lon="4.81577">
        <ele>285.45233</ele>
        <time>2012-09-16T07:46:14Z</time>
      </trkpt>
      <trkpt lat="45.78158" lon="4.81603">
        <ele>289.89166</ele>
        <time>2012-09-16T07:46:38Z</time>
      </trkpt>
      <trkpt lat="45.78139" lon="4.81603">
        <ele>290.14523</ele>
        <time>2012-09-16T07:46:56Z</time>
      </trkpt>
      <trkpt lat="45.78119" lon="4.81598">
        <ele>290.7462</ele>
        <time>2012-09-16T07:47:03Z</time>
      </trkpt>
      <trkpt lat="45.78101" lon="4.81594">
        <ele>290.29266</ele>
        <time>2012-09-16T07:47:09Z</time>
      </trkpt>
      <trkpt lat="45.78079" lon="4.81592">
        <ele>291.08496</ele>
        <time>2012-09-16T07:47:15Z</time>
      </trkpt>
      <trkpt lat="45.78056" lon="4.81591">
        <ele>292.18878</ele>
        <time>2012-09-16T07:47:20Z</time>
      </trkpt>
      <trkpt lat="45.78033" lon="4.81589">
        <ele>293.70108</ele>
        <time>2012-09-16T07:47:24Z</time>
      </trkpt>
      <trkpt lat="45.7801" lon="4.81588">
        <ele>294.9628</ele>
        <time>2012-09-16T07:47:28Z</time>
      </trkpt>
      <trkpt lat="45.77985" lon="4.81589">
        <ele>294.7542</ele>
        <time>2012-09-16T07:47:32Z</time>
      </trkpt>
      <trkpt lat="45.77967" lon="4.81589">
        <ele>294.09317</ele>
        <time>2012-09-16T07:47:35Z</time>
      </trkpt>
      <trkpt lat="45.77948" lon="4.8159">
        <ele>293.3424</ele>
        <time>2012-09-16T07:47:38Z</time>
      </trkpt>
      <trkpt lat="45.77929" lon="4.8159">
        <ele>292.25385</ele>
        <time>2012-09-16T07:47:41Z</time>
      </trkpt>
      <trkpt lat="45.77911" lon="4.81589">
        <ele>291.57584</ele>
        <time>2012-09-16T07:47:44Z</time>
      </trkpt>
      <trkpt lat="45.77893" lon="4.81589">
        <ele>291.10855</ele>
        <time>2012-09-16T07:47:47Z</time>
      </trkpt>
      <trkpt lat="45.77875" lon="4.8159">
        <ele>291.1739</ele>
        <time>2012-09-16T07:47:50Z</time>
      </trkpt>
      <trkpt lat="45.77851" lon="4.81593">
        <ele>290.00894</ele>
        <time>2012-09-16T07:47:54Z</time>
      </trkpt>
      <trkpt lat="45.77828" lon="4.81598">
        <ele>288.83328</ele>
        <time>2012-09-16T07:47:58Z</time>
      </trkpt>
      <trkpt lat="45.77817" lon="4.81578">
        <ele>288.0211</ele>
        <time>2012-09-16T07:48:02Z</time>
      </trkpt>
      <trkpt lat="45.77818" lon="4.81551">
        <ele>287.3714</ele>
        <time>2012-09-16T07:48:05Z</time>
      </trkpt>
      <trkpt lat="45.77817" lon="4.81519">
        <ele>286.67062</ele>
        <time>2012-09-16T07:48:09Z</time>
      </trkpt>
      <trkpt lat="45.77803" lon="4.81492">
        <ele>286.14227</ele>
        <time>2012-09-16T07:48:13Z</time>
      </trkpt>
      <trkpt lat="45.77803" lon="4.81466">
        <ele>285.51627</ele>
        <time>2012-09-16T07:48:16Z</time>
      </trkpt>
      <trkpt lat="45.77801" lon="4.81438">
        <ele>285.07718</ele>
        <time>2012-09-16T07:48:19Z</time>
      </trkpt>
      <trkpt lat="45.77805" lon="4.81408">
        <ele>284.9041</ele>
        <time>2012-09-16T07:48:23Z</time>
      </trkpt>
      <trkpt lat="45.7779" lon="4.81391">
        <ele>285.99655</ele>
        <time>2012-09-16T07:48:30Z</time>
      </trkpt>
      <trkpt lat="45.77766" lon="4.8139">
        <ele>285.09775</ele>
        <time>2012-09-16T07:48:34Z</time>
      </trkpt>
      <trkpt lat="45.77747" lon="4.81383">
        <ele>284.63486</ele>
        <time>2012-09-16T07:48:38Z</time>
      </trkpt>
      <trkpt lat="45.77741" lon="4.81358">
        <ele>284.40558</ele>
        <time>2012-09-16T07:48:42Z</time>
      </trkpt>
      <trkpt lat="45.77734" lon="4.81334">
        <ele>284.25153</ele>
        <time>2012-09-16T07:48:47Z</time>
      </trkpt>
      <trkpt lat="45.7772" lon="4.81349">
        <ele>284.3447</ele>
        <time>2012-09-16T07:48:53Z</time>
      </trkpt>
      <trkpt lat="45.77705" lon="4.81366">
        <ele>285.0899</ele>
        <time>2012-09-16T07:48:57Z</time>
      </trkpt>
      <trkpt lat="45.77689" lon="4.8138">
        <ele>285.55618</ele>
        <time>2012-09-16T07:49:01Z</time>
      </trkpt>
      <trkpt lat="45.77671" lon="4.81396">
        <ele>285.57428</ele>
        <time>2012-09-16T07:49:06Z</time>
      </trkpt>
      <trkpt lat="45.77656" lon="4.81417">
        <ele>285.93646</ele>
        <time>2012-09-16T07:49:11Z</time>
      </trkpt>
      <trkpt lat="45.77644" lon="4.81439">
        <ele>284.77716</ele>
        <time>2012-09-16T07:49:15Z</time>
      </trkpt>
      <trkpt lat="45.77647" lon="4.81465">
        <ele>282.62442</ele>
        <time>2012-09-16T07:49:19Z</time>
      </trkpt>
      <trkpt lat="45.77652" lon="4.81493">
        <ele>281.5495</ele>
        <time>2012-09-16T07:49:23Z</time>
      </trkpt>
      <trkpt lat="45.77657" lon="4.81522">
        <ele>281.3684</ele>
        <time>2012-09-16T07:49:27Z</time>
      </trkpt>
      <trkpt lat="45.77659" lon="4.81553">
        <ele>280.79504</ele>
        <time>2012-09-16T07:49:32Z</time>
      </trkpt>
      <trkpt lat="45.77657" lon="4.81581">
        <ele>280.80087</ele>
        <time>2012-09-16T07:49:39Z</time>
      </trkpt>
      <trkpt lat="45.77657" lon="4.81608">
        <ele>282.33923</ele>
        <time>2012-09-16T07:49:46Z</time>
      </trkpt>
      <trkpt lat="45.77653" lon="4.81638">
        <ele>284.02518</ele>
        <time>2012-09-16T07:49:53Z</time>
      </trkpt>
      <trkpt lat="45.77643" lon="4.81659">
        <ele>285.81818</ele>
        <time>2012-09-16T07:49:58Z</time>
      </trkpt>
      <trkpt lat="45.77633" lon="4.81683">
        <ele>286.84125</ele>
        <time>2012-09-16T07:50:03Z</time>
      </trkpt>
      <trkpt lat="45.77618" lon="4.81705">
        <ele>287.95853</ele>
        <time>2012-09-16T07:50:08Z</time>
      </trkpt>
      <trkpt lat="45.77603" lon="4.81725">
        <ele>289.81384</ele>
        <time>2012-09-16T07:50:12Z</time>
      </trkpt>
      <trkpt lat="45.77589" lon="4.81746">
        <ele>291.37665</ele>
        <time>2012-09-16T07:50:16Z</time>
      </trkpt>
      <trkpt lat="45.77572" lon="4.81768">
        <ele>293.49417</ele>
        <time>2012-09-16T07:50:20Z</time>
      </trkpt>
      <trkpt lat="45.77555" lon="4.8179">
        <ele>295.1798</ele>
        <time>2012-09-16T07:50:24Z</time>
      </trkpt>
      <trkpt lat="45.77542" lon="4.81813">
        <ele>297.14206</ele>
        <time>2012-09-16T07:50:28Z</time>
      </trkpt>
      <trkpt lat="45.77528" lon="4.81795">
        <ele>298.5893</ele>
        <time>2012-09-16T07:50:36Z</time>
      </trkpt>
      <trkpt lat="45.77511" lon="4.81776">
        <ele>298.37985</ele>
        <time>2012-09-16T07:50:39Z</time>
      </trkpt>
      <trkpt lat="45.77496" lon="4.81753">
        <ele>298.1948</ele>
        <time>2012-09-16T07:50:43Z</time>
      </trkpt>
      <trkpt lat="45.77485" lon="4.81728">
        <ele>298.15405</ele>
        <time>2012-09-16T07:50:46Z</time>
      </trkpt>
      <trkpt lat="45.7749" lon="4.81702">
        <ele>297.41342</ele>
        <time>2012-09-16T07:50:49Z</time>
      </trkpt>
      <trkpt lat="45.77509" lon="4.81686">
        <ele>296.26556</ele>
        <time>2012-09-16T07:50:53Z</time>
      </trkpt>
      <trkpt lat="45.77533" lon="4.81677">
        <ele>295.78287</ele>
        <time>2012-09-16T07:50:57Z</time>
      </trkpt>
      <trkpt lat="45.77553" lon="4.81668">
        <ele>294.44904</ele>
        <time>2012-09-16T07:51:00Z</time>
      </trkpt>
      <trkpt lat="45.77574" lon="4.81662">
        <ele>294.00192</ele>
        <time>2012-09-16T07:51:03Z</time>
      </trkpt>
      <trkpt lat="45.77595" lon="4.81648">
        <ele>293.70395</ele>
        <time>2012-09-16T07:51:06Z</time>
      </trkpt>
      <trkpt lat="45.77619" lon="4.81637">
        <ele>292.9376</ele>
        <time>2012-09-16T07:51:09Z</time>
      </trkpt>
      <trkpt lat="45.77637" lon="4.81615">
        <ele>292.28775</ele>
        <time>2012-09-16T07:51:12Z</time>
      </trkpt>
      <trkpt lat="45.77642" lon="4.81588">
        <ele>291.53232</ele>
        <time>2012-09-16T07:51:15Z</time>
      </trkpt>
      <trkpt lat="45.77643" lon="4.81554">
        <ele>290.2527</ele>
        <time>2012-09-16T07:51:18Z</time>
      </trkpt>
      <trkpt lat="45.77643" lon="4.81521">
        <ele>288.75037</ele>
        <time>2012-09-16T07:51:21Z</time>
      </trkpt>
      <trkpt lat="45.77635" lon="4.81553">
        <ele>279.13077</ele>
        <time>2012-09-16T07:51:30Z</time>
      </trkpt>
      <trkpt lat="45.7762" lon="4.81527">
        <ele>275.91925</ele>
        <time>2012-09-16T07:51:37Z</time>
      </trkpt>
      <trkpt lat="45.77602" lon="4.81495">
        <ele>274.86438</ele>
        <time>2012-09-16T07:51:40Z</time>
      </trkpt>
      <trkpt lat="45.77584" lon="4.81487">
        <ele>273.8862</ele>
        <time>2012-09-16T07:51:42Z</time>
      </trkpt>
      <trkpt lat="45.77565" lon="4.81497">
        <ele>272.986</ele>
        <time>2012-09-16T07:51:44Z</time>
      </trkpt>
      <trkpt lat="45.77543" lon="4.81512">
        <ele>271.96286</ele>
        <time>2012-09-16T07:51:47Z</time>
      </trkpt>
      <trkpt lat="45.7752" lon="4.81514">
        <ele>270.8851</ele>
        <time>2012-09-16T07:51:51Z</time>
      </trkpt>
      <trkpt lat="45.77502" lon="4.8151">
        <ele>270.2984</ele>
        <time>2012-09-16T07:51:54Z</time>
      </trkpt>
      <trkpt lat="45.77478" lon="4.81508">
        <ele>269.0384</ele>
        <time>2012-09-16T07:51:57Z</time>
      </trkpt>
      <trkpt lat="45.77455" lon="4.81509">
        <ele>267.66534</ele>
        <time>2012-09-16T07:51:59Z</time>
      </trkpt>
      <trkpt lat="45.77433" lon="4.81511">
        <ele>266.34927</ele>
        <time>2012-09-16T07:52:01Z</time>
      </trkpt>
      <trkpt lat="45.77415" lon="4.81522">
        <ele>264.57858</ele>
        <time>2012-09-16T07:52:04Z</time>
      </trkpt>
      <trkpt lat="45.77403" lon="4.81547">
        <ele>260.99875</ele>
        <time>2012-09-16T07:52:12Z</time>
      </trkpt>
      <trkpt lat="45.77385" lon="4.81555">
        <ele>260.466</ele>
        <time>2012-09-16T07:52:16Z</time>
      </trkpt>
      <trkpt lat="45.77366" lon="4.81559">
        <ele>260.32947</ele>
        <time>2012-09-16T07:52:20Z</time>
      </trkpt>
      <trkpt lat="45.77348" lon="4.81561">
        <ele>260.05582</ele>
        <time>2012-09-16T07:52:33Z</time>
      </trkpt>
      <trkpt lat="45.77328" lon="4.81555">
        <ele>261.14224</ele>
        <time>2012-09-16T07:52:56Z</time>
      </trkpt>
      <trkpt lat="45.77309" lon="4.81556">
        <ele>261.70123</ele>
        <time>2012-09-16T07:53:00Z</time>
      </trkpt>
      <trkpt lat="45.7729" lon="4.81559">
        <ele>262.5152</ele>
        <time>2012-09-16T07:53:04Z</time>
      </trkpt>
      <trkpt lat="45.77271" lon="4.81562">
        <ele>263.7145</ele>
        <time>2012-09-16T07:53:08Z</time>
      </trkpt>
      <trkpt lat="45.77251" lon="4.81556">
        <ele>264.232</ele>
        <time>2012-09-16T07:53:13Z</time>
      </trkpt>
      <trkpt lat="45.77232" lon="4.81554">
        <ele>264.69583</ele>
        <time>2012-09-16T07:53:18Z</time>
      </trkpt>
      <trkpt lat="45.7721" lon="4.81541">
        <ele>264.91537</ele>
        <time>2012-09-16T07:53:24Z</time>
      </trkpt>
      <trkpt lat="45.77189" lon="4.8154">
        <ele>264.8708</ele>
        <time>2012-09-16T07:53:29Z</time>
      </trkpt>
      <trkpt lat="45.77168" lon="4.81531">
        <ele>264.412</ele>
        <time>2012-09-16T07:53:34Z</time>
      </trkpt>
      <trkpt lat="45.77152" lon="4.81514">
        <ele>263.31656</ele>
        <time>2012-09-16T07:53:51Z</time>
      </trkpt>
      <trkpt lat="45.7715" lon="4.81488">
        <ele>265.62552</ele>
        <time>2012-09-16T07:53:59Z</time>
      </trkpt>
      <trkpt lat="45.77143" lon="4.81463">
        <ele>265.94287</ele>
        <time>2012-09-16T07:54:17Z</time>
      </trkpt>
      <trkpt lat="45.77127" lon="4.81448">
        <ele>266.14984</ele>
        <time>2012-09-16T07:54:24Z</time>
      </trkpt>
      <trkpt lat="45.77118" lon="4.81423">
        <ele>264.34628</ele>
        <time>2012-09-16T07:54:34Z</time>
      </trkpt>
      <trkpt lat="45.77123" lon="4.81398">
        <ele>257.88568</ele>
        <time>2012-09-16T07:54:47Z</time>
      </trkpt>
      <trkpt lat="45.77105" lon="4.81387">
        <ele>256.8584</ele>
        <time>2012-09-16T07:54:55Z</time>
      </trkpt>
      <trkpt lat="45.77087" lon="4.81394">
        <ele>257.71176</ele>
        <time>2012-09-16T07:55:01Z</time>
      </trkpt>
      <trkpt lat="45.77066" lon="4.81396">
        <ele>257.63382</ele>
        <time>2012-09-16T07:55:06Z</time>
      </trkpt>
      <trkpt lat="45.77045" lon="4.81393">
        <ele>256.9922</ele>
        <time>2012-09-16T07:55:11Z</time>
      </trkpt>
      <trkpt lat="45.77026" lon="4.81394">
        <ele>256.3806</ele>
        <time>2012-09-16T07:55:15Z</time>
      </trkpt>
      <trkpt lat="45.77006" lon="4.81402">
        <ele>256.45746</ele>
        <time>2012-09-16T07:55:19Z</time>
      </trkpt>
      <trkpt lat="45.76985" lon="4.8141">
        <ele>256.30472</ele>
        <time>2012-09-16T07:55:24Z</time>
      </trkpt>
      <trkpt lat="45.76967" lon="4.8142">
        <ele>256.1249</ele>
        <time>2012-09-16T07:55:28Z</time>
      </trkpt>
      <trkpt lat="45.76945" lon="4.81426">
        <ele>255.55786</ele>
        <time>2012-09-16T07:55:32Z</time>
      </trkpt>
      <trkpt lat="45.76927" lon="4.81436">
        <ele>255.30405</ele>
        <time>2012-09-16T07:55:35Z</time>
      </trkpt>
      <trkpt lat="45.7691" lon="4.81446">
        <ele>255.05635</ele>
        <time>2012-09-16T07:55:38Z</time>
      </trkpt>
      <trkpt lat="45.76888" lon="4.81456">
        <ele>255.16306</ele>
        <time>2012-09-16T07:55:42Z</time>
      </trkpt>
      <trkpt lat="45.76872" lon="4.81473">
        <ele>254.3141</ele>
        <time>2012-09-16T07:55:45Z</time>
      </trkpt>
      <trkpt lat="45.76852" lon="4.8149">
        <ele>253.74078</ele>
        <time>2012-09-16T07:55:49Z</time>
      </trkpt>
      <trkpt lat="45.76853" lon="4.81518">
        <ele>249.32335</ele>
        <time>2012-09-16T07:55:59Z</time>
      </trkpt>
      <trkpt lat="45.76854" lon="4.81548">
        <ele>237.98097</ele>
        <time>2012-09-16T07:56:04Z</time>
      </trkpt>
      <trkpt lat="45.76855" lon="4.81577">
        <ele>231.95644</ele>
        <time>2012-09-16T07:56:07Z</time>
      </trkpt>
      <trkpt lat="45.76849" lon="4.81607">
        <ele>229.6096</ele>
        <time>2012-09-16T07:56:12Z</time>
      </trkpt>
      <trkpt lat="45.76864" lon="4.81626">
        <ele>231.26779</ele>
        <time>2012-09-16T07:56:20Z</time>
      </trkpt>
      <trkpt lat="45.76879" lon="4.81608">
        <ele>231.94946</ele>
        <time>2012-09-16T07:56:25Z</time>
      </trkpt>
      <trkpt lat="45.76895" lon="4.8159">
        <ele>232.85689</ele>
        <time>2012-09-16T07:56:30Z</time>
      </trkpt>
      <trkpt lat="45.76913" lon="4.81575">
        <ele>234.01727</ele>
        <time>2012-09-16T07:56:34Z</time>
      </trkpt>
      <trkpt lat="45.76926" lon="4.81551">
        <ele>235.35448</ele>
        <time>2012-09-16T07:56:40Z</time>
      </trkpt>
      <trkpt lat="45.76926" lon="4.8158">
        <ele>232.55705</ele>
        <time>2012-09-16T07:56:47Z</time>
      </trkpt>
      <trkpt lat="45.76915" lon="4.81605">
        <ele>231.38943</ele>
        <time>2012-09-16T07:56:53Z</time>
      </trkpt>
      <trkpt lat="45.76902" lon="4.81628">
        <ele>232.14365</ele>
        <time>2012-09-16T07:56:59Z</time>
      </trkpt>
      <trkpt lat="45.7689" lon="4.8165">
        <ele>233.2365</ele>
        <time>2012-09-16T07:57:05Z</time>
      </trkpt>
      <trkpt lat="45.7688" lon="4.81673">
        <ele>234.48518</ele>
        <time>2012-09-16T07:57:11Z</time>
      </trkpt>
      <trkpt lat="45.76875" lon="4.81702">
        <ele>235.46722</ele>
        <time>2012-09-16T07:57:17Z</time>
      </trkpt>
      <trkpt lat="45.76891" lon="4.81687">
        <ele>237.09448</ele>
        <time>2012-09-16T07:57:32Z</time>
      </trkpt>
      <trkpt lat="45.76902" lon="4.81666">
        <ele>238.57585</ele>
        <time>2012-09-16T07:57:38Z</time>
      </trkpt>
      <trkpt lat="45.76916" lon="4.81647">
        <ele>239.79611</ele>
        <time>2012-09-16T07:57:44Z</time>
      </trkpt>
      <trkpt lat="45.76928" lon="4.81628">
        <ele>241.13048</ele>
        <time>2012-09-16T07:57:50Z</time>
      </trkpt>
      <trkpt lat="45.76941" lon="4.81609">
        <ele>243.13326</ele>
        <time>2012-09-16T07:57:56Z</time>
      </trkpt>
      <trkpt lat="45.76958" lon="4.81591">
        <ele>245.5085</ele>
        <time>2012-09-16T07:58:03Z</time>
      </trkpt>
      <trkpt lat="45.76973" lon="4.81575">
        <ele>248.5239</ele>
        <time>2012-09-16T07:58:08Z</time>
      </trkpt>
      <trkpt lat="45.7699" lon="4.8156">
        <ele>248.95508</ele>
        <time>2012-09-16T07:58:15Z</time>
      </trkpt>
      <trkpt lat="45.77003" lon="4.81578">
        <ele>250.86652</ele>
        <time>2012-09-16T07:58:22Z</time>
      </trkpt>
      <trkpt lat="45.77009" lon="4.81603">
        <ele>251.51216</ele>
        <time>2012-09-16T07:58:28Z</time>
      </trkpt>
      <trkpt lat="45.76991" lon="4.81619">
        <ele>253.01117</ele>
        <time>2012-09-16T07:58:34Z</time>
      </trkpt>
      <trkpt lat="45.76975" lon="4.81634">
        <ele>255.17374</ele>
        <time>2012-09-16T07:58:40Z</time>
      </trkpt>
      <trkpt lat="45.76958" lon="4.8165">
        <ele>257.53793</ele>
        <time>2012-09-16T07:58:47Z</time>
      </trkpt>
      <trkpt lat="45.76943" lon="4.81665">
        <ele>259.73038</ele>
        <time>2012-09-16T07:58:53Z</time>
      </trkpt>
      <trkpt lat="45.76926" lon="4.81683">
        <ele>260.34668</ele>
        <time>2012-09-16T07:59:00Z</time>
      </trkpt>
      <trkpt lat="45.76915" lon="4.81705">
        <ele>261.5097</ele>
        <time>2012-09-16T07:59:06Z</time>
      </trkpt>
      <trkpt lat="45.76911" lon="4.81732">
        <ele>262.6306</ele>
        <time>2012-09-16T07:59:11Z</time>
      </trkpt>
      <trkpt lat="45.76908" lon="4.81765">
        <ele>262.03217</ele>
        <time>2012-09-16T07:59:16Z</time>
      </trkpt>
      <trkpt lat="45.76905" lon="4.81791">
        <ele>260.93674</ele>
        <time>2012-09-16T07:59:20Z</time>
      </trkpt>
      <trkpt lat="45.769" lon="4.81817">
        <ele>260.38974</ele>
        <time>2012-09-16T07:59:24Z</time>
      </trkpt>
      <trkpt lat="45.76893" lon="4.81841">
        <ele>260.6577</ele>
        <time>2012-09-16T07:59:28Z</time>
      </trkpt>
      <trkpt lat="45.76888" lon="4.81868">
        <ele>261.062</ele>
        <time>2012-09-16T07:59:32Z</time>
      </trkpt>
      <trkpt lat="45.76883" lon="4.81897">
        <ele>261.51257</ele>
        <time>2012-09-16T07:59:36Z</time>
      </trkpt>
      <trkpt lat="45.76881" lon="4.81927">
        <ele>261.86414</ele>
        <time>2012-09-16T07:59:40Z</time>
      </trkpt>
      <trkpt lat="45.76872" lon="4.81951">
        <ele>260.88705</ele>
        <time>2012-09-16T07:59:51Z</time>
      </trkpt>
      <trkpt lat="45.76874" lon="4.81978">
        <ele>260.3729</ele>
        <time>2012-09-16T07:59:57Z</time>
      </trkpt>
      <trkpt lat="45.76879" lon="4.82008">
        <ele>260.74512</ele>
        <time>2012-09-16T08:00:02Z</time>
      </trkpt>
      <trkpt lat="45.76882" lon="4.82039">
        <ele>261.26334</ele>
        <time>2012-09-16T08:00:07Z</time>
      </trkpt>
      <trkpt lat="45.76885" lon="4.82068">
        <ele>260.58096</ele>
        <time>2012-09-16T08:00:11Z</time>
      </trkpt>
      <trkpt lat="45.7689" lon="4.82095">
        <ele>259.65335</ele>
        <time>2012-09-16T08:00:15Z</time>
      </trkpt>
      <trkpt lat="45.76887" lon="4.82123">
        <ele>259.75204</ele>
        <time>2012-09-16T08:00:19Z</time>
      </trkpt>
      <trkpt lat="45.76892" lon="4.82154">
        <ele>259.7075</ele>
        <time>2012-09-16T08:00:23Z</time>
      </trkpt>
      <trkpt lat="45.76901" lon="4.82182">
        <ele>259.70627</ele>
        <time>2012-09-16T08:00:27Z</time>
      </trkpt>
      <trkpt lat="45.76914" lon="4.82205">
        <ele>260.11057</ele>
        <time>2012-09-16T08:00:31Z</time>
      </trkpt>
      <trkpt lat="45.76919" lon="4.82236">
        <ele>260.7799</ele>
        <time>2012-09-16T08:00:35Z</time>
      </trkpt>
      <trkpt lat="45.76923" lon="4.8227">
        <ele>260.49716</ele>
        <time>2012-09-16T08:00:39Z</time>
      </trkpt>
      <trkpt lat="45.76925" lon="4.82304">
        <ele>259.69794</ele>
        <time>2012-09-16T08:00:43Z</time>
      </trkpt>
      <trkpt lat="45.76918" lon="4.82334">
        <ele>259.56943</ele>
        <time>2012-09-16T08:00:46Z</time>
      </trkpt>
      <trkpt lat="45.76904" lon="4.82353">
        <ele>259.55118</ele>
        <time>2012-09-16T08:00:49Z</time>
      </trkpt>
      <trkpt lat="45.76891" lon="4.82375">
        <ele>258.78098</ele>
        <time>2012-09-16T08:00:52Z</time>
      </trkpt>
      <trkpt lat="45.7688" lon="4.82398">
        <ele>256.77795</ele>
        <time>2012-09-16T08:00:56Z</time>
      </trkpt>
      <trkpt lat="45.76897" lon="4.82418">
        <ele>253.02882</ele>
        <time>2012-09-16T08:01:02Z</time>
      </trkpt>
      <trkpt lat="45.76917" lon="4.8243">
        <ele>251.21216</ele>
        <time>2012-09-16T08:01:05Z</time>
      </trkpt>
      <trkpt lat="45.76919" lon="4.8246">
        <ele>249.67885</ele>
        <time>2012-09-16T08:01:09Z</time>
      </trkpt>
      <trkpt lat="45.76905" lon="4.82444">
        <ele>248.55443</ele>
        <time>2012-09-16T08:01:15Z</time>
      </trkpt>
      <trkpt lat="45.76888" lon="4.82454">
        <ele>246.36293</ele>
        <time>2012-09-16T08:01:21Z</time>
      </trkpt>
      <trkpt lat="45.76869" lon="4.8245">
        <ele>246.87167</ele>
        <time>2012-09-16T08:01:29Z</time>
      </trkpt>
      <trkpt lat="45.76846" lon="4.82454">
        <ele>246.9012</ele>
        <time>2012-09-16T08:01:33Z</time>
      </trkpt>
      <trkpt lat="45.7683" lon="4.82468">
        <ele>246.15692</ele>
        <time>2012-09-16T08:01:35Z</time>
      </trkpt>
      <trkpt lat="45.76832" lon="4.82502">
        <ele>241.2537</ele>
        <time>2012-09-16T08:01:38Z</time>
      </trkpt>
      <trkpt lat="45.76833" lon="4.82533">
        <ele>235.41953</ele>
        <time>2012-09-16T08:01:41Z</time>
      </trkpt>
      <trkpt lat="45.76837" lon="4.82561">
        <ele>230.03323</ele>
        <time>2012-09-16T08:01:44Z</time>
      </trkpt>
      <trkpt lat="45.76839" lon="4.82588">
        <ele>226.01714</ele>
        <time>2012-09-16T08:01:47Z</time>
      </trkpt>
      <trkpt lat="45.76838" lon="4.82617">
        <ele>223.45255</ele>
        <time>2012-09-16T08:01:50Z</time>
      </trkpt>
      <trkpt lat="45.76835" lon="4.82646">
        <ele>221.7706</ele>
        <time>2012-09-16T08:01:53Z</time>
      </trkpt>
      <trkpt lat="45.7683" lon="4.82676">
        <ele>220.55167</ele>
        <time>2012-09-16T08:01:56Z</time>
      </trkpt>
      <trkpt lat="45.76824" lon="4.82705">
        <ele>219.69055</ele>
        <time>2012-09-16T08:01:59Z</time>
      </trkpt>
      <trkpt lat="45.76818" lon="4.82734">
        <ele>219.10695</ele>
        <time>2012-09-16T08:02:02Z</time>
      </trkpt>
      <trkpt lat="45.76809" lon="4.82761">
        <ele>218.74512</ele>
        <time>2012-09-16T08:02:05Z</time>
      </trkpt>
      <trkpt lat="45.76801" lon="4.82789">
        <ele>218.75497</ele>
        <time>2012-09-16T08:02:08Z</time>
      </trkpt>
      <trkpt lat="45.76792" lon="4.82817">
        <ele>219.19351</ele>
        <time>2012-09-16T08:02:11Z</time>
      </trkpt>
      <trkpt lat="45.76777" lon="4.82844">
        <ele>219.9207</ele>
        <time>2012-09-16T08:02:14Z</time>
      </trkpt>
      <trkpt lat="45.76761" lon="4.8287">
        <ele>221.08061</ele>
        <time>2012-09-16T08:02:17Z</time>
      </trkpt>
      <trkpt lat="45.76746" lon="4.82895">
        <ele>222.1012</ele>
        <time>2012-09-16T08:02:20Z</time>
      </trkpt>
      <trkpt lat="45.76732" lon="4.8292">
        <ele>222.58801</ele>
        <time>2012-09-16T08:02:23Z</time>
      </trkpt>
      <trkpt lat="45.76718" lon="4.82945">
        <ele>222.5887</ele>
        <time>2012-09-16T08:02:26Z</time>
      </trkpt>
      <trkpt lat="45.76704" lon="4.82967">
        <ele>222.4468</ele>
        <time>2012-09-16T08:02:29Z</time>
      </trkpt>
      <trkpt lat="45.76688" lon="4.82987">
        <ele>222.83536</ele>
        <time>2012-09-16T08:02:32Z</time>
      </trkpt>
      <trkpt lat="45.76673" lon="4.83005">
        <ele>224.13524</ele>
        <time>2012-09-16T08:02:35Z</time>
      </trkpt>
      <trkpt lat="45.7666" lon="4.83029">
        <ele>225.75372</ele>
        <time>2012-09-16T08:02:39Z</time>
      </trkpt>
      <trkpt lat="45.76669" lon="4.83053">
        <ele>221.32051</ele>
        <time>2012-09-16T08:02:43Z</time>
      </trkpt>
      <trkpt lat="45.76679" lon="4.83078">
        <ele>218.30865</ele>
        <time>2012-09-16T08:02:46Z</time>
      </trkpt>
      <trkpt lat="45.76687" lon="4.83104">
        <ele>217.0271</ele>
        <time>2012-09-16T08:02:49Z</time>
      </trkpt>
      <trkpt lat="45.76693" lon="4.83129">
        <ele>217.12238</ele>
        <time>2012-09-16T08:02:52Z</time>
      </trkpt>
      <trkpt lat="45.76701" lon="4.83153">
        <ele>218.09537</ele>
        <time>2012-09-16T08:02:55Z</time>
      </trkpt>
      <trkpt lat="45.76706" lon="4.83179">
        <ele>220.13605</ele>
        <time>2012-09-16T08:02:59Z</time>
      </trkpt>
      <trkpt lat="45.76712" lon="4.83204">
        <ele>221.73709</ele>
        <time>2012-09-16T08:03:02Z</time>
      </trkpt>
      <trkpt lat="45.76719" lon="4.83229">
        <ele>223.11877</ele>
        <time>2012-09-16T08:03:05Z</time>
      </trkpt>
      <trkpt lat="45.76725" lon="4.83254">
        <ele>223.92043</ele>
        <time>2012-09-16T08:03:08Z</time>
      </trkpt>
      <trkpt lat="45.7673" lon="4.8328">
        <ele>224.42018</ele>
        <time>2012-09-16T08:03:13Z</time>
      </trkpt>
      <trkpt lat="45.76706" lon="4.83284">
        <ele>224.41733</ele>
        <time>2012-09-16T08:03:17Z</time>
      </trkpt>
      <trkpt lat="45.76681" lon="4.83287">
        <ele>225.19168</ele>
        <time>2012-09-16T08:03:20Z</time>
      </trkpt>
      <trkpt lat="45.76658" lon="4.83291">
        <ele>225.96213</ele>
        <time>2012-09-16T08:03:23Z</time>
      </trkpt>
      <trkpt lat="45.76637" lon="4.83292">
        <ele>226.66684</ele>
        <time>2012-09-16T08:03:26Z</time>
      </trkpt>
      <trkpt lat="45.76613" lon="4.83291">
        <ele>227.69382</ele>
        <time>2012-09-16T08:03:29Z</time>
      </trkpt>
      <trkpt lat="45.76594" lon="4.83289">
        <ele>228.60902</ele>
        <time>2012-09-16T08:03:31Z</time>
      </trkpt>
      <trkpt lat="45.76571" lon="4.83287">
        <ele>230.22255</ele>
        <time>2012-09-16T08:03:34Z</time>
      </trkpt>
      <trkpt lat="45.76552" lon="4.83279">
        <ele>232.46576</ele>
        <time>2012-09-16T08:03:37Z</time>
      </trkpt>
      <trkpt lat="45.76531" lon="4.83284">
        <ele>234.58089</ele>
        <time>2012-09-16T08:03:40Z</time>
      </trkpt>
      <trkpt lat="45.7651" lon="4.83292">
        <ele>236.80443</ele>
        <time>2012-09-16T08:03:43Z</time>
      </trkpt>
      <trkpt lat="45.76489" lon="4.83299">
        <ele>238.82999</ele>
        <time>2012-09-16T08:03:46Z</time>
      </trkpt>
      <trkpt lat="45.76468" lon="4.83293">
        <ele>242.28383</ele>
        <time>2012-09-16T08:03:52Z</time>
      </trkpt>
      <trkpt lat="45.76445" lon="4.83297">
        <ele>244.9838</ele>
        <time>2012-09-16T08:03:55Z</time>
      </trkpt>
      <trkpt lat="45.7642" lon="4.83305">
        <ele>248.11348</ele>
        <time>2012-09-16T08:03:58Z</time>
      </trkpt>
      <trkpt lat="45.76396" lon="4.83313">
        <ele>250.85257</ele>
        <time>2012-09-16T08:04:01Z</time>
      </trkpt>
      <trkpt lat="45.76372" lon="4.83317">
        <ele>253.62218</ele>
        <time>2012-09-16T08:04:04Z</time>
      </trkpt>
      <trkpt lat="45.76352" lon="4.83316">
        <ele>255.92966</ele>
        <time>2012-09-16T08:04:07Z</time>
      </trkpt>
      <trkpt lat="45.76329" lon="4.83321">
        <ele>257.8203</ele>
        <time>2012-09-16T08:04:10Z</time>
      </trkpt>
      <trkpt lat="45.76307" lon="4.83322">
        <ele>258.6789</ele>
        <time>2012-09-16T08:04:13Z</time>
      </trkpt>
      <trkpt lat="45.76285" lon="4.83322">
        <ele>259.10986</ele>
        <time>2012-09-16T08:04:16Z</time>
      </trkpt>
      <trkpt lat="45.76264" lon="4.83319">
        <ele>259.58853</ele>
        <time>2012-09-16T08:04:19Z</time>
      </trkpt>
      <trkpt lat="45.76243" lon="4.8332">
        <ele>260.27484</ele>
        <time>2012-09-16T08:04:22Z</time>
      </trkpt>
      <trkpt lat="45.76221" lon="4.83321">
        <ele>261.09564</ele>
        <time>2012-09-16T08:04:25Z</time>
      </trkpt>
      <trkpt lat="45.76197" lon="4.83321">
        <ele>261.5216</ele>
        <time>2012-09-16T08:04:28Z</time>
      </trkpt>
      <trkpt lat="45.76173" lon="4.83315">
        <ele>261.66855</ele>
        <time>2012-09-16T08:04:32Z</time>
      </trkpt>
      <trkpt lat="45.76151" lon="4.83321">
        <ele>261.9758</ele>
        <time>2012-09-16T08:04:35Z</time>
      </trkpt>
      <trkpt lat="45.76129" lon="4.83322">
        <ele>261.64447</ele>
        <time>2012-09-16T08:04:38Z</time>
      </trkpt>
      <trkpt lat="45.76105" lon="4.83326">
        <ele>262.08127</ele>
        <time>2012-09-16T08:04:41Z</time>
      </trkpt>
      <trkpt lat="45.76087" lon="4.83326">
        <ele>262.76447</ele>
        <time>2012-09-16T08:04:43Z</time>
      </trkpt>
      <trkpt lat="45.76069" lon="4.83326">
        <ele>264.38</ele>
        <time>2012-09-16T08:04:45Z</time>
      </trkpt>
      <trkpt lat="45.76049" lon="4.83323">
        <ele>265.31345</ele>
        <time>2012-09-16T08:04:48Z</time>
      </trkpt>
      <trkpt lat="45.76031" lon="4.83316">
        <ele>264.99316</ele>
        <time>2012-09-16T08:04:51Z</time>
      </trkpt>
      <trkpt lat="45.76012" lon="4.8331">
        <ele>264.48462</ele>
        <time>2012-09-16T08:04:54Z</time>
      </trkpt>
      <trkpt lat="45.75997" lon="4.83331">
        <ele>258.71127</ele>
        <time>2012-09-16T08:04:59Z</time>
      </trkpt>
      <trkpt lat="45.75975" lon="4.83329">
        <ele>256.59604</ele>
        <time>2012-09-16T08:05:04Z</time>
      </trkpt>
      <trkpt lat="45.75953" lon="4.83323">
        <ele>255.90305</ele>
        <time>2012-09-16T08:05:08Z</time>
      </trkpt>
      <trkpt lat="45.75935" lon="4.83321">
        <ele>254.85916</ele>
        <time>2012-09-16T08:05:12Z</time>
      </trkpt>
      <trkpt lat="45.7594" lon="4.83296">
        <ele>251.4867</ele>
        <time>2012-09-16T08:05:16Z</time>
      </trkpt>
      <trkpt lat="45.75951" lon="4.83272">
        <ele>248.29907</ele>
        <time>2012-09-16T08:05:19Z</time>
      </trkpt>
      <trkpt lat="45.75956" lon="4.83245">
        <ele>245.27306</ele>
        <time>2012-09-16T08:05:22Z</time>
      </trkpt>
      <trkpt lat="45.75967" lon="4.8322">
        <ele>242.04332</ele>
        <time>2012-09-16T08:05:25Z</time>
      </trkpt>
      <trkpt lat="45.75989" lon="4.8322">
        <ele>238.86919</ele>
        <time>2012-09-16T08:05:29Z</time>
      </trkpt>
      <trkpt lat="45.76002" lon="4.83197">
        <ele>237.79025</ele>
        <time>2012-09-16T08:05:33Z</time>
      </trkpt>
      <trkpt lat="45.76008" lon="4.83166">
        <ele>236.98637</ele>
        <time>2012-09-16T08:05:37Z</time>
      </trkpt>
      <trkpt lat="45.76018" lon="4.83142">
        <ele>235.99295</ele>
        <time>2012-09-16T08:05:41Z</time>
      </trkpt>
      <trkpt lat="45.75997" lon="4.83149">
        <ele>234.95023</ele>
        <time>2012-09-16T08:05:50Z</time>
      </trkpt>
      <trkpt lat="45.75977" lon="4.831">
        <ele>208.59999</ele>
        <time>2012-09-16T08:09:18Z</time>
      </trkpt>
      <trkpt lat="45.7597" lon="4.83124">
        <ele>204.66768</ele>
        <time>2012-09-16T08:09:30Z</time>
      </trkpt>
      <trkpt lat="45.75955" lon="4.83147">
        <ele>209.74095</ele>
        <time>2012-09-16T08:09:34Z</time>
      </trkpt>
      <trkpt lat="45.75947" lon="4.83171">
        <ele>220.49384</ele>
        <time>2012-09-16T08:09:37Z</time>
      </trkpt>
      <trkpt lat="45.75954" lon="4.83143">
        <ele>247.18916</ele>
        <time>2012-09-16T08:09:51Z</time>
      </trkpt>
      <trkpt lat="45.75964" lon="4.83117">
        <ele>240.06667</ele>
        <time>2012-09-16T08:09:56Z</time>
      </trkpt>
      <trkpt lat="45.75965" lon="4.83089">
        <ele>237.69609</ele>
        <time>2012-09-16T08:10:01Z</time>
      </trkpt>
      <trkpt lat="45.7597" lon="4.83064">
        <ele>236.60327</ele>
        <time>2012-09-16T08:10:06Z</time>
      </trkpt>
      <trkpt lat="45.7596" lon="4.83037">
        <ele>234.46278</ele>
        <time>2012-09-16T08:10:12Z</time>
      </trkpt>
      <trkpt lat="45.75944" lon="4.83024">
        <ele>233.96657</ele>
        <time>2012-09-16T08:10:14Z</time>
      </trkpt>
      <trkpt lat="45.75927" lon="4.83011">
        <ele>233.21089</ele>
        <time>2012-09-16T08:10:17Z</time>
      </trkpt>
      <trkpt lat="45.75912" lon="4.82992">
        <ele>233.7468</ele>
        <time>2012-09-16T08:10:21Z</time>
      </trkpt>
      <trkpt lat="45.75916" lon="4.82962">
        <ele>236.83688</ele>
        <time>2012-09-16T08:10:26Z</time>
      </trkpt>
      <trkpt lat="45.7591" lon="4.82935">
        <ele>233.89021</ele>
        <time>2012-09-16T08:10:32Z</time>
      </trkpt>
      <trkpt lat="45.75897" lon="4.82915">
        <ele>232.8693</ele>
        <time>2012-09-16T08:10:35Z</time>
      </trkpt>
      <trkpt lat="45.75883" lon="4.82895">
        <ele>232.68861</ele>
        <time>2012-09-16T08:10:38Z</time>
      </trkpt>
      <trkpt lat="45.75867" lon="4.82875">
        <ele>232.82176</ele>
        <time>2012-09-16T08:10:41Z</time>
      </trkpt>
      <trkpt lat="45.75848" lon="4.82856">
        <ele>232.9826</ele>
        <time>2012-09-16T08:10:44Z</time>
      </trkpt>
      <trkpt lat="45.75829" lon="4.82838">
        <ele>233.05359</ele>
        <time>2012-09-16T08:10:47Z</time>
      </trkpt>
      <trkpt lat="45.75805" lon="4.82822">
        <ele>232.20229</ele>
        <time>2012-09-16T08:10:50Z</time>
      </trkpt>
      <trkpt lat="45.75789" lon="4.82809">
        <ele>231.1666</ele>
        <time>2012-09-16T08:10:53Z</time>
      </trkpt>
      <trkpt lat="45.75771" lon="4.82824">
        <ele>229.10464</ele>
        <time>2012-09-16T08:10:56Z</time>
      </trkpt>
      <trkpt lat="45.75762" lon="4.82851">
        <ele>226.52383</ele>
        <time>2012-09-16T08:10:59Z</time>
      </trkpt>
      <trkpt lat="45.75757" lon="4.8288">
        <ele>224.3288</ele>
        <time>2012-09-16T08:11:02Z</time>
      </trkpt>
      <trkpt lat="45.75751" lon="4.82909">
        <ele>223.13403</ele>
        <time>2012-09-16T08:11:05Z</time>
      </trkpt>
      <trkpt lat="45.75741" lon="4.82933">
        <ele>223.13155</ele>
        <time>2012-09-16T08:11:08Z</time>
      </trkpt>
      <trkpt lat="45.75732" lon="4.82959">
        <ele>224.25551</ele>
        <time>2012-09-16T08:11:11Z</time>
      </trkpt>
      <trkpt lat="45.75723" lon="4.82989">
        <ele>226.25935</ele>
        <time>2012-09-16T08:11:15Z</time>
      </trkpt>
      <trkpt lat="45.75725" lon="4.83015">
        <ele>225.98323</ele>
        <time>2012-09-16T08:11:19Z</time>
      </trkpt>
      <trkpt lat="45.75743" lon="4.83019">
        <ele>224.30956</ele>
        <time>2012-09-16T08:11:23Z</time>
      </trkpt>
      <trkpt lat="45.75765" lon="4.83026">
        <ele>222.9831</ele>
        <time>2012-09-16T08:11:27Z</time>
      </trkpt>
      <trkpt lat="45.7576" lon="4.83056">
        <ele>221.64032</ele>
        <time>2012-09-16T08:11:32Z</time>
      </trkpt>
      <trkpt lat="45.7575" lon="4.83085">
        <ele>221.1487</ele>
        <time>2012-09-16T08:11:36Z</time>
      </trkpt>
      <trkpt lat="45.75754" lon="4.83111">
        <ele>221.21385</ele>
        <time>2012-09-16T08:11:40Z</time>
      </trkpt>
      <trkpt lat="45.75771" lon="4.83129">
        <ele>220.67783</ele>
        <time>2012-09-16T08:11:44Z</time>
      </trkpt>
      <trkpt lat="45.75778" lon="4.83154">
        <ele>220.30782</ele>
        <time>2012-09-16T08:11:48Z</time>
      </trkpt>
      <trkpt lat="45.75785" lon="4.8318">
        <ele>220.34433</ele>
        <time>2012-09-16T08:11:53Z</time>
      </trkpt>
      <trkpt lat="45.75765" lon="4.83183">
        <ele>216.28201</ele>
        <time>2012-09-16T08:13:11Z</time>
      </trkpt>
      <trkpt lat="45.75743" lon="4.83181">
        <ele>214.57349</ele>
        <time>2012-09-16T08:13:16Z</time>
      </trkpt>
      <trkpt lat="45.75721" lon="4.83172">
        <ele>213.70256</ele>
        <time>2012-09-16T08:13:20Z</time>
      </trkpt>
      <trkpt lat="45.75699" lon="4.8316">
        <ele>213.15002</ele>
        <time>2012-09-16T08:13:24Z</time>
      </trkpt>
      <trkpt lat="45.75694" lon="4.83127">
        <ele>213.30919</ele>
        <time>2012-09-16T08:13:28Z</time>
      </trkpt>
      <trkpt lat="45.75702" lon="4.83102">
        <ele>213.70543</ele>
        <time>2012-09-16T08:13:31Z</time>
      </trkpt>
      <trkpt lat="45.7571" lon="4.83071">
        <ele>214.48726</ele>
        <time>2012-09-16T08:13:35Z</time>
      </trkpt>
      <trkpt lat="45.7569" lon="4.8306">
        <ele>216.72432</ele>
        <time>2012-09-16T08:13:43Z</time>
      </trkpt>
      <trkpt lat="45.7567" lon="4.83052">
        <ele>216.7712</ele>
        <time>2012-09-16T08:13:46Z</time>
      </trkpt>
      <trkpt lat="45.75652" lon="4.83041">
        <ele>216.54567</ele>
        <time>2012-09-16T08:13:49Z</time>
      </trkpt>
      <trkpt lat="45.75633" lon="4.83036">
        <ele>216.32083</ele>
        <time>2012-09-16T08:13:52Z</time>
      </trkpt>
      <trkpt lat="45.75615" lon="4.83025">
        <ele>216.13535</ele>
        <time>2012-09-16T08:13:55Z</time>
      </trkpt>
      <trkpt lat="45.75596" lon="4.83019">
        <ele>216.26334</ele>
        <time>2012-09-16T08:13:58Z</time>
      </trkpt>
      <trkpt lat="45.75575" lon="4.83009">
        <ele>216.66379</ele>
        <time>2012-09-16T08:14:02Z</time>
      </trkpt>
      <trkpt lat="45.75562" lon="4.82991">
        <ele>217.28229</ele>
        <time>2012-09-16T08:14:06Z</time>
      </trkpt>
      <trkpt lat="45.75573" lon="4.82965">
        <ele>217.65689</ele>
        <time>2012-09-16T08:14:10Z</time>
      </trkpt>
      <trkpt lat="45.7558" lon="4.82941">
        <ele>218.54584</ele>
        <time>2012-09-16T08:14:15Z</time>
      </trkpt>
      <trkpt lat="45.75563" lon="4.82926">
        <ele>219.69434</ele>
        <time>2012-09-16T08:14:18Z</time>
      </trkpt>
      <trkpt lat="45.75545" lon="4.82912">
        <ele>220.53511</ele>
        <time>2012-09-16T08:14:21Z</time>
      </trkpt>
      <trkpt lat="45.75525" lon="4.82898">
        <ele>221.9779</ele>
        <time>2012-09-16T08:14:25Z</time>
      </trkpt>
      <trkpt lat="45.75511" lon="4.82876">
        <ele>224.22466</ele>
        <time>2012-09-16T08:14:29Z</time>
      </trkpt>
      <trkpt lat="45.75521" lon="4.82851">
        <ele>225.75102</ele>
        <time>2012-09-16T08:14:32Z</time>
      </trkpt>
      <trkpt lat="45.75532" lon="4.82827">
        <ele>226.16995</ele>
        <time>2012-09-16T08:14:35Z</time>
      </trkpt>
      <trkpt lat="45.75542" lon="4.82803">
        <ele>225.89514</ele>
        <time>2012-09-16T08:14:38Z</time>
      </trkpt>
      <trkpt lat="45.75552" lon="4.82779">
        <ele>225.34326</ele>
        <time>2012-09-16T08:14:41Z</time>
      </trkpt>
      <trkpt lat="45.75568" lon="4.8276">
        <ele>225.3339</ele>
        <time>2012-09-16T08:14:44Z</time>
      </trkpt>
      <trkpt lat="45.7558" lon="4.82738">
        <ele>226.70023</ele>
        <time>2012-09-16T08:14:47Z</time>
      </trkpt>
      <trkpt lat="45.75566" lon="4.82719">
        <ele>229.18134</ele>
        <time>2012-09-16T08:14:50Z</time>
      </trkpt>
      <trkpt lat="45.75553" lon="4.82693">
        <ele>231.48979</ele>
        <time>2012-09-16T08:14:54Z</time>
      </trkpt>
      <trkpt lat="45.75538" lon="4.82669">
        <ele>232.79414</ele>
        <time>2012-09-16T08:14:57Z</time>
      </trkpt>
      <trkpt lat="45.75517" lon="4.82652">
        <ele>232.68996</ele>
        <time>2012-09-16T08:15:01Z</time>
      </trkpt>
      <trkpt lat="45.755" lon="4.82637">
        <ele>232.552</ele>
        <time>2012-09-16T08:15:04Z</time>
      </trkpt>
      <trkpt lat="45.75481" lon="4.82624">
        <ele>232.32193</ele>
        <time>2012-09-16T08:15:07Z</time>
      </trkpt>
      <trkpt lat="45.75462" lon="4.82614">
        <ele>232.16081</ele>
        <time>2012-09-16T08:15:10Z</time>
      </trkpt>
      <trkpt lat="45.75446" lon="4.82602">
        <ele>232.42879</ele>
        <time>2012-09-16T08:15:13Z</time>
      </trkpt>
      <trkpt lat="45.75429" lon="4.82588">
        <ele>233.28246</ele>
        <time>2012-09-16T08:15:16Z</time>
      </trkpt>
      <trkpt lat="45.75414" lon="4.82567">
        <ele>234.84874</ele>
        <time>2012-09-16T08:15:20Z</time>
      </trkpt>
      <trkpt lat="45.75418" lon="4.8254">
        <ele>233.44725</ele>
        <time>2012-09-16T08:15:30Z</time>
      </trkpt>
      <trkpt lat="45.75396" lon="4.82529">
        <ele>230.72472</ele>
        <time>2012-09-16T08:15:34Z</time>
      </trkpt>
      <trkpt lat="45.75377" lon="4.82519">
        <ele>229.34012</ele>
        <time>2012-09-16T08:15:37Z</time>
      </trkpt>
      <trkpt lat="45.75356" lon="4.82508">
        <ele>228.80756</ele>
        <time>2012-09-16T08:15:40Z</time>
      </trkpt>
      <trkpt lat="45.75336" lon="4.82495">
        <ele>228.56412</ele>
        <time>2012-09-16T08:15:43Z</time>
      </trkpt>
      <trkpt lat="45.75314" lon="4.82483">
        <ele>228.68642</ele>
        <time>2012-09-16T08:15:46Z</time>
      </trkpt>
      <trkpt lat="45.75292" lon="4.82469">
        <ele>229.5677</ele>
        <time>2012-09-16T08:15:49Z</time>
      </trkpt>
      <trkpt lat="45.75269" lon="4.82457">
        <ele>230.26605</ele>
        <time>2012-09-16T08:15:52Z</time>
      </trkpt>
      <trkpt lat="45.75246" lon="4.82443">
        <ele>230.90756</ele>
        <time>2012-09-16T08:15:55Z</time>
      </trkpt>
      <trkpt lat="45.75224" lon="4.82431">
        <ele>231.23914</ele>
        <time>2012-09-16T08:15:58Z</time>
      </trkpt>
      <trkpt lat="45.75204" lon="4.82421">
        <ele>231.15714</ele>
        <time>2012-09-16T08:16:01Z</time>
      </trkpt>
      <trkpt lat="45.75185" lon="4.8241">
        <ele>231.13504</ele>
        <time>2012-09-16T08:16:04Z</time>
      </trkpt>
      <trkpt lat="45.75169" lon="4.82393">
        <ele>232.09915</ele>
        <time>2012-09-16T08:16:07Z</time>
      </trkpt>
      <trkpt lat="45.75157" lon="4.82369">
        <ele>231.91379</ele>
        <time>2012-09-16T08:16:11Z</time>
      </trkpt>
      <trkpt lat="45.75143" lon="4.82351">
        <ele>231.3027</ele>
        <time>2012-09-16T08:16:14Z</time>
      </trkpt>
      <trkpt lat="45.7513" lon="4.82328">
        <ele>230.4855</ele>
        <time>2012-09-16T08:16:17Z</time>
      </trkpt>
      <trkpt lat="45.75114" lon="4.82306">
        <ele>229.5142</ele>
        <time>2012-09-16T08:16:20Z</time>
      </trkpt>
      <trkpt lat="45.75096" lon="4.82285">
        <ele>228.96536</ele>
        <time>2012-09-16T08:16:23Z</time>
      </trkpt>
      <trkpt lat="45.75078" lon="4.82259">
        <ele>227.8729</ele>
        <time>2012-09-16T08:16:26Z</time>
      </trkpt>
      <trkpt lat="45.75064" lon="4.82241">
        <ele>226.37225</ele>
        <time>2012-09-16T08:16:28Z</time>
      </trkpt>
      <trkpt lat="45.75048" lon="4.82218">
        <ele>225.19142</ele>
        <time>2012-09-16T08:16:31Z</time>
      </trkpt>
      <trkpt lat="45.75032" lon="4.82197">
        <ele>224.51201</ele>
        <time>2012-09-16T08:16:34Z</time>
      </trkpt>
      <trkpt lat="45.75018" lon="4.82174">
        <ele>224.40193</ele>
        <time>2012-09-16T08:16:37Z</time>
      </trkpt>
      <trkpt lat="45.75006" lon="4.82147">
        <ele>222.89925</ele>
        <time>2012-09-16T08:16:40Z</time>
      </trkpt>
      <trkpt lat="45.7499" lon="4.82123">
        <ele>221.82938</ele>
        <time>2012-09-16T08:16:43Z</time>
      </trkpt>
      <trkpt lat="45.74977" lon="4.82097">
        <ele>221.10458</ele>
        <time>2012-09-16T08:16:46Z</time>
      </trkpt>
      <trkpt lat="45.74966" lon="4.82072">
        <ele>219.48787</ele>
        <time>2012-09-16T08:16:49Z</time>
      </trkpt>
      <trkpt lat="45.7495" lon="4.82053">
        <ele>216.99178</ele>
        <time>2012-09-16T08:16:52Z</time>
      </trkpt>
      <trkpt lat="45.74934" lon="4.82032">
        <ele>215.0481</ele>
        <time>2012-09-16T08:16:55Z</time>
      </trkpt>
      <trkpt lat="45.74917" lon="4.82009">
        <ele>214.13904</ele>
        <time>2012-09-16T08:16:58Z</time>
      </trkpt>
      <trkpt lat="45.74901" lon="4.81985">
        <ele>213.75085</ele>
        <time>2012-09-16T08:17:01Z</time>
      </trkpt>
      <trkpt lat="45.74884" lon="4.81961">
        <ele>213.64957</ele>
        <time>2012-09-16T08:17:04Z</time>
      </trkpt>
      <trkpt lat="45.74867" lon="4.81937">
        <ele>213.83498</ele>
        <time>2012-09-16T08:17:07Z</time>
      </trkpt>
      <trkpt lat="45.7485" lon="4.81913">
        <ele>214.02725</ele>
        <time>2012-09-16T08:17:10Z</time>
      </trkpt>
      <trkpt lat="45.74833" lon="4.81889">
        <ele>214.13806</ele>
        <time>2012-09-16T08:17:13Z</time>
      </trkpt>
      <trkpt lat="45.74816" lon="4.81865">
        <ele>214.2895</ele>
        <time>2012-09-16T08:17:16Z</time>
      </trkpt>
      <trkpt lat="45.74799" lon="4.81842">
        <ele>214.44714</ele>
        <time>2012-09-16T08:17:19Z</time>
      </trkpt>
      <trkpt lat="45.74783" lon="4.8182">
        <ele>214.7199</ele>
        <time>2012-09-16T08:17:22Z</time>
      </trkpt>
      <trkpt lat="45.74768" lon="4.81797">
        <ele>214.84903</ele>
        <time>2012-09-16T08:17:25Z</time>
      </trkpt>
      <trkpt lat="45.74751" lon="4.81775">
        <ele>215.25505</ele>
        <time>2012-09-16T08:17:28Z</time>
      </trkpt>
      <trkpt lat="45.74734" lon="4.81752">
        <ele>215.58104</ele>
        <time>2012-09-16T08:17:31Z</time>
      </trkpt>
      <trkpt lat="45.74715" lon="4.8173">
        <ele>216.28888</ele>
        <time>2012-09-16T08:17:34Z</time>
      </trkpt>
      <trkpt lat="45.74696" lon="4.8171">
        <ele>217.18907</ele>
        <time>2012-09-16T08:17:37Z</time>
      </trkpt>
      <trkpt lat="45.74677" lon="4.81691">
        <ele>217.14853</ele>
        <time>2012-09-16T08:17:40Z</time>
      </trkpt>
      <trkpt lat="45.74659" lon="4.81671">
        <ele>216.80954</ele>
        <time>2012-09-16T08:17:43Z</time>
      </trkpt>
      <trkpt lat="45.7464" lon="4.81653">
        <ele>216.26808</ele>
        <time>2012-09-16T08:17:46Z</time>
      </trkpt>
      <trkpt lat="45.74622" lon="4.81638">
        <ele>215.5959</ele>
        <time>2012-09-16T08:17:49Z</time>
      </trkpt>
      <trkpt lat="45.74603" lon="4.81622">
        <ele>215.51233</ele>
        <time>2012-09-16T08:17:52Z</time>
      </trkpt>
      <trkpt lat="45.74584" lon="4.81609">
        <ele>215.68332</ele>
        <time>2012-09-16T08:17:55Z</time>
      </trkpt>
      <trkpt lat="45.74564" lon="4.81602">
        <ele>215.86795</ele>
        <time>2012-09-16T08:17:58Z</time>
      </trkpt>
      <trkpt lat="45.74543" lon="4.81596">
        <ele>215.8504</ele>
        <time>2012-09-16T08:18:02Z</time>
      </trkpt>
      <trkpt lat="45.74522" lon="4.81607">
        <ele>215.49925</ele>
        <time>2012-09-16T08:18:07Z</time>
      </trkpt>
      <trkpt lat="45.74507" lon="4.81588">
        <ele>215.24077</ele>
        <time>2012-09-16T08:18:11Z</time>
      </trkpt>
      <trkpt lat="45.74491" lon="4.81572">
        <ele>215.33284</ele>
        <time>2012-09-16T08:18:14Z</time>
      </trkpt>
      <trkpt lat="45.74473" lon="4.81558">
        <ele>215.27011</ele>
        <time>2012-09-16T08:18:17Z</time>
      </trkpt>
      <trkpt lat="45.74456" lon="4.81543">
        <ele>215.17175</ele>
        <time>2012-09-16T08:18:20Z</time>
      </trkpt>
      <trkpt lat="45.74438" lon="4.81529">
        <ele>215.13025</ele>
        <time>2012-09-16T08:18:23Z</time>
      </trkpt>
      <trkpt lat="45.74421" lon="4.81513">
        <ele>215.12682</ele>
        <time>2012-09-16T08:18:26Z</time>
      </trkpt>
      <trkpt lat="45.74403" lon="4.81499">
        <ele>215.1113</ele>
        <time>2012-09-16T08:18:29Z</time>
      </trkpt>
      <trkpt lat="45.74385" lon="4.81488">
        <ele>215.10475</ele>
        <time>2012-09-16T08:18:32Z</time>
      </trkpt>
      <trkpt lat="45.74365" lon="4.8148">
        <ele>215.10199</ele>
        <time>2012-09-16T08:18:35Z</time>
      </trkpt>
      <trkpt lat="45.74347" lon="4.81486">
        <ele>215.2024</ele>
        <time>2012-09-16T08:18:38Z</time>
      </trkpt>
      <trkpt lat="45.74334" lon="4.81508">
        <ele>215.4104</ele>
        <time>2012-09-16T08:18:41Z</time>
      </trkpt>
      <trkpt lat="45.74323" lon="4.81533">
        <ele>216.2028</ele>
        <time>2012-09-16T08:18:44Z</time>
      </trkpt>
      <trkpt lat="45.74313" lon="4.8156">
        <ele>217.52776</ele>
        <time>2012-09-16T08:18:47Z</time>
      </trkpt>
      <trkpt lat="45.74302" lon="4.81586">
        <ele>219.30077</ele>
        <time>2012-09-16T08:18:50Z</time>
      </trkpt>
      <trkpt lat="45.74291" lon="4.81612">
        <ele>221.2597</ele>
        <time>2012-09-16T08:18:53Z</time>
      </trkpt>
      <trkpt lat="45.7428" lon="4.81638">
        <ele>223.21114</ele>
        <time>2012-09-16T08:18:56Z</time>
      </trkpt>
      <trkpt lat="45.7427" lon="4.81664">
        <ele>225.12187</ele>
        <time>2012-09-16T08:18:59Z</time>
      </trkpt>
      <trkpt lat="45.74259" lon="4.8169">
        <ele>227.07175</ele>
        <time>2012-09-16T08:19:02Z</time>
      </trkpt>
      <trkpt lat="45.74248" lon="4.81714">
        <ele>228.95683</ele>
        <time>2012-09-16T08:19:05Z</time>
      </trkpt>
      <trkpt lat="45.74235" lon="4.8174">
        <ele>231.60054</ele>
        <time>2012-09-16T08:19:08Z</time>
      </trkpt>
      <trkpt lat="45.74225" lon="4.81766">
        <ele>234.36273</ele>
        <time>2012-09-16T08:19:11Z</time>
      </trkpt>
      <trkpt lat="45.74213" lon="4.81791">
        <ele>236.92334</ele>
        <time>2012-09-16T08:19:14Z</time>
      </trkpt>
      <trkpt lat="45.74203" lon="4.81817">
        <ele>238.21767</ele>
        <time>2012-09-16T08:19:17Z</time>
      </trkpt>
      <trkpt lat="45.74193" lon="4.81842">
        <ele>237.24652</ele>
        <time>2012-09-16T08:19:20Z</time>
      </trkpt>
      <trkpt lat="45.74183" lon="4.81867">
        <ele>236.3665</ele>
        <time>2012-09-16T08:19:23Z</time>
      </trkpt>
      <trkpt lat="45.74174" lon="4.81892">
        <ele>233.964</ele>
        <time>2012-09-16T08:19:26Z</time>
      </trkpt>
      <trkpt lat="45.74165" lon="4.81917">
        <ele>231.79576</ele>
        <time>2012-09-16T08:19:29Z</time>
      </trkpt>
      <trkpt lat="45.74153" lon="4.81945">
        <ele>229.10999</ele>
        <time>2012-09-16T08:19:33Z</time>
      </trkpt>
      <trkpt lat="45.74136" lon="4.81957">
        <ele>227.30745</ele>
        <time>2012-09-16T08:19:37Z</time>
      </trkpt>
      <trkpt lat="45.7412" lon="4.81939">
        <ele>224.65471</ele>
        <time>2012-09-16T08:19:41Z</time>
      </trkpt>
      <trkpt lat="45.74101" lon="4.81922">
        <ele>222.00168</ele>
        <time>2012-09-16T08:19:45Z</time>
      </trkpt>
      <trkpt lat="45.74108" lon="4.81891">
        <ele>221.6314</ele>
        <time>2012-09-16T08:19:49Z</time>
      </trkpt>
      <trkpt lat="45.74119" lon="4.81863">
        <ele>221.76794</ele>
        <time>2012-09-16T08:19:52Z</time>
      </trkpt>
      <trkpt lat="45.74131" lon="4.81835">
        <ele>221.82555</ele>
        <time>2012-09-16T08:19:55Z</time>
      </trkpt>
      <trkpt lat="45.74142" lon="4.81804">
        <ele>221.88266</ele>
        <time>2012-09-16T08:19:58Z</time>
      </trkpt>
      <trkpt lat="45.74152" lon="4.81772">
        <ele>221.68956</ele>
        <time>2012-09-16T08:20:01Z</time>
      </trkpt>
      <trkpt lat="45.74161" lon="4.81743">
        <ele>221.91278</ele>
        <time>2012-09-16T08:20:04Z</time>
      </trkpt>
      <trkpt lat="45.74171" lon="4.81715">
        <ele>221.48976</ele>
        <time>2012-09-16T08:20:07Z</time>
      </trkpt>
      <trkpt lat="45.74182" lon="4.81686">
        <ele>221.21288</ele>
        <time>2012-09-16T08:20:10Z</time>
      </trkpt>
      <trkpt lat="45.74191" lon="4.81658">
        <ele>221.5773</ele>
        <time>2012-09-16T08:20:13Z</time>
      </trkpt>
      <trkpt lat="45.74201" lon="4.8163">
        <ele>221.50917</ele>
        <time>2012-09-16T08:20:16Z</time>
      </trkpt>
      <trkpt lat="45.74211" lon="4.81601">
        <ele>221.43512</ele>
        <time>2012-09-16T08:20:19Z</time>
      </trkpt>
      <trkpt lat="45.7422" lon="4.81573">
        <ele>221.36795</ele>
        <time>2012-09-16T08:20:22Z</time>
      </trkpt>
      <trkpt lat="45.74229" lon="4.81544">
        <ele>221.50679</ele>
        <time>2012-09-16T08:20:25Z</time>
      </trkpt>
      <trkpt lat="45.74239" lon="4.81515">
        <ele>221.39507</ele>
        <time>2012-09-16T08:20:28Z</time>
      </trkpt>
      <trkpt lat="45.74246" lon="4.81486">
        <ele>221.01822</ele>
        <time>2012-09-16T08:20:31Z</time>
      </trkpt>
      <trkpt lat="45.74253" lon="4.81457">
        <ele>220.20145</ele>
        <time>2012-09-16T08:20:34Z</time>
      </trkpt>
      <trkpt lat="45.7424" lon="4.81437">
        <ele>219.5756</ele>
        <time>2012-09-16T08:20:37Z</time>
      </trkpt>
      <trkpt lat="45.74218" lon="4.81432">
        <ele>219.22096</ele>
        <time>2012-09-16T08:20:40Z</time>
      </trkpt>
      <trkpt lat="45.74198" lon="4.81429">
        <ele>218.7682</ele>
        <time>2012-09-16T08:20:43Z</time>
      </trkpt>
      <trkpt lat="45.74177" lon="4.81425">
        <ele>218.37096</ele>
        <time>2012-09-16T08:20:46Z</time>
      </trkpt>
      <trkpt lat="45.74157" lon="4.81422">
        <ele>218.02994</ele>
        <time>2012-09-16T08:20:49Z</time>
      </trkpt>
      <trkpt lat="45.74136" lon="4.81422">
        <ele>217.71263</ele>
        <time>2012-09-16T08:20:52Z</time>
      </trkpt>
      <trkpt lat="45.74116" lon="4.81421">
        <ele>217.46315</ele>
        <time>2012-09-16T08:20:55Z</time>
      </trkpt>
      <trkpt lat="45.74095" lon="4.81419">
        <ele>217.18445</ele>
        <time>2012-09-16T08:20:58Z</time>
      </trkpt>
      <trkpt lat="45.74074" lon="4.81417">
        <ele>216.99501</ele>
        <time>2012-09-16T08:21:01Z</time>
      </trkpt>
      <trkpt lat="45.74053" lon="4.81416">
        <ele>217.15414</ele>
        <time>2012-09-16T08:21:04Z</time>
      </trkpt>
      <trkpt lat="45.74033" lon="4.81409">
        <ele>217.51346</ele>
        <time>2012-09-16T08:21:07Z</time>
      </trkpt>
      <trkpt lat="45.74012" lon="4.81402">
        <ele>217.63538</ele>
        <time>2012-09-16T08:21:10Z</time>
      </trkpt>
      <trkpt lat="45.73991" lon="4.81403">
        <ele>217.73055</ele>
        <time>2012-09-16T08:21:13Z</time>
      </trkpt>
      <trkpt lat="45.7397" lon="4.81405">
        <ele>217.75664</ele>
        <time>2012-09-16T08:21:16Z</time>
      </trkpt>
      <trkpt lat="45.73949" lon="4.81409">
        <ele>218.13951</ele>
        <time>2012-09-16T08:21:19Z</time>
      </trkpt>
      <trkpt lat="45.73929" lon="4.81413">
        <ele>218.71979</ele>
        <time>2012-09-16T08:21:22Z</time>
      </trkpt>
      <trkpt lat="45.7391" lon="4.81416">
        <ele>218.9474</ele>
        <time>2012-09-16T08:21:25Z</time>
      </trkpt>
      <trkpt lat="45.73889" lon="4.81421">
        <ele>219.55594</ele>
        <time>2012-09-16T08:21:28Z</time>
      </trkpt>
      <trkpt lat="45.73869" lon="4.81426">
        <ele>220.38454</ele>
        <time>2012-09-16T08:21:31Z</time>
      </trkpt>
      <trkpt lat="45.7385" lon="4.81431">
        <ele>220.66222</ele>
        <time>2012-09-16T08:21:34Z</time>
      </trkpt>
      <trkpt lat="45.7383" lon="4.81435">
        <ele>220.13562</ele>
        <time>2012-09-16T08:21:37Z</time>
      </trkpt>
      <trkpt lat="45.7381" lon="4.8144">
        <ele>220.5619</ele>
        <time>2012-09-16T08:21:40Z</time>
      </trkpt>
      <trkpt lat="45.73788" lon="4.81445">
        <ele>222.08081</ele>
        <time>2012-09-16T08:21:43Z</time>
      </trkpt>
      <trkpt lat="45.73768" lon="4.81451">
        <ele>223.2794</ele>
        <time>2012-09-16T08:21:46Z</time>
      </trkpt>
      <trkpt lat="45.73749" lon="4.81455">
        <ele>223.21318</ele>
        <time>2012-09-16T08:21:49Z</time>
      </trkpt>
      <trkpt lat="45.73729" lon="4.8146">
        <ele>223.26337</ele>
        <time>2012-09-16T08:21:52Z</time>
      </trkpt>
      <trkpt lat="45.7371" lon="4.81464">
        <ele>223.2283</ele>
        <time>2012-09-16T08:21:55Z</time>
      </trkpt>
      <trkpt lat="45.7369" lon="4.81468">
        <ele>222.99475</ele>
        <time>2012-09-16T08:21:58Z</time>
      </trkpt>
      <trkpt lat="45.73671" lon="4.81473">
        <ele>223.07747</ele>
        <time>2012-09-16T08:22:01Z</time>
      </trkpt>
      <trkpt lat="45.73651" lon="4.81476">
        <ele>223.34987</ele>
        <time>2012-09-16T08:22:04Z</time>
      </trkpt>
      <trkpt lat="45.73631" lon="4.81481">
        <ele>224.06323</ele>
        <time>2012-09-16T08:22:07Z</time>
      </trkpt>
      <trkpt lat="45.73611" lon="4.81486">
        <ele>224.51418</ele>
        <time>2012-09-16T08:22:10Z</time>
      </trkpt>
      <trkpt lat="45.73588" lon="4.81491">
        <ele>223.7502</ele>
        <time>2012-09-16T08:22:14Z</time>
      </trkpt>
      <trkpt lat="45.73569" lon="4.81496">
        <ele>222.77899</ele>
        <time>2012-09-16T08:22:17Z</time>
      </trkpt>
      <trkpt lat="45.7355" lon="4.81499">
        <ele>221.91612</ele>
        <time>2012-09-16T08:22:20Z</time>
      </trkpt>
      <trkpt lat="45.73532" lon="4.81502">
        <ele>221.08961</ele>
        <time>2012-09-16T08:22:23Z</time>
      </trkpt>
      <trkpt lat="45.73514" lon="4.8152">
        <ele>219.67679</ele>
        <time>2012-09-16T08:22:27Z</time>
      </trkpt>
      <trkpt lat="45.73507" lon="4.8155">
        <ele>218.09421</ele>
        <time>2012-09-16T08:22:31Z</time>
      </trkpt>
      <trkpt lat="45.73498" lon="4.81582">
        <ele>217.96614</ele>
        <time>2012-09-16T08:22:35Z</time>
      </trkpt>
      <trkpt lat="45.73477" lon="4.81592">
        <ele>218.54318</ele>
        <time>2012-09-16T08:22:39Z</time>
      </trkpt>
      <trkpt lat="45.73458" lon="4.81596">
        <ele>219.25728</ele>
        <time>2012-09-16T08:22:42Z</time>
      </trkpt>
      <trkpt lat="45.73438" lon="4.81598">
        <ele>219.41322</ele>
        <time>2012-09-16T08:22:45Z</time>
      </trkpt>
      <trkpt lat="45.73419" lon="4.81602">
        <ele>219.51183</ele>
        <time>2012-09-16T08:22:48Z</time>
      </trkpt>
      <trkpt lat="45.734" lon="4.81602">
        <ele>219.54718</ele>
        <time>2012-09-16T08:22:51Z</time>
      </trkpt>
      <trkpt lat="45.73377" lon="4.81604">
        <ele>221.2579</ele>
        <time>2012-09-16T08:22:55Z</time>
      </trkpt>
      <trkpt lat="45.73357" lon="4.81608">
        <ele>223.64317</ele>
        <time>2012-09-16T08:22:58Z</time>
      </trkpt>
      <trkpt lat="45.73334" lon="4.81608">
        <ele>224.6867</ele>
        <time>2012-09-16T08:23:02Z</time>
      </trkpt>
      <trkpt lat="45.73322" lon="4.81581">
        <ele>224.2872</ele>
        <time>2012-09-16T08:23:06Z</time>
      </trkpt>
      <trkpt lat="45.73312" lon="4.81557">
        <ele>222.87291</ele>
        <time>2012-09-16T08:23:10Z</time>
      </trkpt>
      <trkpt lat="45.73291" lon="4.81562">
        <ele>221.87607</ele>
        <time>2012-09-16T08:23:13Z</time>
      </trkpt>
      <trkpt lat="45.73271" lon="4.81564">
        <ele>220.72116</ele>
        <time>2012-09-16T08:23:16Z</time>
      </trkpt>
      <trkpt lat="45.73249" lon="4.81568">
        <ele>219.76987</ele>
        <time>2012-09-16T08:23:19Z</time>
      </trkpt>
      <trkpt lat="45.73228" lon="4.81578">
        <ele>219.03728</ele>
        <time>2012-09-16T08:23:22Z</time>
      </trkpt>
      <trkpt lat="45.7321" lon="4.81598">
        <ele>219.0626</ele>
        <time>2012-09-16T08:23:25Z</time>
      </trkpt>
      <trkpt lat="45.73193" lon="4.8162">
        <ele>220.07642</ele>
        <time>2012-09-16T08:23:28Z</time>
      </trkpt>
      <trkpt lat="45.73173" lon="4.8163">
        <ele>220.90724</ele>
        <time>2012-09-16T08:23:31Z</time>
      </trkpt>
      <trkpt lat="45.7317" lon="4.81666">
        <ele>222.2843</ele>
        <time>2012-09-16T08:23:34Z</time>
      </trkpt>
      <trkpt lat="45.73157" lon="4.81696">
        <ele>224.16838</ele>
        <time>2012-09-16T08:23:37Z</time>
      </trkpt>
      <trkpt lat="45.73142" lon="4.81719">
        <ele>226.42416</ele>
        <time>2012-09-16T08:23:40Z</time>
      </trkpt>
      <trkpt lat="45.73126" lon="4.81738">
        <ele>228.33987</ele>
        <time>2012-09-16T08:23:43Z</time>
      </trkpt>
      <trkpt lat="45.73109" lon="4.81755">
        <ele>230.26213</ele>
        <time>2012-09-16T08:23:46Z</time>
      </trkpt>
      <trkpt lat="45.73094" lon="4.81769">
        <ele>231.46527</ele>
        <time>2012-09-16T08:23:49Z</time>
      </trkpt>
      <trkpt lat="45.73074" lon="4.81781">
        <ele>230.92154</ele>
        <time>2012-09-16T08:23:56Z</time>
      </trkpt>
      <trkpt lat="45.73057" lon="4.81793">
        <ele>231.35252</ele>
        <time>2012-09-16T08:24:00Z</time>
      </trkpt>
      <trkpt lat="45.73035" lon="4.81804">
        <ele>232.9467</ele>
        <time>2012-09-16T08:24:04Z</time>
      </trkpt>
      <trkpt lat="45.73013" lon="4.81814">
        <ele>233.664</ele>
        <time>2012-09-16T08:24:08Z</time>
      </trkpt>
      <trkpt lat="45.72991" lon="4.81823">
        <ele>234.15033</ele>
        <time>2012-09-16T08:24:12Z</time>
      </trkpt>
      <trkpt lat="45.72969" lon="4.81829">
        <ele>233.8878</ele>
        <time>2012-09-16T08:24:16Z</time>
      </trkpt>
      <trkpt lat="45.72946" lon="4.81834">
        <ele>233.07973</ele>
        <time>2012-09-16T08:24:20Z</time>
      </trkpt>
      <trkpt lat="45.72925" lon="4.81839">
        <ele>231.05687</ele>
        <time>2012-09-16T08:24:24Z</time>
      </trkpt>
      <trkpt lat="45.72903" lon="4.81842">
        <ele>226.7473</ele>
        <time>2012-09-16T08:24:28Z</time>
      </trkpt>
      <trkpt lat="45.72883" lon="4.81844">
        <ele>223.49506</ele>
        <time>2012-09-16T08:24:32Z</time>
      </trkpt>
      <trkpt lat="45.72902" lon="4.81857">
        <ele>216.49062</ele>
        <time>2012-09-16T08:24:41Z</time>
      </trkpt>
      <trkpt lat="45.72924" lon="4.81856">
        <ele>215.28726</ele>
        <time>2012-09-16T08:24:45Z</time>
      </trkpt>
      <trkpt lat="45.72947" lon="4.81855">
        <ele>214.51042</ele>
        <time>2012-09-16T08:24:49Z</time>
      </trkpt>
      <trkpt lat="45.72971" lon="4.81854">
        <ele>214.1615</ele>
        <time>2012-09-16T08:24:53Z</time>
      </trkpt>
      <trkpt lat="45.72989" lon="4.81855">
        <ele>214.0244</ele>
        <time>2012-09-16T08:24:56Z</time>
      </trkpt>
      <trkpt lat="45.73013" lon="4.81855">
        <ele>214.01161</ele>
        <time>2012-09-16T08:25:00Z</time>
      </trkpt>
      <trkpt lat="45.73031" lon="4.81856">
        <ele>214.0627</ele>
        <time>2012-09-16T08:25:03Z</time>
      </trkpt>
      <trkpt lat="45.7305" lon="4.81857">
        <ele>214.03426</ele>
        <time>2012-09-16T08:25:06Z</time>
      </trkpt>
      <trkpt lat="45.73068" lon="4.8186">
        <ele>213.83008</ele>
        <time>2012-09-16T08:25:09Z</time>
      </trkpt>
      <trkpt lat="45.73087" lon="4.81861">
        <ele>213.5955</ele>
        <time>2012-09-16T08:25:12Z</time>
      </trkpt>
      <trkpt lat="45.73107" lon="4.81863">
        <ele>213.20749</ele>
        <time>2012-09-16T08:25:15Z</time>
      </trkpt>
      <trkpt lat="45.73126" lon="4.81866">
        <ele>212.94691</ele>
        <time>2012-09-16T08:25:18Z</time>
      </trkpt>
      <trkpt lat="45.73144" lon="4.81869">
        <ele>212.89792</ele>
        <time>2012-09-16T08:25:21Z</time>
      </trkpt>
      <trkpt lat="45.73163" lon="4.81872">
        <ele>212.946</ele>
        <time>2012-09-16T08:25:24Z</time>
      </trkpt>
      <trkpt lat="45.73183" lon="4.81876">
        <ele>212.85066</ele>
        <time>2012-09-16T08:25:27Z</time>
      </trkpt>
      <trkpt lat="45.73202" lon="4.81879">
        <ele>212.74481</ele>
        <time>2012-09-16T08:25:30Z</time>
      </trkpt>
      <trkpt lat="45.7322" lon="4.81883">
        <ele>212.84547</ele>
        <time>2012-09-16T08:25:33Z</time>
      </trkpt>
      <trkpt lat="45.73239" lon="4.81888">
        <ele>213.07544</ele>
        <time>2012-09-16T08:25:36Z</time>
      </trkpt>
      <trkpt lat="45.73258" lon="4.81892">
        <ele>213.51152</ele>
        <time>2012-09-16T08:25:39Z</time>
      </trkpt>
      <trkpt lat="45.73277" lon="4.81896">
        <ele>213.68922</ele>
        <time>2012-09-16T08:25:42Z</time>
      </trkpt>
      <trkpt lat="45.73297" lon="4.81901">
        <ele>213.39076</ele>
        <time>2012-09-16T08:25:45Z</time>
      </trkpt>
      <trkpt lat="45.73317" lon="4.81906">
        <ele>212.9258</ele>
        <time>2012-09-16T08:25:48Z</time>
      </trkpt>
      <trkpt lat="45.73335" lon="4.81912">
        <ele>212.52026</ele>
        <time>2012-09-16T08:25:51Z</time>
      </trkpt>
      <trkpt lat="45.73354" lon="4.81917">
        <ele>212.21948</ele>
        <time>2012-09-16T08:25:54Z</time>
      </trkpt>
      <trkpt lat="45.73373" lon="4.81923">
        <ele>212.33948</ele>
        <time>2012-09-16T08:25:57Z</time>
      </trkpt>
      <trkpt lat="45.73395" lon="4.81928">
        <ele>212.67758</ele>
        <time>2012-09-16T08:26:00Z</time>
      </trkpt>
      <trkpt lat="45.73412" lon="4.81934">
        <ele>213.51242</ele>
        <time>2012-09-16T08:26:03Z</time>
      </trkpt>
      <trkpt lat="45.73434" lon="4.8194">
        <ele>214.72269</ele>
        <time>2012-09-16T08:26:07Z</time>
      </trkpt>
      <trkpt lat="45.73453" lon="4.81945">
        <ele>216.2272</ele>
        <time>2012-09-16T08:26:13Z</time>
      </trkpt>
      <trkpt lat="45.73437" lon="4.81932">
        <ele>215.67247</ele>
        <time>2012-09-16T08:26:20Z</time>
      </trkpt>
      <trkpt lat="45.73418" lon="4.81921">
        <ele>215.59668</ele>
        <time>2012-09-16T08:26:25Z</time>
      </trkpt>
      <trkpt lat="45.73399" lon="4.81904">
        <ele>216.03241</ele>
        <time>2012-09-16T08:26:30Z</time>
      </trkpt>
      <trkpt lat="45.73379" lon="4.81899">
        <ele>216.7258</ele>
        <time>2012-09-16T08:26:47Z</time>
      </trkpt>
      <trkpt lat="45.73367" lon="4.81925">
        <ele>217.13054</ele>
        <time>2012-09-16T08:26:52Z</time>
      </trkpt>
      <trkpt lat="45.7336" lon="4.81954">
        <ele>217.8663</ele>
        <time>2012-09-16T08:26:56Z</time>
      </trkpt>
      <trkpt lat="45.73353" lon="4.81984">
        <ele>218.68933</ele>
        <time>2012-09-16T08:27:00Z</time>
      </trkpt>
      <trkpt lat="45.73345" lon="4.82014">
        <ele>219.35951</ele>
        <time>2012-09-16T08:27:04Z</time>
      </trkpt>
      <trkpt lat="45.73337" lon="4.82046">
        <ele>219.83015</ele>
        <time>2012-09-16T08:27:08Z</time>
      </trkpt>
      <trkpt lat="45.7333" lon="4.82072">
        <ele>219.83461</ele>
        <time>2012-09-16T08:27:11Z</time>
      </trkpt>
      <trkpt lat="45.73323" lon="4.82099">
        <ele>219.71303</ele>
        <time>2012-09-16T08:27:14Z</time>
      </trkpt>
      <trkpt lat="45.73315" lon="4.82128">
        <ele>219.69144</ele>
        <time>2012-09-16T08:27:17Z</time>
      </trkpt>
      <trkpt lat="45.73307" lon="4.82158">
        <ele>219.78702</ele>
        <time>2012-09-16T08:27:20Z</time>
      </trkpt>
      <trkpt lat="45.73298" lon="4.82189">
        <ele>219.90234</ele>
        <time>2012-09-16T08:27:23Z</time>
      </trkpt>
      <trkpt lat="45.73288" lon="4.82221">
        <ele>220.20099</ele>
        <time>2012-09-16T08:27:26Z</time>
      </trkpt>
      <trkpt lat="45.73279" lon="4.82254">
        <ele>220.62073</ele>
        <time>2012-09-16T08:27:29Z</time>
      </trkpt>
      <trkpt lat="45.73269" lon="4.82286">
        <ele>220.85405</ele>
        <time>2012-09-16T08:27:32Z</time>
      </trkpt>
      <trkpt lat="45.7326" lon="4.82319">
        <ele>220.95093</ele>
        <time>2012-09-16T08:27:35Z</time>
      </trkpt>
      <trkpt lat="45.73251" lon="4.82351">
        <ele>221.46681</ele>
        <time>2012-09-16T08:27:38Z</time>
      </trkpt>
      <trkpt lat="45.73239" lon="4.82371">
        <ele>221.80942</ele>
        <time>2012-09-16T08:27:42Z</time>
      </trkpt>
      <trkpt lat="45.73221" lon="4.82365">
        <ele>221.1321</ele>
        <time>2012-09-16T08:27:45Z</time>
      </trkpt>
      <trkpt lat="45.73199" lon="4.82361">
        <ele>220.75105</ele>
        <time>2012-09-16T08:27:48Z</time>
      </trkpt>
      <trkpt lat="45.73176" lon="4.82353">
        <ele>219.54654</ele>
        <time>2012-09-16T08:27:51Z</time>
      </trkpt>
      <trkpt lat="45.73159" lon="4.82336">
        <ele>219.99802</ele>
        <time>2012-09-16T08:27:57Z</time>
      </trkpt>
      <trkpt lat="45.73138" lon="4.82326">
        <ele>219.55132</ele>
        <time>2012-09-16T08:28:01Z</time>
      </trkpt>
      <trkpt lat="45.7312" lon="4.82319">
        <ele>219.40602</ele>
        <time>2012-09-16T08:28:04Z</time>
      </trkpt>
      <trkpt lat="45.73098" lon="4.82313">
        <ele>220.67143</ele>
        <time>2012-09-16T08:28:08Z</time>
      </trkpt>
      <trkpt lat="45.73077" lon="4.82306">
        <ele>220.71452</ele>
        <time>2012-09-16T08:28:11Z</time>
      </trkpt>
      <trkpt lat="45.73056" lon="4.823">
        <ele>220.98112</ele>
        <time>2012-09-16T08:28:14Z</time>
      </trkpt>
      <trkpt lat="45.73033" lon="4.82296">
        <ele>221.15765</ele>
        <time>2012-09-16T08:28:17Z</time>
      </trkpt>
      <trkpt lat="45.7301" lon="4.8229">
        <ele>222.70712</ele>
        <time>2012-09-16T08:28:20Z</time>
      </trkpt>
      <trkpt lat="45.72986" lon="4.8229">
        <ele>225.42018</ele>
        <time>2012-09-16T08:28:23Z</time>
      </trkpt>
      <trkpt lat="45.72962" lon="4.82289">
        <ele>226.7632</ele>
        <time>2012-09-16T08:28:26Z</time>
      </trkpt>
      <trkpt lat="45.7294" lon="4.82285">
        <ele>227.94853</ele>
        <time>2012-09-16T08:28:29Z</time>
      </trkpt>
      <trkpt lat="45.72918" lon="4.82283">
        <ele>229.56424</ele>
        <time>2012-09-16T08:28:32Z</time>
      </trkpt>
      <trkpt lat="45.72896" lon="4.8228">
        <ele>231.4318</ele>
        <time>2012-09-16T08:28:35Z</time>
      </trkpt>
      <trkpt lat="45.72874" lon="4.82282">
        <ele>232.6681</ele>
        <time>2012-09-16T08:28:38Z</time>
      </trkpt>
      <trkpt lat="45.72852" lon="4.82282">
        <ele>232.46936</ele>
        <time>2012-09-16T08:28:41Z</time>
      </trkpt>
      <trkpt lat="45.72832" lon="4.82283">
        <ele>230.06218</ele>
        <time>2012-09-16T08:28:45Z</time>
      </trkpt>
      <trkpt lat="45.72849" lon="4.82272">
        <ele>221.17174</ele>
        <time>2012-09-16T08:29:04Z</time>
      </trkpt>
      <trkpt lat="45.72849" lon="4.82243">
        <ele>219.83794</ele>
        <time>2012-09-16T08:29:08Z</time>
      </trkpt>
      <trkpt lat="45.72846" lon="4.82212">
        <ele>220.02959</ele>
        <time>2012-09-16T08:29:12Z</time>
      </trkpt>
      <trkpt lat="45.72843" lon="4.82187">
        <ele>219.8531</ele>
        <time>2012-09-16T08:29:15Z</time>
      </trkpt>
      <trkpt lat="45.72835" lon="4.8216">
        <ele>219.32396</ele>
        <time>2012-09-16T08:29:18Z</time>
      </trkpt>
      <trkpt lat="45.72825" lon="4.82134">
        <ele>218.67729</ele>
        <time>2012-09-16T08:29:21Z</time>
      </trkpt>
      <trkpt lat="45.72803" lon="4.82117">
        <ele>218.1076</ele>
        <time>2012-09-16T08:29:24Z</time>
      </trkpt>
      <trkpt lat="45.72782" lon="4.82107">
        <ele>218.04227</ele>
        <time>2012-09-16T08:29:27Z</time>
      </trkpt>
      <trkpt lat="45.72759" lon="4.82105">
        <ele>218.21626</ele>
        <time>2012-09-16T08:29:30Z</time>
      </trkpt>
      <trkpt lat="45.72737" lon="4.82105">
        <ele>218.60687</ele>
        <time>2012-09-16T08:29:33Z</time>
      </trkpt>
      <trkpt lat="45.72717" lon="4.82099">
        <ele>219.38101</ele>
        <time>2012-09-16T08:29:36Z</time>
      </trkpt>
      <trkpt lat="45.72699" lon="4.82085">
        <ele>220.41542</ele>
        <time>2012-09-16T08:29:39Z</time>
      </trkpt>
      <trkpt lat="45.72679" lon="4.82082">
        <ele>221.1237</ele>
        <time>2012-09-16T08:29:42Z</time>
      </trkpt>
      <trkpt lat="45.72657" lon="4.82085">
        <ele>220.85687</ele>
        <time>2012-09-16T08:29:45Z</time>
      </trkpt>
    </trkseg>
  </trk>
</gpx>